<?xml version='1.0' encoding='UTF-8'?><gpx version="1.1" creator="JPX - https://github.com/jenetics/jpx" xmlns="http://www.topografix.com/GPX/1/1"><trk><trkseg><trkpt lat="46.26249717666723" lon="13.108199868174442"><ele>186.0</ele><time>2026-05-03T13:32:24Z</time></trkpt><trkpt lat="46.262549307378336" lon="13.108326024216574"><ele>186.0</ele><time>2026-05-03T13:32:25Z</time></trkpt><trkpt lat="46.26261280958334" lon="13.108333686954309"><ele>186.0</ele><time>2026-05-03T13:32:26Z</time></trkpt><trkpt lat="46.262732877684655" lon="13.108240932317441"><ele>186.0</ele><time>2026-05-03T13:32:27.999Z</time></trkpt><trkpt lat="46.26284176823169" lon="13.10823022046575"><ele>186.0</ele><time>2026-05-03T13:32:29.999Z</time></trkpt><trkpt lat="46.26297105067341" lon="13.108203206881944"><ele>186.0</ele><time>2026-05-03T13:32:31.999Z</time></trkpt><trkpt lat="46.263042687399455" lon="13.108188513489809"><ele>186.0</ele><time>2026-05-03T13:32:32.999Z</time></trkpt><trkpt lat="46.26311727220854" lon="13.108174020125277"><ele>186.0</ele><time>2026-05-03T13:32:33.999Z</time></trkpt><trkpt lat="46.263195082006405" lon="13.108161388514898"><ele>186.0</ele><time>2026-05-03T13:32:34.999Z</time></trkpt><trkpt lat="46.26328335031847" lon="13.108154807713746"><ele>186.0</ele><time>2026-05-03T13:32:35.999Z</time></trkpt><trkpt lat="46.26337878078434" lon="13.108139625774923"><ele>186.0</ele><time>2026-05-03T13:32:36.999Z</time></trkpt><trkpt lat="46.26348202510823" lon="13.108123966671718"><ele>185.60000000000002</ele><time>2026-05-03T13:32:37.999Z</time></trkpt><trkpt lat="46.263574329621115" lon="13.108110383134377"><ele>185.2</ele><time>2026-05-03T13:32:38.999Z</time></trkpt><trkpt lat="46.2636664330621" lon="13.10809679214167"><ele>184.8</ele><time>2026-05-03T13:32:39.999Z</time></trkpt><trkpt lat="46.26375936555276" lon="13.108082273300754"><ele>184.39999999999998</ele><time>2026-05-03T13:32:40.999Z</time></trkpt><trkpt lat="46.263847496008026" lon="13.10806700979521"><ele>184.0</ele><time>2026-05-03T13:32:41.999Z</time></trkpt><trkpt lat="46.2639347766298" lon="13.108056803200704"><ele>184.6</ele><time>2026-05-03T13:32:42.999Z</time></trkpt><trkpt lat="46.26402558335062" lon="13.10804485363494"><ele>185.2</ele><time>2026-05-03T13:32:43.999Z</time></trkpt><trkpt lat="46.26412102758598" lon="13.108032968300597"><ele>185.79999999999998</ele><time>2026-05-03T13:32:44.999Z</time></trkpt><trkpt lat="46.26421617284328" lon="13.108019428779297"><ele>186.39999999999998</ele><time>2026-05-03T13:32:45.999Z</time></trkpt><trkpt lat="46.26431751812031" lon="13.107999989184417"><ele>187.0</ele><time>2026-05-03T13:32:46.999Z</time></trkpt><trkpt lat="46.26442233278987" lon="13.107990970991931"><ele>187.0</ele><time>2026-05-03T13:32:47.999Z</time></trkpt><trkpt lat="46.264529723837896" lon="13.107976696376031"><ele>187.0</ele><time>2026-05-03T13:32:48.999Z</time></trkpt><trkpt lat="46.26463624072794" lon="13.107963382318934"><ele>187.0</ele><time>2026-05-03T13:32:49.999Z</time></trkpt><trkpt lat="46.26474140000678" lon="13.107951002329756"><ele>187.0</ele><time>2026-05-03T13:32:50.999Z</time></trkpt><trkpt lat="46.26484953718245" lon="13.107935186416205"><ele>187.0</ele><time>2026-05-03T13:32:51.999Z</time></trkpt><trkpt lat="46.26496006846135" lon="13.107917578934902"><ele>186.8</ele><time>2026-05-03T13:32:52.999Z</time></trkpt><trkpt lat="46.26506607653662" lon="13.107905117309938"><ele>186.6</ele><time>2026-05-03T13:32:53.999Z</time></trkpt><trkpt lat="46.2651677391561" lon="13.107898554229367"><ele>186.4</ele><time>2026-05-03T13:32:54.999Z</time></trkpt><trkpt lat="46.2652639222008" lon="13.107882346631492"><ele>186.20000000000002</ele><time>2026-05-03T13:32:55.999Z</time></trkpt><trkpt lat="46.265351220004895" lon="13.10787234637196"><ele>186.0</ele><time>2026-05-03T13:32:56.999Z</time></trkpt><trkpt lat="46.26543436877038" lon="13.107861185517503"><ele>186.0</ele><time>2026-05-03T13:32:57.999Z</time></trkpt><trkpt lat="46.26551485068905" lon="13.107854646169768"><ele>186.0</ele><time>2026-05-03T13:32:58.999Z</time></trkpt><trkpt lat="46.26558957218647" lon="13.107846233718284"><ele>186.0</ele><time>2026-05-03T13:32:59.999Z</time></trkpt><trkpt lat="46.26566426022807" lon="13.107837087705196"><ele>186.0</ele><time>2026-05-03T13:33:00.999Z</time></trkpt><trkpt lat="46.265742811923204" lon="13.1078286038993"><ele>186.0</ele><time>2026-05-03T13:33:01.999Z</time></trkpt><trkpt lat="46.26582908551004" lon="13.1078157907028"><ele>186.0</ele><time>2026-05-03T13:33:02.999Z</time></trkpt><trkpt lat="46.26592026701933" lon="13.107805565923503"><ele>186.0</ele><time>2026-05-03T13:33:03.999Z</time></trkpt><trkpt lat="46.26602539051265" lon="13.10779230996626"><ele>186.0</ele><time>2026-05-03T13:33:04.999Z</time></trkpt><trkpt lat="46.26613625405939" lon="13.107778921238612"><ele>186.0</ele><time>2026-05-03T13:33:05.999Z</time></trkpt><trkpt lat="46.26624871705199" lon="13.107763535718103"><ele>186.0</ele><time>2026-05-03T13:33:06.999Z</time></trkpt><trkpt lat="46.26635832466218" lon="13.107745851676514"><ele>186.0</ele><time>2026-05-03T13:33:07.999Z</time></trkpt><trkpt lat="46.26647072805631" lon="13.107730496246809"><ele>186.0</ele><time>2026-05-03T13:33:08.999Z</time></trkpt><trkpt lat="46.266585677140164" lon="13.107714708851576"><ele>186.0</ele><time>2026-05-03T13:33:09.999Z</time></trkpt><trkpt lat="46.2666980070636" lon="13.107699235200027"><ele>186.0</ele><time>2026-05-03T13:33:10.999Z</time></trkpt><trkpt lat="46.26681314785577" lon="13.107686051891116"><ele>186.0</ele><time>2026-05-03T13:33:11.999Z</time></trkpt><trkpt lat="46.26693240938911" lon="13.107671459218379"><ele>186.0</ele><time>2026-05-03T13:33:12.999Z</time></trkpt><trkpt lat="46.26705691943015" lon="13.107652724892121"><ele>186.0</ele><time>2026-05-03T13:33:13.999Z</time></trkpt><trkpt lat="46.26718495761406" lon="13.107635068136826"><ele>186.0</ele><time>2026-05-03T13:33:14.999Z</time></trkpt><trkpt lat="46.26731571193829" lon="13.107619791221026"><ele>186.0</ele><time>2026-05-03T13:33:15.999Z</time></trkpt><trkpt lat="46.26744865138973" lon="13.107603012982585"><ele>186.5</ele><time>2026-05-03T13:33:16.999Z</time></trkpt><trkpt lat="46.26758090387443" lon="13.10758549834948"><ele>187.0</ele><time>2026-05-03T13:33:17.999Z</time></trkpt><trkpt lat="46.26771441676629" lon="13.10756798711628"><ele>187.5</ele><time>2026-05-03T13:33:18.999Z</time></trkpt><trkpt lat="46.26785124469966" lon="13.107551392548443"><ele>188.0</ele><time>2026-05-03T13:33:19.999Z</time></trkpt><trkpt lat="46.26798887748207" lon="13.107531206390874"><ele>188.0</ele><time>2026-05-03T13:33:20.999Z</time></trkpt><trkpt lat="46.26813240070609" lon="13.107509688040874"><ele>188.0</ele><time>2026-05-03T13:33:21.999Z</time></trkpt><trkpt lat="46.26827583377313" lon="13.107493589496933"><ele>188.0</ele><time>2026-05-03T13:33:22.999Z</time></trkpt><trkpt lat="46.268423632263094" lon="13.10748101157251"><ele>188.0</ele><time>2026-05-03T13:33:23.999Z</time></trkpt><trkpt lat="46.26856783531795" lon="13.107463408889135"><ele>188.0</ele><time>2026-05-03T13:33:24.999Z</time></trkpt><trkpt lat="46.268714646933155" lon="13.107452285885156"><ele>188.0</ele><time>2026-05-03T13:33:25.999Z</time></trkpt><trkpt lat="46.268856908600554" lon="13.10744646625069"><ele>188.0</ele><time>2026-05-03T13:33:26.999Z</time></trkpt><trkpt lat="46.26899949923856" lon="13.10744514574487"><ele>188.0</ele><time>2026-05-03T13:33:27.999Z</time></trkpt><trkpt lat="46.26914176100962" lon="13.107449707298771"><ele>188.5</ele><time>2026-05-03T13:33:28.999Z</time></trkpt><trkpt lat="46.26928569889374" lon="13.107455123153468"><ele>189.0</ele><time>2026-05-03T13:33:29.999Z</time></trkpt><trkpt lat="46.269425222269" lon="13.107469109371717"><ele>189.5</ele><time>2026-05-03T13:33:30.999Z</time></trkpt><trkpt lat="46.26956906775084" lon="13.10748940513457"><ele>190.0</ele><time>2026-05-03T13:33:31.999Z</time></trkpt><trkpt lat="46.26971365227679" lon="13.107515322689828"><ele>191.0</ele><time>2026-05-03T13:33:32.999Z</time></trkpt><trkpt lat="46.269858513397324" lon="13.107544797830936"><ele>192.0</ele><time>2026-05-03T13:33:33.999Z</time></trkpt><trkpt lat="46.270008404142395" lon="13.107574777346434"><ele>193.0</ele><time>2026-05-03T13:33:34.999Z</time></trkpt><trkpt lat="46.27016077195599" lon="13.107602114208055"><ele>193.0</ele><time>2026-05-03T13:33:35.999Z</time></trkpt><trkpt lat="46.270312440430054" lon="13.107626831590476"><ele>193.0</ele><time>2026-05-03T13:33:36.999Z</time></trkpt><trkpt lat="46.270462804701054" lon="13.107657004569022"><ele>193.0</ele><time>2026-05-03T13:33:37.999Z</time></trkpt><trkpt lat="46.27061231616931" lon="13.10768547742756"><ele>192.5</ele><time>2026-05-03T13:33:38.999Z</time></trkpt><trkpt lat="46.27076243787342" lon="13.107710599930966"><ele>192.0</ele><time>2026-05-03T13:33:39.999Z</time></trkpt><trkpt lat="46.2709094805413" lon="13.107736210846197"><ele>191.5</ele><time>2026-05-03T13:33:40.999Z</time></trkpt><trkpt lat="46.27104920371236" lon="13.107760812850428"><ele>191.0</ele><time>2026-05-03T13:33:41.999Z</time></trkpt><trkpt lat="46.27118134509627" lon="13.107786576461212"><ele>191.0</ele><time>2026-05-03T13:33:42.999Z</time></trkpt><trkpt lat="46.27130841951148" lon="13.107812535675997"><ele>191.0</ele><time>2026-05-03T13:33:43.999Z</time></trkpt><trkpt lat="46.27143479335166" lon="13.107835729499662"><ele>191.0</ele><time>2026-05-03T13:33:44.999Z</time></trkpt><trkpt lat="46.27156459467903" lon="13.107857892583906"><ele>191.0</ele><time>2026-05-03T13:33:45.999Z</time></trkpt><trkpt lat="46.27169732430656" lon="13.10788248706638"><ele>190.5</ele><time>2026-05-03T13:33:46.999Z</time></trkpt><trkpt lat="46.271829060010305" lon="13.107909280694784"><ele>190.0</ele><time>2026-05-03T13:33:47.999Z</time></trkpt><trkpt lat="46.27196427106822" lon="13.107935484712739"><ele>189.5</ele><time>2026-05-03T13:33:48.999Z</time></trkpt><trkpt lat="46.272099872480126" lon="13.10795781197511"><ele>189.0</ele><time>2026-05-03T13:33:49.999Z</time></trkpt><trkpt lat="46.27224019517062" lon="13.107979493538169"><ele>189.0</ele><time>2026-05-03T13:33:50.999Z</time></trkpt><trkpt lat="46.27237605471153" lon="13.108000057848287"><ele>189.0</ele><time>2026-05-03T13:33:51.999Z</time></trkpt><trkpt lat="46.27250216942611" lon="13.10802103416564"><ele>189.0</ele><time>2026-05-03T13:33:52.999Z</time></trkpt><trkpt lat="46.27262173178433" lon="13.108040269682023"><ele>189.0</ele><time>2026-05-03T13:33:53.999Z</time></trkpt><trkpt lat="46.27273738461941" lon="13.108058024715554"><ele>189.0</ele><time>2026-05-03T13:33:54.999Z</time></trkpt><trkpt lat="46.27284340503814" lon="13.108075153238303"><ele>189.0</ele><time>2026-05-03T13:33:55.999Z</time></trkpt><trkpt lat="46.272947168073784" lon="13.10808880256105"><ele>189.0</ele><time>2026-05-03T13:33:56.999Z</time></trkpt><trkpt lat="46.27303250395333" lon="13.10809434606914"><ele>189.0</ele><time>2026-05-03T13:33:57.999Z</time></trkpt><trkpt lat="46.27311921832341" lon="13.108109640694245"><ele>189.0</ele><time>2026-05-03T13:33:59.999Z</time></trkpt><trkpt lat="46.273213311785284" lon="13.108174197878459"><ele>190.0</ele><time>2026-05-03T13:34:02.999Z</time></trkpt><trkpt lat="46.27333576243683" lon="13.108206629385235"><ele>191.0</ele><time>2026-05-03T13:34:04.999Z</time></trkpt><trkpt lat="46.27347559928566" lon="13.108186359546135"><ele>192.0</ele><time>2026-05-03T13:34:06.999Z</time></trkpt><trkpt lat="46.27356341880729" lon="13.108195971518487"><ele>193.0</ele><time>2026-05-03T13:34:07.999Z</time></trkpt><trkpt lat="46.273659790099536" lon="13.108221918501341"><ele>193.0</ele><time>2026-05-03T13:34:08.999Z</time></trkpt><trkpt lat="46.273765164317794" lon="13.108252989006578"><ele>193.0</ele><time>2026-05-03T13:34:09.999Z</time></trkpt><trkpt lat="46.27386346861487" lon="13.108276677549727"><ele>193.0</ele><time>2026-05-03T13:34:10.999Z</time></trkpt><trkpt lat="46.27395837766878" lon="13.108300267798189"><ele>193.0</ele><time>2026-05-03T13:34:11.999Z</time></trkpt><trkpt lat="46.27406008124603" lon="13.108318208556152"><ele>193.0</ele><time>2026-05-03T13:34:12.999Z</time></trkpt><trkpt lat="46.274164200782224" lon="13.108334739847846"><ele>193.0</ele><time>2026-05-03T13:34:13.999Z</time></trkpt><trkpt lat="46.27427026868211" lon="13.108353873184068"><ele>193.0</ele><time>2026-05-03T13:34:14.999Z</time></trkpt><trkpt lat="46.27437761835133" lon="13.10837448485822"><ele>193.0</ele><time>2026-05-03T13:34:15.999Z</time></trkpt><trkpt lat="46.274476364770784" lon="13.108390554838165"><ele>193.0</ele><time>2026-05-03T13:34:16.999Z</time></trkpt><trkpt lat="46.27456808969081" lon="13.10840948280606"><ele>193.0</ele><time>2026-05-03T13:34:17.999Z</time></trkpt><trkpt lat="46.274654146168466" lon="13.108425191248212"><ele>192.99999999999997</ele><time>2026-05-03T13:34:18.999Z</time></trkpt><trkpt lat="46.274743120101164" lon="13.108439272744992"><ele>193.0</ele><time>2026-05-03T13:34:19.999Z</time></trkpt><trkpt lat="46.27482707280273" lon="13.108450781209635"><ele>193.0</ele><time>2026-05-03T13:34:20.999Z</time></trkpt><trkpt lat="46.27490985647774" lon="13.108463702375722"><ele>193.0</ele><time>2026-05-03T13:34:21.999Z</time></trkpt><trkpt lat="46.2749927259269" lon="13.10848373817939"><ele>192.99999999999997</ele><time>2026-05-03T13:34:22.999Z</time></trkpt><trkpt lat="46.275080050629924" lon="13.108497116945948"><ele>193.0</ele><time>2026-05-03T13:34:23.999Z</time></trkpt><trkpt lat="46.27518242234873" lon="13.108512322585087"><ele>193.2</ele><time>2026-05-03T13:34:24.999Z</time></trkpt><trkpt lat="46.275283527208934" lon="13.108530035087249"><ele>193.4</ele><time>2026-05-03T13:34:25.999Z</time></trkpt><trkpt lat="46.27538416966281" lon="13.108552034340907"><ele>193.6</ele><time>2026-05-03T13:34:26.999Z</time></trkpt><trkpt lat="46.27548035892374" lon="13.108569915613897"><ele>193.79999999999998</ele><time>2026-05-03T13:34:27.999Z</time></trkpt><trkpt lat="46.275578132059394" lon="13.108586513468119"><ele>194.0</ele><time>2026-05-03T13:34:28.999Z</time></trkpt><trkpt lat="46.27567517186494" lon="13.108605190996796"><ele>194.33333333333334</ele><time>2026-05-03T13:34:29.999Z</time></trkpt><trkpt lat="46.27576686313323" lon="13.10862467984334"><ele>194.66666666666669</ele><time>2026-05-03T13:34:30.999Z</time></trkpt><trkpt lat="46.275849986153354" lon="13.108640464209408"><ele>195.0</ele><time>2026-05-03T13:34:31.999Z</time></trkpt><trkpt lat="46.27593283774498" lon="13.108655677911615"><ele>195.33333333333331</ele><time>2026-05-03T13:34:32.999Z</time></trkpt><trkpt lat="46.276013709312025" lon="13.108670334550409"><ele>195.66666666666666</ele><time>2026-05-03T13:34:33.999Z</time></trkpt><trkpt lat="46.27609317775543" lon="13.108684628428174"><ele>196.0</ele><time>2026-05-03T13:34:34.999Z</time></trkpt><trkpt lat="46.276170737392974" lon="13.108696662861188"><ele>195.99999999999997</ele><time>2026-05-03T13:34:35.999Z</time></trkpt><trkpt lat="46.2762522325719" lon="13.108709200186768"><ele>196.0</ele><time>2026-05-03T13:34:36.999Z</time></trkpt><trkpt lat="46.27633736979511" lon="13.108724931505352"><ele>196.0</ele><time>2026-05-03T13:34:37.999Z</time></trkpt><trkpt lat="46.27642674028415" lon="13.10874191354288"><ele>196.0</ele><time>2026-05-03T13:34:38.999Z</time></trkpt><trkpt lat="46.27651538258595" lon="13.108758446119579"><ele>195.99999999999997</ele><time>2026-05-03T13:34:39.999Z</time></trkpt><trkpt lat="46.276613634390614" lon="13.10877707995153"><ele>196.0</ele><time>2026-05-03T13:34:40.999Z</time></trkpt><trkpt lat="46.2767149740285" lon="13.10879632396631"><ele>195.60000000000002</ele><time>2026-05-03T13:34:41.999Z</time></trkpt><trkpt lat="46.276818516159054" lon="13.108812518379729"><ele>195.2</ele><time>2026-05-03T13:34:42.999Z</time></trkpt><trkpt lat="46.27692515756747" lon="13.108833789706805"><ele>194.8</ele><time>2026-05-03T13:34:43.999Z</time></trkpt><trkpt lat="46.27703641389866" lon="13.108854104550062"><ele>194.39999999999998</ele><time>2026-05-03T13:34:44.999Z</time></trkpt><trkpt lat="46.27715434966572" lon="13.108874409798362"><ele>194.0</ele><time>2026-05-03T13:34:45.999Z</time></trkpt><trkpt lat="46.277284380845124" lon="13.108898106148178"><ele>194.0</ele><time>2026-05-03T13:34:46.999Z</time></trkpt><trkpt lat="46.277408475007654" lon="13.108922731734365"><ele>194.0</ele><time>2026-05-03T13:34:47.999Z</time></trkpt><trkpt lat="46.27752762925307" lon="13.108944107832402"><ele>194.0</ele><time>2026-05-03T13:34:48.999Z</time></trkpt><trkpt lat="46.277647316858335" lon="13.108964079721812"><ele>194.0</ele><time>2026-05-03T13:34:49.999Z</time></trkpt><trkpt lat="46.27776549265422" lon="13.108985473691892"><ele>194.0</ele><time>2026-05-03T13:34:50.999Z</time></trkpt><trkpt lat="46.27788325428465" lon="13.109005932106928"><ele>194.0</ele><time>2026-05-03T13:34:51.999Z</time></trkpt><trkpt lat="46.27799730824426" lon="13.109026116896375"><ele>194.0</ele><time>2026-05-03T13:34:52.999Z</time></trkpt><trkpt lat="46.27811196236771" lon="13.10904789426758"><ele>194.0</ele><time>2026-05-03T13:34:53.999Z</time></trkpt><trkpt lat="46.27821549824622" lon="13.109064319630003"><ele>194.25</ele><time>2026-05-03T13:34:54.999Z</time></trkpt><trkpt lat="46.278323583917846" lon="13.109081912969327"><ele>194.5</ele><time>2026-05-03T13:34:55.999Z</time></trkpt><trkpt lat="46.27843439000799" lon="13.109097649566253"><ele>194.75</ele><time>2026-05-03T13:34:56.999Z</time></trkpt><trkpt lat="46.2785535119907" lon="13.109109950612412"><ele>195.0</ele><time>2026-05-03T13:34:57.999Z</time></trkpt><trkpt lat="46.27867370736204" lon="13.109124815049041"><ele>195.0</ele><time>2026-05-03T13:34:58.999Z</time></trkpt><trkpt lat="46.27878060726182" lon="13.109141331663627"><ele>195.0</ele><time>2026-05-03T13:34:59.999Z</time></trkpt><trkpt lat="46.27888542712213" lon="13.109160844283224"><ele>195.0</ele><time>2026-05-03T13:35:00.999Z</time></trkpt><trkpt lat="46.278981149319605" lon="13.1091752289268"><ele>195.0</ele><time>2026-05-03T13:35:01.999Z</time></trkpt><trkpt lat="46.27907504821551" lon="13.1091881532385"><ele>195.0</ele><time>2026-05-03T13:35:02.999Z</time></trkpt><trkpt lat="46.279167980622745" lon="13.109202667249338"><ele>195.33333333333334</ele><time>2026-05-03T13:35:03.999Z</time></trkpt><trkpt lat="46.27925896162423" lon="13.109217401252321"><ele>195.66666666666669</ele><time>2026-05-03T13:35:04.999Z</time></trkpt><trkpt lat="46.27934795523953" lon="13.109228938571757"><ele>196.0</ele><time>2026-05-03T13:35:05.999Z</time></trkpt><trkpt lat="46.27942480263014" lon="13.109236306706059"><ele>196.33333333333334</ele><time>2026-05-03T13:35:06.999Z</time></trkpt><trkpt lat="46.27951047246382" lon="13.109238904079119"><ele>196.66666666666669</ele><time>2026-05-03T13:35:07.999Z</time></trkpt><trkpt lat="46.27958728657551" lon="13.10924708147028"><ele>197.0</ele><time>2026-05-03T13:35:08.999Z</time></trkpt><trkpt lat="46.27966603822417" lon="13.109255938646616"><ele>197.00000000000003</ele><time>2026-05-03T13:35:09.999Z</time></trkpt><trkpt lat="46.279742144706105" lon="13.109261698434429"><ele>197.0</ele><time>2026-05-03T13:35:10.999Z</time></trkpt><trkpt lat="46.27981522413893" lon="13.10927141763901"><ele>197.0</ele><time>2026-05-03T13:35:11.999Z</time></trkpt><trkpt lat="46.27988622718566" lon="13.109285094508722"><ele>197.0</ele><time>2026-05-03T13:35:12.999Z</time></trkpt><trkpt lat="46.27995292383519" lon="13.109299287428332"><ele>197.00000000000003</ele><time>2026-05-03T13:35:13.999Z</time></trkpt><trkpt lat="46.28007332825434" lon="13.109325964740705"><ele>197.0</ele><time>2026-05-03T13:35:15.999Z</time></trkpt><trkpt lat="46.28015264293662" lon="13.109343323013466"><ele>197.00000000000003</ele><time>2026-05-03T13:35:17.999Z</time></trkpt><trkpt lat="46.28022890305687" lon="13.10935628075963"><ele>197.0</ele><time>2026-05-03T13:35:20.999Z</time></trkpt><trkpt lat="46.28028480155585" lon="13.109411795203703"><ele>197.0</ele><time>2026-05-03T13:35:36.999Z</time></trkpt><trkpt lat="46.280363404880475" lon="13.10942100802644"><ele>197.0</ele><time>2026-05-03T13:35:38.999Z</time></trkpt><trkpt lat="46.28045692883992" lon="13.10943890507663"><ele>197.00000000000003</ele><time>2026-05-03T13:35:40.999Z</time></trkpt><trkpt lat="46.28056228604738" lon="13.109454430231285"><ele>197.0</ele><time>2026-05-03T13:35:42.999Z</time></trkpt><trkpt lat="46.28063516283288" lon="13.109467211263729"><ele>197.0</ele><time>2026-05-03T13:35:43.999Z</time></trkpt><trkpt lat="46.28071174850933" lon="13.109482363062535"><ele>197.0</ele><time>2026-05-03T13:35:44.999Z</time></trkpt><trkpt lat="46.280796578853455" lon="13.109499693980252"><ele>197.0</ele><time>2026-05-03T13:35:45.999Z</time></trkpt><trkpt lat="46.28089120496886" lon="13.109519031164432"><ele>197.0</ele><time>2026-05-03T13:35:46.999Z</time></trkpt><trkpt lat="46.28099306750827" lon="13.109537222258313"><ele>197.0</ele><time>2026-05-03T13:35:47.999Z</time></trkpt><trkpt lat="46.28109534348987" lon="13.109554779426938"><ele>197.0</ele><time>2026-05-03T13:35:48.999Z</time></trkpt><trkpt lat="46.28119867543327" lon="13.109573744486479"><ele>197.0</ele><time>2026-05-03T13:35:49.999Z</time></trkpt><trkpt lat="46.28130698615722" lon="13.109590951618676"><ele>197.0</ele><time>2026-05-03T13:35:50.999Z</time></trkpt><trkpt lat="46.28142138671756" lon="13.109611831646047"><ele>197.0</ele><time>2026-05-03T13:35:51.999Z</time></trkpt><trkpt lat="46.281540141862685" lon="13.109634643991342"><ele>197.0</ele><time>2026-05-03T13:35:52.999Z</time></trkpt><trkpt lat="46.2816597491524" lon="13.109655692965632"><ele>197.0</ele><time>2026-05-03T13:35:53.999Z</time></trkpt><trkpt lat="46.281777763122825" lon="13.109678305093862"><ele>197.0</ele><time>2026-05-03T13:35:54.999Z</time></trkpt><trkpt lat="46.28190174320634" lon="13.109701662209684"><ele>197.0</ele><time>2026-05-03T13:35:55.999Z</time></trkpt><trkpt lat="46.28202693323078" lon="13.10972635775208"><ele>197.0</ele><time>2026-05-03T13:35:56.999Z</time></trkpt><trkpt lat="46.28216071664579" lon="13.109752945320569"><ele>197.0</ele><time>2026-05-03T13:35:57.999Z</time></trkpt><trkpt lat="46.282301809925265" lon="13.109775994765416"><ele>197.0</ele><time>2026-05-03T13:35:58.999Z</time></trkpt><trkpt lat="46.28244054481906" lon="13.109793522242057"><ele>197.0</ele><time>2026-05-03T13:35:59.999Z</time></trkpt><trkpt lat="46.28257390884629" lon="13.109812989153637"><ele>197.0</ele><time>2026-05-03T13:36:00.999Z</time></trkpt><trkpt lat="46.282706156771035" lon="13.109833937088927"><ele>197.0</ele><time>2026-05-03T13:36:01.999Z</time></trkpt><trkpt lat="46.28284066281759" lon="13.10985802910092"><ele>197.0</ele><time>2026-05-03T13:36:02.999Z</time></trkpt><trkpt lat="46.28296978839693" lon="13.1098840009027"><ele>197.0</ele><time>2026-05-03T13:36:03.999Z</time></trkpt><trkpt lat="46.28309771633736" lon="13.109908476928352"><ele>197.0</ele><time>2026-05-03T13:36:04.999Z</time></trkpt><trkpt lat="46.283225743275054" lon="13.109930678844204"><ele>197.0</ele><time>2026-05-03T13:36:05.999Z</time></trkpt><trkpt lat="46.283354154468356" lon="13.109953412325451"><ele>197.0</ele><time>2026-05-03T13:36:06.999Z</time></trkpt><trkpt lat="46.28348220572866" lon="13.1099735352096"><ele>197.0</ele><time>2026-05-03T13:36:07.999Z</time></trkpt><trkpt lat="46.28360661923628" lon="13.109992044027337"><ele>197.0</ele><time>2026-05-03T13:36:08.999Z</time></trkpt><trkpt lat="46.28372951987615" lon="13.110019809247365"><ele>197.0</ele><time>2026-05-03T13:36:09.999Z</time></trkpt><trkpt lat="46.28385080508091" lon="13.110052549475999"><ele>197.0</ele><time>2026-05-03T13:36:10.999Z</time></trkpt><trkpt lat="46.283972133878585" lon="13.110093727598995"><ele>197.0</ele><time>2026-05-03T13:36:11.999Z</time></trkpt><trkpt lat="46.28409580489535" lon="13.11014618809814"><ele>197.0</ele><time>2026-05-03T13:36:12.999Z</time></trkpt><trkpt lat="46.28422309514919" lon="13.110215251359183"><ele>197.5</ele><time>2026-05-03T13:36:13.999Z</time></trkpt><trkpt lat="46.28435459518618" lon="13.110298591017747"><ele>198.0</ele><time>2026-05-03T13:36:14.999Z</time></trkpt><trkpt lat="46.284478022240826" lon="13.110392217199317"><ele>198.5</ele><time>2026-05-03T13:36:15.999Z</time></trkpt><trkpt lat="46.28459777315702" lon="13.110485308526723"><ele>199.0</ele><time>2026-05-03T13:36:16.999Z</time></trkpt><trkpt lat="46.2847142435657" lon="13.110571636707332"><ele>198.5</ele><time>2026-05-03T13:36:17.999Z</time></trkpt><trkpt lat="46.28482782378169" lon="13.110652307176107"><ele>198.0</ele><time>2026-05-03T13:36:18.999Z</time></trkpt><trkpt lat="46.284940964001784" lon="13.110736358359892"><ele>197.5</ele><time>2026-05-03T13:36:19.999Z</time></trkpt><trkpt lat="46.2850526708928" lon="13.110817563196292"><ele>197.0</ele><time>2026-05-03T13:36:20.999Z</time></trkpt><trkpt lat="46.28516535472588" lon="13.110901379035127"><ele>197.0</ele><time>2026-05-03T13:36:21.999Z</time></trkpt><trkpt lat="46.28527818448473" lon="13.110989990654936"><ele>197.0</ele><time>2026-05-03T13:36:22.999Z</time></trkpt><trkpt lat="46.28539304821074" lon="13.111074830786455"><ele>197.0</ele><time>2026-05-03T13:36:23.999Z</time></trkpt><trkpt lat="46.285507319670835" lon="13.11115732596096"><ele>197.0</ele><time>2026-05-03T13:36:24.999Z</time></trkpt><trkpt lat="46.28561310390311" lon="13.111238548199989"><ele>197.6</ele><time>2026-05-03T13:36:25.999Z</time></trkpt><trkpt lat="46.28571334937663" lon="13.111314772860608"><ele>198.2</ele><time>2026-05-03T13:36:26.999Z</time></trkpt><trkpt lat="46.28581244035911" lon="13.11138818903285"><ele>198.8</ele><time>2026-05-03T13:36:27.999Z</time></trkpt><trkpt lat="46.28591297503802" lon="13.111462201667122"><ele>199.4</ele><time>2026-05-03T13:36:28.999Z</time></trkpt><trkpt lat="46.286010242021135" lon="13.11153161035925"><ele>200.0</ele><time>2026-05-03T13:36:29.999Z</time></trkpt><trkpt lat="46.28610453912808" lon="13.111599610595169"><ele>200.0</ele><time>2026-05-03T13:36:30.999Z</time></trkpt><trkpt lat="46.28620038205405" lon="13.111672654826442"><ele>200.0</ele><time>2026-05-03T13:36:31.999Z</time></trkpt><trkpt lat="46.286296428438945" lon="13.111737653000704"><ele>200.0</ele><time>2026-05-03T13:36:32.999Z</time></trkpt><trkpt lat="46.286398761727185" lon="13.11181312920712"><ele>200.0</ele><time>2026-05-03T13:36:33.999Z</time></trkpt><trkpt lat="46.286507880189696" lon="13.111894299563833"><ele>200.0</ele><time>2026-05-03T13:36:34.999Z</time></trkpt><trkpt lat="46.286621256439176" lon="13.111977557043312"><ele>200.0</ele><time>2026-05-03T13:36:35.999Z</time></trkpt><trkpt lat="46.28674741714718" lon="13.112063403591517"><ele>200.0</ele><time>2026-05-03T13:36:36.999Z</time></trkpt><trkpt lat="46.286876718335364" lon="13.112153892106564"><ele>200.0</ele><time>2026-05-03T13:36:37.999Z</time></trkpt><trkpt lat="46.287014501476605" lon="13.112251997796923"><ele>200.0</ele><time>2026-05-03T13:36:38.999Z</time></trkpt><trkpt lat="46.28715362408461" lon="13.112354391177046"><ele>200.0</ele><time>2026-05-03T13:36:39.999Z</time></trkpt><trkpt lat="46.287297644748456" lon="13.112462441295536"><ele>200.0</ele><time>2026-05-03T13:36:40.999Z</time></trkpt><trkpt lat="46.287443067618824" lon="13.112570843739853"><ele>200.33333333333334</ele><time>2026-05-03T13:36:41.999Z</time></trkpt><trkpt lat="46.287586905345414" lon="13.11267406636533"><ele>200.66666666666669</ele><time>2026-05-03T13:36:42.999Z</time></trkpt><trkpt lat="46.28772917400107" lon="13.112778628081424"><ele>201.0</ele><time>2026-05-03T13:36:43.999Z</time></trkpt><trkpt lat="46.28787013614665" lon="13.112883895046009"><ele>201.0</ele><time>2026-05-03T13:36:44.999Z</time></trkpt><trkpt lat="46.2880151164966" lon="13.11298851611535"><ele>201.0</ele><time>2026-05-03T13:36:45.999Z</time></trkpt><trkpt lat="46.288156076173266" lon="13.113090652382544"><ele>201.0</ele><time>2026-05-03T13:36:46.999Z</time></trkpt><trkpt lat="46.28829668974697" lon="13.113194902924574"><ele>201.33333333333331</ele><time>2026-05-03T13:36:47.999Z</time></trkpt><trkpt lat="46.28843561583661" lon="13.113297950089404"><ele>201.66666666666666</ele><time>2026-05-03T13:36:48.999Z</time></trkpt><trkpt lat="46.288579329534016" lon="13.113402863082351"><ele>202.0</ele><time>2026-05-03T13:36:49.999Z</time></trkpt><trkpt lat="46.288720370533" lon="13.113508928493372"><ele>202.0</ele><time>2026-05-03T13:36:50.999Z</time></trkpt><trkpt lat="46.28886430106615" lon="13.113612145113176"><ele>202.0</ele><time>2026-05-03T13:36:51.999Z</time></trkpt><trkpt lat="46.289008313996284" lon="13.113717599724886"><ele>202.0</ele><time>2026-05-03T13:36:52.999Z</time></trkpt><trkpt lat="46.28915303076941" lon="13.113825628094558"><ele>201.33333333333331</ele><time>2026-05-03T13:36:53.999Z</time></trkpt><trkpt lat="46.28930004729887" lon="13.113930220166969"><ele>200.66666666666669</ele><time>2026-05-03T13:36:54.999Z</time></trkpt><trkpt lat="46.289447301466886" lon="13.114037509631073"><ele>200.0</ele><time>2026-05-03T13:36:55.999Z</time></trkpt><trkpt lat="46.28959353291965" lon="13.114145594901714"><ele>200.0</ele><time>2026-05-03T13:36:56.999Z</time></trkpt><trkpt lat="46.28973906489624" lon="13.11425349938043"><ele>200.0</ele><time>2026-05-03T13:36:57.999Z</time></trkpt><trkpt lat="46.28988223022205" lon="13.114353929649141"><ele>200.0</ele><time>2026-05-03T13:36:58.999Z</time></trkpt><trkpt lat="46.29002464500557" lon="13.11444866070051"><ele>201.0</ele><time>2026-05-03T13:36:59.999Z</time></trkpt><trkpt lat="46.290169174618335" lon="13.114527874971678"><ele>202.0</ele><time>2026-05-03T13:37:00.999Z</time></trkpt><trkpt lat="46.2903129480079" lon="13.114601454561038"><ele>203.0</ele><time>2026-05-03T13:37:01.999Z</time></trkpt><trkpt lat="46.29045904130955" lon="13.11466218889606"><ele>202.33333333333334</ele><time>2026-05-03T13:37:02.999Z</time></trkpt><trkpt lat="46.290606562519834" lon="13.11470865067124"><ele>201.66666666666669</ele><time>2026-05-03T13:37:03.999Z</time></trkpt><trkpt lat="46.29075826325942" lon="13.114740130029947"><ele>201.0</ele><time>2026-05-03T13:37:04.999Z</time></trkpt><trkpt lat="46.29090559749698" lon="13.114767480455388"><ele>201.0</ele><time>2026-05-03T13:37:05.999Z</time></trkpt><trkpt lat="46.2910534743877" lon="13.114798335617346"><ele>201.0</ele><time>2026-05-03T13:37:06.999Z</time></trkpt><trkpt lat="46.29120064388111" lon="13.114835479749317"><ele>201.0</ele><time>2026-05-03T13:37:07.999Z</time></trkpt><trkpt lat="46.291349606873595" lon="13.114874843387629"><ele>201.5</ele><time>2026-05-03T13:37:08.999Z</time></trkpt><trkpt lat="46.29149459222334" lon="13.114913705940996"><ele>202.0</ele><time>2026-05-03T13:37:09.999Z</time></trkpt><trkpt lat="46.29164008448623" lon="13.114949217932764"><ele>202.5</ele><time>2026-05-03T13:37:10.999Z</time></trkpt><trkpt lat="46.29178350419596" lon="13.114987498659632"><ele>203.0</ele><time>2026-05-03T13:37:11.999Z</time></trkpt><trkpt lat="46.29192456422101" lon="13.115018210725227"><ele>203.0</ele><time>2026-05-03T13:37:12.999Z</time></trkpt><trkpt lat="46.29206465605237" lon="13.1150493611927"><ele>203.0</ele><time>2026-05-03T13:37:13.999Z</time></trkpt><trkpt lat="46.29220598066112" lon="13.115083699729938"><ele>203.0</ele><time>2026-05-03T13:37:14.999Z</time></trkpt><trkpt lat="46.292344923466885" lon="13.115119304139009"><ele>203.0</ele><time>2026-05-03T13:37:15.999Z</time></trkpt><trkpt lat="46.29248185275499" lon="13.11515303474331"><ele>203.25</ele><time>2026-05-03T13:37:16.999Z</time></trkpt><trkpt lat="46.29261845287073" lon="13.11518855015043"><ele>203.5</ele><time>2026-05-03T13:37:17.999Z</time></trkpt><trkpt lat="46.29275383415335" lon="13.115220872609573"><ele>203.75</ele><time>2026-05-03T13:37:18.999Z</time></trkpt><trkpt lat="46.29288860874685" lon="13.1152557305255"><ele>204.0</ele><time>2026-05-03T13:37:19.999Z</time></trkpt><trkpt lat="46.29302186579933" lon="13.115292156731936"><ele>204.0</ele><time>2026-05-03T13:37:20.999Z</time></trkpt><trkpt lat="46.29315572166657" lon="13.115320048680966"><ele>204.0</ele><time>2026-05-03T13:37:21.999Z</time></trkpt><trkpt lat="46.293292607358026" lon="13.11534566206104"><ele>204.0</ele><time>2026-05-03T13:37:22.999Z</time></trkpt><trkpt lat="46.29342869042771" lon="13.115369933481585"><ele>204.0</ele><time>2026-05-03T13:37:23.999Z</time></trkpt><trkpt lat="46.293565176461236" lon="13.115387802636834"><ele>204.0</ele><time>2026-05-03T13:37:24.999Z</time></trkpt><trkpt lat="46.29369972695621" lon="13.115395581487912"><ele>204.0</ele><time>2026-05-03T13:37:25.999Z</time></trkpt><trkpt lat="46.2938340705003" lon="13.115399474338744"><ele>204.0</ele><time>2026-05-03T13:37:26.999Z</time></trkpt><trkpt lat="46.29397178885638" lon="13.115401000121947"><ele>204.0</ele><time>2026-05-03T13:37:27.999Z</time></trkpt><trkpt lat="46.29410907962205" lon="13.115392433289223"><ele>203.75</ele><time>2026-05-03T13:37:28.999Z</time></trkpt><trkpt lat="46.29424636590314" lon="13.115385036414128"><ele>203.5</ele><time>2026-05-03T13:37:29.999Z</time></trkpt><trkpt lat="46.29438534429741" lon="13.1153793597434"><ele>203.25</ele><time>2026-05-03T13:37:30.999Z</time></trkpt><trkpt lat="46.29452443270256" lon="13.115380621769209"><ele>203.0</ele><time>2026-05-03T13:37:31.999Z</time></trkpt><trkpt lat="46.29466134258461" lon="13.115383347886427"><ele>203.5</ele><time>2026-05-03T13:37:32.999Z</time></trkpt><trkpt lat="46.29479857461648" lon="13.115382294891777"><ele>204.0</ele><time>2026-05-03T13:37:33.999Z</time></trkpt><trkpt lat="46.29493506822594" lon="13.115378244901775"><ele>204.5</ele><time>2026-05-03T13:37:34.999Z</time></trkpt><trkpt lat="46.29507044506466" lon="13.11537184442017"><ele>205.0</ele><time>2026-05-03T13:37:35.999Z</time></trkpt><trkpt lat="46.29520496604002" lon="13.11537052378898"><ele>205.0</ele><time>2026-05-03T13:37:36.999Z</time></trkpt><trkpt lat="46.295340110507695" lon="13.115371982079868"><ele>205.0</ele><time>2026-05-03T13:37:37.999Z</time></trkpt><trkpt lat="46.2954786130845" lon="13.115370207388363"><ele>205.0</ele><time>2026-05-03T13:37:38.999Z</time></trkpt><trkpt lat="46.2956189346702" lon="13.115364326222116"><ele>205.0</ele><time>2026-05-03T13:37:39.999Z</time></trkpt><trkpt lat="46.29576255314848" lon="13.115361477241738"><ele>204.75</ele><time>2026-05-03T13:37:40.999Z</time></trkpt><trkpt lat="46.29590911045435" lon="13.115368096514079"><ele>204.5</ele><time>2026-05-03T13:37:41.999Z</time></trkpt><trkpt lat="46.29605647546332" lon="13.115390218870187"><ele>204.25</ele><time>2026-05-03T13:37:42.999Z</time></trkpt><trkpt lat="46.296204447866614" lon="13.115429493307358"><ele>204.0</ele><time>2026-05-03T13:37:43.999Z</time></trkpt><trkpt lat="46.29635303941733" lon="13.115480209114716"><ele>204.66666666666669</ele><time>2026-05-03T13:37:44.999Z</time></trkpt><trkpt lat="46.296499868022515" lon="13.11554142126913"><ele>205.33333333333334</ele><time>2026-05-03T13:37:45.999Z</time></trkpt><trkpt lat="46.2966472339779" lon="13.115616261060213"><ele>206.0</ele><time>2026-05-03T13:37:46.999Z</time></trkpt><trkpt lat="46.296790012817034" lon="13.115705405610601"><ele>206.0</ele><time>2026-05-03T13:37:47.999Z</time></trkpt><trkpt lat="46.29692955216724" lon="13.115803432270583"><ele>206.0</ele><time>2026-05-03T13:37:48.999Z</time></trkpt><trkpt lat="46.2970670873327" lon="13.115902816035955"><ele>206.0</ele><time>2026-05-03T13:37:49.999Z</time></trkpt><trkpt lat="46.29720602933839" lon="13.11601323724737"><ele>207.33333333333334</ele><time>2026-05-03T13:37:50.999Z</time></trkpt><trkpt lat="46.297337716195884" lon="13.116127477593787"><ele>208.66666666666669</ele><time>2026-05-03T13:37:51.999Z</time></trkpt><trkpt lat="46.297471312830304" lon="13.116241893944707"><ele>210.0</ele><time>2026-05-03T13:37:52.999Z</time></trkpt><trkpt lat="46.2976067404051" lon="13.116350404597396"><ele>210.0</ele><time>2026-05-03T13:37:53.999Z</time></trkpt><trkpt lat="46.29774254391139" lon="13.116454773472363"><ele>210.0</ele><time>2026-05-03T13:37:54.999Z</time></trkpt><trkpt lat="46.2978784376705" lon="13.116558587538913"><ele>210.0</ele><time>2026-05-03T13:37:55.999Z</time></trkpt><trkpt lat="46.29801523029236" lon="13.116663421032204"><ele>209.0</ele><time>2026-05-03T13:37:56.999Z</time></trkpt><trkpt lat="46.298149636832214" lon="13.116769462595354"><ele>208.0</ele><time>2026-05-03T13:37:57.999Z</time></trkpt><trkpt lat="46.298281779609276" lon="13.116877473986088"><ele>207.0</ele><time>2026-05-03T13:37:58.999Z</time></trkpt><trkpt lat="46.29842153922658" lon="13.116987106007658"><ele>207.0</ele><time>2026-05-03T13:37:59.999Z</time></trkpt><trkpt lat="46.29855959111127" lon="13.11709549910054"><ele>207.0</ele><time>2026-05-03T13:38:00.999Z</time></trkpt><trkpt lat="46.29869900235384" lon="13.117201605763874"><ele>207.0</ele><time>2026-05-03T13:38:01.999Z</time></trkpt><trkpt lat="46.298839744181684" lon="13.117311726939748"><ele>207.66666666666669</ele><time>2026-05-03T13:38:02.999Z</time></trkpt><trkpt lat="46.29897963997505" lon="13.117423366837999"><ele>208.33333333333334</ele><time>2026-05-03T13:38:03.999Z</time></trkpt><trkpt lat="46.29911928744499" lon="13.117533262491198"><ele>209.0</ele><time>2026-05-03T13:38:04.999Z</time></trkpt><trkpt lat="46.299254838564956" lon="13.117643423756501"><ele>209.0</ele><time>2026-05-03T13:38:05.999Z</time></trkpt><trkpt lat="46.29939179468181" lon="13.117752913304663"><ele>209.0</ele><time>2026-05-03T13:38:06.999Z</time></trkpt><trkpt lat="46.29952863816763" lon="13.11786153532923"><ele>209.0</ele><time>2026-05-03T13:38:07.999Z</time></trkpt><trkpt lat="46.2996689775105" lon="13.117967452951902"><ele>209.0</ele><time>2026-05-03T13:38:08.999Z</time></trkpt><trkpt lat="46.299809439178304" lon="13.118077611100203"><ele>209.0</ele><time>2026-05-03T13:38:09.999Z</time></trkpt><trkpt lat="46.29995087790163" lon="13.11819194189751"><ele>209.0</ele><time>2026-05-03T13:38:10.999Z</time></trkpt><trkpt lat="46.30009151641589" lon="13.118301622042205"><ele>209.0</ele><time>2026-05-03T13:38:11.999Z</time></trkpt><trkpt lat="46.3002348187158" lon="13.118415490544788"><ele>209.0</ele><time>2026-05-03T13:38:12.999Z</time></trkpt><trkpt lat="46.30037669673343" lon="13.11852995484474"><ele>209.0</ele><time>2026-05-03T13:38:13.999Z</time></trkpt><trkpt lat="46.30052090482024" lon="13.118645372926961"><ele>209.66666666666669</ele><time>2026-05-03T13:38:14.999Z</time></trkpt><trkpt lat="46.30066463682335" lon="13.11875762059403"><ele>210.33333333333331</ele><time>2026-05-03T13:38:15.999Z</time></trkpt><trkpt lat="46.30080618106017" lon="13.118867813517024"><ele>211.0</ele><time>2026-05-03T13:38:16.999Z</time></trkpt><trkpt lat="46.30094626700396" lon="13.118981330451023"><ele>210.66666666666666</ele><time>2026-05-03T13:38:17.999Z</time></trkpt><trkpt lat="46.30108782070445" lon="13.11909565900206"><ele>210.33333333333331</ele><time>2026-05-03T13:38:18.999Z</time></trkpt><trkpt lat="46.301227995574614" lon="13.119208788765514"><ele>210.0</ele><time>2026-05-03T13:38:19.999Z</time></trkpt><trkpt lat="46.301368180838445" lon="13.119320839012062"><ele>210.0</ele><time>2026-05-03T13:38:20.999Z</time></trkpt><trkpt lat="46.30150351471501" lon="13.119433727777004"><ele>210.0</ele><time>2026-05-03T13:38:21.999Z</time></trkpt><trkpt lat="46.30164283743223" lon="13.119545474566205"><ele>210.0</ele><time>2026-05-03T13:38:22.999Z</time></trkpt><trkpt lat="46.30178368717788" lon="13.119657726489525"><ele>210.0</ele><time>2026-05-03T13:38:23.999Z</time></trkpt><trkpt lat="46.30192486827335" lon="13.11976939660781"><ele>210.0</ele><time>2026-05-03T13:38:24.999Z</time></trkpt><trkpt lat="46.30206545077191" lon="13.119885535581014"><ele>210.0</ele><time>2026-05-03T13:38:25.999Z</time></trkpt><trkpt lat="46.30220794221836" lon="13.119995822923643"><ele>211.33333333333331</ele><time>2026-05-03T13:38:26.999Z</time></trkpt><trkpt lat="46.30235135666892" lon="13.120103324088763"><ele>212.66666666666666</ele><time>2026-05-03T13:38:27.999Z</time></trkpt><trkpt lat="46.30249001935119" lon="13.120216642083014"><ele>214.0</ele><time>2026-05-03T13:38:28.999Z</time></trkpt><trkpt lat="46.30262667759269" lon="13.12033398387438"><ele>214.0</ele><time>2026-05-03T13:38:29.999Z</time></trkpt><trkpt lat="46.302759555701456" lon="13.120457337852498"><ele>214.0</ele><time>2026-05-03T13:38:30.999Z</time></trkpt><trkpt lat="46.302887324618744" lon="13.120579153201177"><ele>214.0</ele><time>2026-05-03T13:38:31.999Z</time></trkpt><trkpt lat="46.30301105857297" lon="13.120703637883489"><ele>214.0</ele><time>2026-05-03T13:38:32.999Z</time></trkpt><trkpt lat="46.30313346655084" lon="13.120822033986673"><ele>214.0</ele><time>2026-05-03T13:38:33.999Z</time></trkpt><trkpt lat="46.30325063510019" lon="13.12094624683744"><ele>214.0</ele><time>2026-05-03T13:38:34.999Z</time></trkpt><trkpt lat="46.30336568639236" lon="13.12106924031154"><ele>214.0</ele><time>2026-05-03T13:38:35.999Z</time></trkpt><trkpt lat="46.30347854570914" lon="13.121187322007179"><ele>214.0</ele><time>2026-05-03T13:38:36.999Z</time></trkpt><trkpt lat="46.30359563811764" lon="13.121307660631777"><ele>214.0</ele><time>2026-05-03T13:38:37.999Z</time></trkpt><trkpt lat="46.303719368772285" lon="13.12143368284925"><ele>214.0</ele><time>2026-05-03T13:38:38.999Z</time></trkpt><trkpt lat="46.30384498167451" lon="13.121559033980109"><ele>214.0</ele><time>2026-05-03T13:38:39.999Z</time></trkpt><trkpt lat="46.30397410352032" lon="13.121688718941225"><ele>214.33333333333331</ele><time>2026-05-03T13:38:40.999Z</time></trkpt><trkpt lat="46.304102739700355" lon="13.12182483055057"><ele>214.66666666666669</ele><time>2026-05-03T13:38:41.999Z</time></trkpt><trkpt lat="46.30423423843071" lon="13.121957079692077"><ele>215.0</ele><time>2026-05-03T13:38:42.999Z</time></trkpt><trkpt lat="46.304364893861" lon="13.122091648472447"><ele>215.0</ele><time>2026-05-03T13:38:43.999Z</time></trkpt><trkpt lat="46.3044954296971" lon="13.122228411265912"><ele>215.0</ele><time>2026-05-03T13:38:44.999Z</time></trkpt><trkpt lat="46.304627396091625" lon="13.122367990425346"><ele>215.0</ele><time>2026-05-03T13:38:45.999Z</time></trkpt><trkpt lat="46.30475977948745" lon="13.12250702917839"><ele>216.66666666666669</ele><time>2026-05-03T13:38:46.999Z</time></trkpt><trkpt lat="46.30489170951478" lon="13.122655764434706"><ele>218.33333333333331</ele><time>2026-05-03T13:38:47.999Z</time></trkpt><trkpt lat="46.30501754849707" lon="13.12281629452269"><ele>220.0</ele><time>2026-05-03T13:38:48.999Z</time></trkpt><trkpt lat="46.3051365151758" lon="13.122988385445172"><ele>220.0</ele><time>2026-05-03T13:38:49.999Z</time></trkpt><trkpt lat="46.3052526956686" lon="13.123169890159245"><ele>220.0</ele><time>2026-05-03T13:38:50.999Z</time></trkpt><trkpt lat="46.305364436834125" lon="13.123357496564577"><ele>220.0</ele><time>2026-05-03T13:38:51.999Z</time></trkpt><trkpt lat="46.30546694815008" lon="13.123549585482438"><ele>219.33333333333331</ele><time>2026-05-03T13:38:52.999Z</time></trkpt><trkpt lat="46.30556505959726" lon="13.123745678259844"><ele>218.66666666666669</ele><time>2026-05-03T13:38:53.999Z</time></trkpt><trkpt lat="46.30566072115972" lon="13.123943159666178"><ele>218.0</ele><time>2026-05-03T13:38:54.999Z</time></trkpt><trkpt lat="46.30575610817574" lon="13.124134543383116"><ele>221.66666666666669</ele><time>2026-05-03T13:38:55.999Z</time></trkpt><trkpt lat="46.30585304935639" lon="13.124319217615978"><ele>225.33333333333331</ele><time>2026-05-03T13:38:56.999Z</time></trkpt><trkpt lat="46.30594602142185" lon="13.124499119342213"><ele>229.0</ele><time>2026-05-03T13:38:57.999Z</time></trkpt><trkpt lat="46.306037153311046" lon="13.124677385883764"><ele>229.0</ele><time>2026-05-03T13:38:58.999Z</time></trkpt><trkpt lat="46.30612616561988" lon="13.124854940500086"><ele>229.0</ele><time>2026-05-03T13:38:59.999Z</time></trkpt><trkpt lat="46.306213008660684" lon="13.125028267664755"><ele>229.0</ele><time>2026-05-03T13:39:00.999Z</time></trkpt><trkpt lat="46.30630094010801" lon="13.125199043822667"><ele>229.0</ele><time>2026-05-03T13:39:01.999Z</time></trkpt><trkpt lat="46.30638836263077" lon="13.125368605472861"><ele>230.75</ele><time>2026-05-03T13:39:02.999Z</time></trkpt><trkpt lat="46.30647597918313" lon="13.125540523455413"><ele>232.5</ele><time>2026-05-03T13:39:03.999Z</time></trkpt><trkpt lat="46.30656504454246" lon="13.125709133228867"><ele>234.25</ele><time>2026-05-03T13:39:04.999Z</time></trkpt><trkpt lat="46.306653639924676" lon="13.125881297161884"><ele>236.0</ele><time>2026-05-03T13:39:05.999Z</time></trkpt><trkpt lat="46.30674171179835" lon="13.126047944283746"><ele>236.0</ele><time>2026-05-03T13:39:06.999Z</time></trkpt><trkpt lat="46.306831710814194" lon="13.126219913149749"><ele>236.0</ele><time>2026-05-03T13:39:07.999Z</time></trkpt><trkpt lat="46.30692352215056" lon="13.126391526259754"><ele>236.0</ele><time>2026-05-03T13:39:08.999Z</time></trkpt><trkpt lat="46.307013967019735" lon="13.126562893492066"><ele>236.0</ele><time>2026-05-03T13:39:09.999Z</time></trkpt><trkpt lat="46.30710754189754" lon="13.126734230925402"><ele>233.5</ele><time>2026-05-03T13:39:10.999Z</time></trkpt><trkpt lat="46.307200375478914" lon="13.126905536711103"><ele>231.0</ele><time>2026-05-03T13:39:11.999Z</time></trkpt><trkpt lat="46.30729238137423" lon="13.127073494014766"><ele>228.5</ele><time>2026-05-03T13:39:12.999Z</time></trkpt><trkpt lat="46.307389295800334" lon="13.12724027680073"><ele>226.0</ele><time>2026-05-03T13:39:13.999Z</time></trkpt><trkpt lat="46.30749228016835" lon="13.127401519018708"><ele>234.66666666666666</ele><time>2026-05-03T13:39:14.999Z</time></trkpt><trkpt lat="46.30760223251599" lon="13.12755224195209"><ele>243.33333333333331</ele><time>2026-05-03T13:39:15.999Z</time></trkpt><trkpt lat="46.30772040224594" lon="13.127694178750865"><ele>252.0</ele><time>2026-05-03T13:39:16.999Z</time></trkpt><trkpt lat="46.307844354174044" lon="13.127824485744792"><ele>252.0</ele><time>2026-05-03T13:39:17.999Z</time></trkpt><trkpt lat="46.30797227916722" lon="13.127937741426202"><ele>252.0</ele><time>2026-05-03T13:39:18.999Z</time></trkpt><trkpt lat="46.30810416161116" lon="13.128038920269647"><ele>252.0</ele><time>2026-05-03T13:39:19.999Z</time></trkpt><trkpt lat="46.30823789074321" lon="13.128139196284293"><ele>250.33333333333331</ele><time>2026-05-03T13:39:20.999Z</time></trkpt><trkpt lat="46.30837500850985" lon="13.128233462021498"><ele>248.66666666666666</ele><time>2026-05-03T13:39:21.999Z</time></trkpt><trkpt lat="46.30851535208042" lon="13.128311974354247"><ele>247.0</ele><time>2026-05-03T13:39:22.999Z</time></trkpt><trkpt lat="46.30865671319687" lon="13.128376478099389"><ele>247.0</ele><time>2026-05-03T13:39:23.999Z</time></trkpt><trkpt lat="46.308800037218475" lon="13.128433313755611"><ele>247.0</ele><time>2026-05-03T13:39:24.999Z</time></trkpt><trkpt lat="46.308945421469325" lon="13.128468483369529"><ele>247.0</ele><time>2026-05-03T13:39:25.999Z</time></trkpt><trkpt lat="46.309093644709904" lon="13.128501211276285"><ele>247.0</ele><time>2026-05-03T13:39:26.999Z</time></trkpt><trkpt lat="46.309239907568355" lon="13.128524592711994"><ele>241.75</ele><time>2026-05-03T13:39:27.999Z</time></trkpt><trkpt lat="46.309384086573125" lon="13.128537961784495"><ele>236.5</ele><time>2026-05-03T13:39:28.999Z</time></trkpt><trkpt lat="46.309525447695414" lon="13.128536124171609"><ele>231.25</ele><time>2026-05-03T13:39:29.999Z</time></trkpt><trkpt lat="46.309663987418396" lon="13.128537245399155"><ele>226.0</ele><time>2026-05-03T13:39:30.999Z</time></trkpt><trkpt lat="46.309803544817555" lon="13.128542827136355"><ele>224.5</ele><time>2026-05-03T13:39:31.999Z</time></trkpt><trkpt lat="46.309949212729606" lon="13.1285484252943"><ele>223.0</ele><time>2026-05-03T13:39:32.999Z</time></trkpt><trkpt lat="46.31009895776223" lon="13.128555266232521"><ele>221.5</ele><time>2026-05-03T13:39:33.999Z</time></trkpt><trkpt lat="46.31025101578867" lon="13.12856060655653"><ele>220.0</ele><time>2026-05-03T13:39:34.999Z</time></trkpt><trkpt lat="46.310406520606406" lon="13.128565361587425"><ele>220.0</ele><time>2026-05-03T13:39:35.999Z</time></trkpt><trkpt lat="46.310561693401986" lon="13.128568211505963"><ele>220.0</ele><time>2026-05-03T13:39:36.999Z</time></trkpt><trkpt lat="46.31071640276138" lon="13.128573290854582"><ele>220.0</ele><time>2026-05-03T13:39:37.999Z</time></trkpt><trkpt lat="46.310872418277484" lon="13.128580051449635"><ele>220.66666666666666</ele><time>2026-05-03T13:39:38.999Z</time></trkpt><trkpt lat="46.31102688746663" lon="13.12858531896048"><ele>221.33333333333331</ele><time>2026-05-03T13:39:39.999Z</time></trkpt><trkpt lat="46.31117991070882" lon="13.128591508882739"><ele>222.0</ele><time>2026-05-03T13:39:40.999Z</time></trkpt><trkpt lat="46.31133287311596" lon="13.128599074192165"><ele>222.66666666666669</ele><time>2026-05-03T13:39:41.999Z</time></trkpt><trkpt lat="46.31148493711446" lon="13.128603990256742"><ele>223.33333333333334</ele><time>2026-05-03T13:39:42.999Z</time></trkpt><trkpt lat="46.311636177668916" lon="13.12860582530157"><ele>224.0</ele><time>2026-05-03T13:39:43.999Z</time></trkpt><trkpt lat="46.31178646020834" lon="13.128606147417615"><ele>224.0</ele><time>2026-05-03T13:39:44.999Z</time></trkpt><trkpt lat="46.31193645845948" lon="13.128613245356169"><ele>224.0</ele><time>2026-05-03T13:39:45.999Z</time></trkpt><trkpt lat="46.3120863750548" lon="13.128620493150375"><ele>224.0</ele><time>2026-05-03T13:39:46.999Z</time></trkpt><trkpt lat="46.31223603627396" lon="13.128625371471355"><ele>224.0</ele><time>2026-05-03T13:39:47.999Z</time></trkpt><trkpt lat="46.31238711791341" lon="13.128630087568173"><ele>224.0</ele><time>2026-05-03T13:39:48.999Z</time></trkpt><trkpt lat="46.31253749139132" lon="13.12863426573451"><ele>224.0</ele><time>2026-05-03T13:39:49.999Z</time></trkpt><trkpt lat="46.31269007880087" lon="13.128638724183915"><ele>224.0</ele><time>2026-05-03T13:39:50.999Z</time></trkpt><trkpt lat="46.31284163157785" lon="13.128644400969556"><ele>224.0</ele><time>2026-05-03T13:39:51.999Z</time></trkpt><trkpt lat="46.31299367447495" lon="13.12864946641127"><ele>224.0</ele><time>2026-05-03T13:39:52.999Z</time></trkpt><trkpt lat="46.31314535983019" lon="13.128649968876546"><ele>224.0</ele><time>2026-05-03T13:39:53.999Z</time></trkpt><trkpt lat="46.313299632541025" lon="13.128657085362134"><ele>224.0</ele><time>2026-05-03T13:39:54.999Z</time></trkpt><trkpt lat="46.313455479753294" lon="13.128664463093756"><ele>224.0</ele><time>2026-05-03T13:39:55.999Z</time></trkpt><trkpt lat="46.31360898812333" lon="13.128671677823078"><ele>224.0</ele><time>2026-05-03T13:39:56.999Z</time></trkpt><trkpt lat="46.313765041290985" lon="13.128673623756615"><ele>224.0</ele><time>2026-05-03T13:39:57.999Z</time></trkpt><trkpt lat="46.313921272558986" lon="13.128679178773561"><ele>224.0</ele><time>2026-05-03T13:39:58.999Z</time></trkpt><trkpt lat="46.31407506607806" lon="13.128683182017463"><ele>225.33333333333334</ele><time>2026-05-03T13:39:59.999Z</time></trkpt><trkpt lat="46.31422955655943" lon="13.128694303749501"><ele>226.66666666666669</ele><time>2026-05-03T13:40:00.999Z</time></trkpt><trkpt lat="46.31438611184221" lon="13.128702423365393"><ele>228.0</ele><time>2026-05-03T13:40:01.999Z</time></trkpt><trkpt lat="46.31454339015415" lon="13.12871269381057"><ele>228.0</ele><time>2026-05-03T13:40:02.999Z</time></trkpt><trkpt lat="46.314702650187996" lon="13.12872601353286"><ele>228.0</ele><time>2026-05-03T13:40:03.999Z</time></trkpt><trkpt lat="46.31486273700282" lon="13.128757899092985"><ele>228.0</ele><time>2026-05-03T13:40:04.999Z</time></trkpt><trkpt lat="46.31501925530558" lon="13.128788045611918"><ele>227.33333333333331</ele><time>2026-05-03T13:40:06Z</time></trkpt><trkpt lat="46.31518058624188" lon="13.128823468037055"><ele>226.66666666666666</ele><time>2026-05-03T13:40:07Z</time></trkpt><trkpt lat="46.31533790867309" lon="13.128861830268766"><ele>226.0</ele><time>2026-05-03T13:40:08Z</time></trkpt><trkpt lat="46.315495830618275" lon="13.128914147542204"><ele>225.33333333333331</ele><time>2026-05-03T13:40:09Z</time></trkpt><trkpt lat="46.31565446680261" lon="13.128971898579906"><ele>224.66666666666669</ele><time>2026-05-03T13:40:10Z</time></trkpt><trkpt lat="46.315806007272" lon="13.129030869416596"><ele>224.0</ele><time>2026-05-03T13:40:11Z</time></trkpt><trkpt lat="46.315957506702205" lon="13.12909725221503"><ele>224.66666666666669</ele><time>2026-05-03T13:40:12Z</time></trkpt><trkpt lat="46.31610652722556" lon="13.129170278995108"><ele>225.33333333333331</ele><time>2026-05-03T13:40:13Z</time></trkpt><trkpt lat="46.31626098595232" lon="13.129254632369355"><ele>226.0</ele><time>2026-05-03T13:40:14Z</time></trkpt><trkpt lat="46.316410990084826" lon="13.12933471133704"><ele>226.0</ele><time>2026-05-03T13:40:15Z</time></trkpt><trkpt lat="46.31656553635372" lon="13.129418735517122"><ele>226.0</ele><time>2026-05-03T13:40:16Z</time></trkpt><trkpt lat="46.31671600296435" lon="13.129507243096276"><ele>226.0</ele><time>2026-05-03T13:40:17Z</time></trkpt><trkpt lat="46.31686159034794" lon="13.12960283650364"><ele>226.0</ele><time>2026-05-03T13:40:18Z</time></trkpt><trkpt lat="46.31700852469026" lon="13.129704103880876"><ele>226.0</ele><time>2026-05-03T13:40:19Z</time></trkpt><trkpt lat="46.317158091206494" lon="13.129805148703841"><ele>226.0</ele><time>2026-05-03T13:40:20Z</time></trkpt><trkpt lat="46.3173105564472" lon="13.129905405536991"><ele>226.33333333333331</ele><time>2026-05-03T13:40:21Z</time></trkpt><trkpt lat="46.317466850951995" lon="13.130007620226877"><ele>226.66666666666669</ele><time>2026-05-03T13:40:22Z</time></trkpt><trkpt lat="46.31762409408796" lon="13.130109800727046"><ele>227.0</ele><time>2026-05-03T13:40:23Z</time></trkpt><trkpt lat="46.31778244937554" lon="13.130210453600265"><ele>227.0</ele><time>2026-05-03T13:40:24Z</time></trkpt><trkpt lat="46.31794194424696" lon="13.130298597934598"><ele>227.0</ele><time>2026-05-03T13:40:25Z</time></trkpt><trkpt lat="46.31810358083572" lon="13.130368529492326"><ele>227.0</ele><time>2026-05-03T13:40:26Z</time></trkpt><trkpt lat="46.31826261736268" lon="13.130424345743283"><ele>225.33333333333334</ele><time>2026-05-03T13:40:27Z</time></trkpt><trkpt lat="46.318423755273905" lon="13.130462881967594"><ele>223.66666666666669</ele><time>2026-05-03T13:40:28Z</time></trkpt><trkpt lat="46.31858693713192" lon="13.13049232435039"><ele>222.0</ele><time>2026-05-03T13:40:29Z</time></trkpt><trkpt lat="46.318754475299436" lon="13.130512953258059"><ele>222.0</ele><time>2026-05-03T13:40:30Z</time></trkpt><trkpt lat="46.318923637045955" lon="13.130526483468422"><ele>222.0</ele><time>2026-05-03T13:40:31Z</time></trkpt><trkpt lat="46.319090773437644" lon="13.130534375749725"><ele>222.0</ele><time>2026-05-03T13:40:32Z</time></trkpt><trkpt lat="46.31925973360334" lon="13.13053583297719"><ele>222.0</ele><time>2026-05-03T13:40:33Z</time></trkpt><trkpt lat="46.319424536252825" lon="13.130530634388817"><ele>222.0</ele><time>2026-05-03T13:40:34Z</time></trkpt><trkpt lat="46.31958442191285" lon="13.130529202727852"><ele>222.0</ele><time>2026-05-03T13:40:35Z</time></trkpt><trkpt lat="46.31973865975582" lon="13.130530560763713"><ele>221.33333333333331</ele><time>2026-05-03T13:40:36Z</time></trkpt><trkpt lat="46.319894719007785" lon="13.130531572274881"><ele>220.66666666666666</ele><time>2026-05-03T13:40:37Z</time></trkpt><trkpt lat="46.32005168025699" lon="13.130531459195048"><ele>220.0</ele><time>2026-05-03T13:40:38Z</time></trkpt><trkpt lat="46.32021218364917" lon="13.130534292627836"><ele>220.0</ele><time>2026-05-03T13:40:39Z</time></trkpt><trkpt lat="46.32037265075816" lon="13.130545550684811"><ele>220.0</ele><time>2026-05-03T13:40:40Z</time></trkpt><trkpt lat="46.32053729706864" lon="13.130564058905984"><ele>220.0</ele><time>2026-05-03T13:40:41Z</time></trkpt><trkpt lat="46.32070399543177" lon="13.130585593772768"><ele>220.0</ele><time>2026-05-03T13:40:42Z</time></trkpt><trkpt lat="46.320871879894256" lon="13.130609973018856"><ele>220.0</ele><time>2026-05-03T13:40:43Z</time></trkpt><trkpt lat="46.32104181882272" lon="13.130642122932995"><ele>220.0</ele><time>2026-05-03T13:40:44Z</time></trkpt><trkpt lat="46.321210263825414" lon="13.13068110956744"><ele>220.0</ele><time>2026-05-03T13:40:45Z</time></trkpt><trkpt lat="46.321378373569" lon="13.130728594994526"><ele>220.0</ele><time>2026-05-03T13:40:46Z</time></trkpt><trkpt lat="46.321542021366994" lon="13.130775043010997"><ele>220.0</ele><time>2026-05-03T13:40:47Z</time></trkpt><trkpt lat="46.32170301950384" lon="13.130825853847442"><ele>220.66666666666666</ele><time>2026-05-03T13:40:48Z</time></trkpt><trkpt lat="46.32186041680125" lon="13.130872310664095"><ele>221.33333333333331</ele><time>2026-05-03T13:40:49Z</time></trkpt><trkpt lat="46.322014900891226" lon="13.130916534584578"><ele>222.0</ele><time>2026-05-03T13:40:50Z</time></trkpt><trkpt lat="46.32216846117347" lon="13.130959540879562"><ele>221.66666666666669</ele><time>2026-05-03T13:40:51Z</time></trkpt><trkpt lat="46.32232401963336" lon="13.131005307527928"><ele>221.33333333333334</ele><time>2026-05-03T13:40:52Z</time></trkpt><trkpt lat="46.32248548193527" lon="13.131052194852622"><ele>221.0</ele><time>2026-05-03T13:40:53Z</time></trkpt><trkpt lat="46.322648727392675" lon="13.13109645340701"><ele>221.0</ele><time>2026-05-03T13:40:54Z</time></trkpt><trkpt lat="46.3228164001342" lon="13.131148096794352"><ele>221.0</ele><time>2026-05-03T13:40:55Z</time></trkpt><trkpt lat="46.32298664298892" lon="13.131193943947556"><ele>221.0</ele><time>2026-05-03T13:40:56Z</time></trkpt><trkpt lat="46.323156146452995" lon="13.13124160513253"><ele>221.33333333333334</ele><time>2026-05-03T13:40:57Z</time></trkpt><trkpt lat="46.32332747054557" lon="13.13129612283927"><ele>221.66666666666669</ele><time>2026-05-03T13:40:58Z</time></trkpt><trkpt lat="46.3235009776947" lon="13.131346538249613"><ele>222.0</ele><time>2026-05-03T13:40:59Z</time></trkpt><trkpt lat="46.323670499696824" lon="13.131396855387887"><ele>222.0</ele><time>2026-05-03T13:41:00Z</time></trkpt><trkpt lat="46.323833247906165" lon="13.1314554107843"><ele>222.0</ele><time>2026-05-03T13:41:01Z</time></trkpt><trkpt lat="46.32399223448078" lon="13.131520912280495"><ele>222.0</ele><time>2026-05-03T13:41:02Z</time></trkpt><trkpt lat="46.324144739550334" lon="13.131597913366054"><ele>222.33333333333331</ele><time>2026-05-03T13:41:03Z</time></trkpt><trkpt lat="46.32429148097375" lon="13.131688892334743"><ele>222.66666666666666</ele><time>2026-05-03T13:41:04Z</time></trkpt><trkpt lat="46.32443542535815" lon="13.13178923556881"><ele>223.0</ele><time>2026-05-03T13:41:05Z</time></trkpt><trkpt lat="46.324574275419565" lon="13.131904173229511"><ele>223.0</ele><time>2026-05-03T13:41:06Z</time></trkpt><trkpt lat="46.3247118027784" lon="13.132031230863893"><ele>223.0</ele><time>2026-05-03T13:41:07Z</time></trkpt><trkpt lat="46.3248488666677" lon="13.132156951243147"><ele>223.0</ele><time>2026-05-03T13:41:08Z</time></trkpt><trkpt lat="46.324982481581635" lon="13.132282335124074"><ele>222.66666666666666</ele><time>2026-05-03T13:41:09Z</time></trkpt><trkpt lat="46.3251133482254" lon="13.132402897866049"><ele>222.33333333333331</ele><time>2026-05-03T13:41:10Z</time></trkpt><trkpt lat="46.32524454634074" lon="13.132526461382627"><ele>222.0</ele><time>2026-05-03T13:41:11Z</time></trkpt><trkpt lat="46.325369914662176" lon="13.132645544896326"><ele>222.0</ele><time>2026-05-03T13:41:12Z</time></trkpt><trkpt lat="46.32549532559885" lon="13.13276525582231"><ele>222.0</ele><time>2026-05-03T13:41:13Z</time></trkpt><trkpt lat="46.32562044358411" lon="13.132879168523035"><ele>222.0</ele><time>2026-05-03T13:41:14Z</time></trkpt><trkpt lat="46.3257426003685" lon="13.132989174441944"><ele>222.0</ele><time>2026-05-03T13:41:15Z</time></trkpt><trkpt lat="46.325860367115105" lon="13.133102155573772"><ele>222.75</ele><time>2026-05-03T13:41:16Z</time></trkpt><trkpt lat="46.32598083323151" lon="13.133213857874422"><ele>223.5</ele><time>2026-05-03T13:41:17Z</time></trkpt><trkpt lat="46.3261003682221" lon="13.133325012831294"><ele>224.25</ele><time>2026-05-03T13:41:18Z</time></trkpt><trkpt lat="46.32622727032341" lon="13.1334381810827"><ele>225.0</ele><time>2026-05-03T13:41:19Z</time></trkpt><trkpt lat="46.326354848432096" lon="13.133561678662705"><ele>224.66666666666669</ele><time>2026-05-03T13:41:20Z</time></trkpt><trkpt lat="46.32648560117136" lon="13.133684755527833"><ele>224.33333333333334</ele><time>2026-05-03T13:41:21Z</time></trkpt><trkpt lat="46.32661835711403" lon="13.133803676832265"><ele>224.0</ele><time>2026-05-03T13:41:22Z</time></trkpt><trkpt lat="46.326753150894966" lon="13.133927321335262"><ele>224.0</ele><time>2026-05-03T13:41:23Z</time></trkpt><trkpt lat="46.32688343233892" lon="13.134051144479486"><ele>224.0</ele><time>2026-05-03T13:41:24Z</time></trkpt><trkpt lat="46.32701546815009" lon="13.134176300582027"><ele>224.0</ele><time>2026-05-03T13:41:25Z</time></trkpt><trkpt lat="46.32714973919581" lon="13.134297258613099"><ele>224.0</ele><time>2026-05-03T13:41:26Z</time></trkpt><trkpt lat="46.32728097555805" lon="13.13441881482965"><ele>224.0</ele><time>2026-05-03T13:41:27Z</time></trkpt><trkpt lat="46.327414285351715" lon="13.134547838554575"><ele>224.0</ele><time>2026-05-03T13:41:28Z</time></trkpt><trkpt lat="46.327550393239676" lon="13.134676064416174"><ele>224.0</ele><time>2026-05-03T13:41:29Z</time></trkpt><trkpt lat="46.32768802075488" lon="13.134805055166012"><ele>224.0</ele><time>2026-05-03T13:41:30Z</time></trkpt><trkpt lat="46.327824784325706" lon="13.134932065986112"><ele>224.0</ele><time>2026-05-03T13:41:31Z</time></trkpt><trkpt lat="46.32796235781451" lon="13.135054106713815"><ele>224.33333333333334</ele><time>2026-05-03T13:41:32Z</time></trkpt><trkpt lat="46.32809415231172" lon="13.135175289854104"><ele>224.66666666666669</ele><time>2026-05-03T13:41:33Z</time></trkpt><trkpt lat="46.328223385687" lon="13.135304239500396"><ele>225.0</ele><time>2026-05-03T13:41:34Z</time></trkpt><trkpt lat="46.328357006303655" lon="13.135428401680134"><ele>225.0</ele><time>2026-05-03T13:41:35Z</time></trkpt><trkpt lat="46.32848986197048" lon="13.135545268496095"><ele>225.0</ele><time>2026-05-03T13:41:36Z</time></trkpt><trkpt lat="46.328622082284625" lon="13.135666590166025"><ele>225.0</ele><time>2026-05-03T13:41:37Z</time></trkpt><trkpt lat="46.32875125713107" lon="13.135792329141667"><ele>225.0</ele><time>2026-05-03T13:41:38Z</time></trkpt><trkpt lat="46.32888321308992" lon="13.135923325094792"><ele>225.0</ele><time>2026-05-03T13:41:39Z</time></trkpt><trkpt lat="46.329017585323975" lon="13.136055607510928"><ele>225.0</ele><time>2026-05-03T13:41:40Z</time></trkpt><trkpt lat="46.32915214786439" lon="13.136174689433952"><ele>225.33333333333331</ele><time>2026-05-03T13:41:41Z</time></trkpt><trkpt lat="46.32929264974492" lon="13.136291777814222"><ele>225.66666666666666</ele><time>2026-05-03T13:41:42Z</time></trkpt><trkpt lat="46.32942900978274" lon="13.136404780701609"><ele>226.0</ele><time>2026-05-03T13:41:43Z</time></trkpt><trkpt lat="46.32955760866347" lon="13.136509681040941"><ele>226.0</ele><time>2026-05-03T13:41:44Z</time></trkpt><trkpt lat="46.32968073180123" lon="13.136621158178238"><ele>226.0</ele><time>2026-05-03T13:41:45Z</time></trkpt><trkpt lat="46.32980186159365" lon="13.136719007691857"><ele>226.0</ele><time>2026-05-03T13:41:46Z</time></trkpt><trkpt lat="46.32993190253773" lon="13.136804353220263"><ele>226.0</ele><time>2026-05-03T13:41:47Z</time></trkpt><trkpt lat="46.3300658237201" lon="13.136897728540825"><ele>226.0</ele><time>2026-05-03T13:41:48Z</time></trkpt><trkpt lat="46.33020142632274" lon="13.137003108910717"><ele>226.0</ele><time>2026-05-03T13:41:49Z</time></trkpt><trkpt lat="46.33034117300249" lon="13.137107228543048"><ele>226.0</ele><time>2026-05-03T13:41:50Z</time></trkpt><trkpt lat="46.33048090463207" lon="13.137211977790287"><ele>226.66666666666666</ele><time>2026-05-03T13:41:51Z</time></trkpt><trkpt lat="46.33062287357332" lon="13.137314227055665"><ele>227.33333333333331</ele><time>2026-05-03T13:41:52Z</time></trkpt><trkpt lat="46.33076567655725" lon="13.137419689008707"><ele>228.0</ele><time>2026-05-03T13:41:53Z</time></trkpt><trkpt lat="46.330908421114756" lon="13.137526627983508"><ele>228.0</ele><time>2026-05-03T13:41:54Z</time></trkpt><trkpt lat="46.33104934886048" lon="13.137629283917311"><ele>228.0</ele><time>2026-05-03T13:41:55Z</time></trkpt><trkpt lat="46.33119095070131" lon="13.137734134691208"><ele>228.0</ele><time>2026-05-03T13:41:56Z</time></trkpt><trkpt lat="46.33133017519325" lon="13.137838842356624"><ele>228.33333333333331</ele><time>2026-05-03T13:41:57Z</time></trkpt><trkpt lat="46.33147043481889" lon="13.137942916567875"><ele>228.66666666666666</ele><time>2026-05-03T13:41:58Z</time></trkpt><trkpt lat="46.33160731084387" lon="13.13803951540514"><ele>229.0</ele><time>2026-05-03T13:41:59Z</time></trkpt><trkpt lat="46.33174752688669" lon="13.138130584106886"><ele>229.0</ele><time>2026-05-03T13:42:00Z</time></trkpt><trkpt lat="46.33188877349891" lon="13.13820363654957"><ele>229.0</ele><time>2026-05-03T13:42:01Z</time></trkpt><trkpt lat="46.33203369731554" lon="13.138245907432886"><ele>229.0</ele><time>2026-05-03T13:42:02Z</time></trkpt><trkpt lat="46.33218043326379" lon="13.13824917609448"><ele>229.0</ele><time>2026-05-03T13:42:03Z</time></trkpt><trkpt lat="46.33232855627754" lon="13.138222288852473"><ele>229.33333333333331</ele><time>2026-05-03T13:42:04Z</time></trkpt><trkpt lat="46.33248202155349" lon="13.138176344763"><ele>229.66666666666669</ele><time>2026-05-03T13:42:05Z</time></trkpt><trkpt lat="46.33263332663385" lon="13.138106484464766"><ele>230.0</ele><time>2026-05-03T13:42:06Z</time></trkpt><trkpt lat="46.332780241229315" lon="13.138013755222108"><ele>230.0</ele><time>2026-05-03T13:42:07Z</time></trkpt><trkpt lat="46.332923309006205" lon="13.137915924297495"><ele>230.0</ele><time>2026-05-03T13:42:08Z</time></trkpt><trkpt lat="46.333066611993466" lon="13.137819214588566"><ele>230.0</ele><time>2026-05-03T13:42:09Z</time></trkpt><trkpt lat="46.33320827847867" lon="13.137728966424248"><ele>229.75</ele><time>2026-05-03T13:42:10Z</time></trkpt><trkpt lat="46.33334416925474" lon="13.137637007854222"><ele>229.5</ele><time>2026-05-03T13:42:11Z</time></trkpt><trkpt lat="46.33348105574985" lon="13.137540309272703"><ele>229.25</ele><time>2026-05-03T13:42:12Z</time></trkpt><trkpt lat="46.33361091988111" lon="13.137452984417639"><ele>229.0</ele><time>2026-05-03T13:42:13Z</time></trkpt><trkpt lat="46.333741237412845" lon="13.137375801978402"><ele>228.75</ele><time>2026-05-03T13:42:14Z</time></trkpt><trkpt lat="46.33387442912054" lon="13.137322931184865"><ele>228.5</ele><time>2026-05-03T13:42:15Z</time></trkpt><trkpt lat="46.33401215628273" lon="13.137301776394324"><ele>228.25</ele><time>2026-05-03T13:42:16Z</time></trkpt><trkpt lat="46.33415099717161" lon="13.137310406858399"><ele>228.0</ele><time>2026-05-03T13:42:17Z</time></trkpt><trkpt lat="46.33428729465248" lon="13.137345817995321"><ele>229.25</ele><time>2026-05-03T13:42:18Z</time></trkpt><trkpt lat="46.33441958757449" lon="13.137425105178309"><ele>230.5</ele><time>2026-05-03T13:42:19Z</time></trkpt><trkpt lat="46.33455014557364" lon="13.13752860088902"><ele>231.75</ele><time>2026-05-03T13:42:20Z</time></trkpt><trkpt lat="46.33467912567862" lon="13.137622110629767"><ele>233.0</ele><time>2026-05-03T13:42:21Z</time></trkpt><trkpt lat="46.33481241422786" lon="13.13770223411055"><ele>233.0</ele><time>2026-05-03T13:42:22Z</time></trkpt><trkpt lat="46.33493955911351" lon="13.137776844425323"><ele>233.0</ele><time>2026-05-03T13:42:23Z</time></trkpt><trkpt lat="46.335059643519976" lon="13.137845489513944"><ele>233.0</ele><time>2026-05-03T13:42:24Z</time></trkpt><trkpt lat="46.335175394438295" lon="13.137911672409519"><ele>233.0</ele><time>2026-05-03T13:42:25Z</time></trkpt><trkpt lat="46.33529048287588" lon="13.13797837225621"><ele>233.0</ele><time>2026-05-03T13:42:26Z</time></trkpt><trkpt lat="46.33540698433659" lon="13.138049466292339"><ele>233.0</ele><time>2026-05-03T13:42:27Z</time></trkpt><trkpt lat="46.33552839435396" lon="13.138120810311504"><ele>233.0</ele><time>2026-05-03T13:42:28Z</time></trkpt><trkpt lat="46.33565465188376" lon="13.138195951536572"><ele>233.0</ele><time>2026-05-03T13:42:29Z</time></trkpt><trkpt lat="46.33578096330109" lon="13.138275611052245"><ele>232.5</ele><time>2026-05-03T13:42:30Z</time></trkpt><trkpt lat="46.33590037139451" lon="13.138348532943796"><ele>232.0</ele><time>2026-05-03T13:42:31Z</time></trkpt><trkpt lat="46.33601687642102" lon="13.138419527616904"><ele>231.5</ele><time>2026-05-03T13:42:32Z</time></trkpt><trkpt lat="46.33613166067158" lon="13.13849024076769"><ele>231.0</ele><time>2026-05-03T13:42:33Z</time></trkpt><trkpt lat="46.33624069882988" lon="13.138557099413715"><ele>231.0</ele><time>2026-05-03T13:42:34Z</time></trkpt><trkpt lat="46.33635239300246" lon="13.138621868542732"><ele>231.0</ele><time>2026-05-03T13:42:35Z</time></trkpt><trkpt lat="46.336469169069765" lon="13.13868847074026"><ele>231.0</ele><time>2026-05-03T13:42:36Z</time></trkpt><trkpt lat="46.33659107527602" lon="13.138759207046746"><ele>231.0</ele><time>2026-05-03T13:42:37Z</time></trkpt><trkpt lat="46.33671981677141" lon="13.13883639174761"><ele>231.0</ele><time>2026-05-03T13:42:38Z</time></trkpt><trkpt lat="46.33685330820949" lon="13.138917075965532"><ele>231.0</ele><time>2026-05-03T13:42:39Z</time></trkpt><trkpt lat="46.33698696863011" lon="13.13899664053516"><ele>231.0</ele><time>2026-05-03T13:42:40Z</time></trkpt><trkpt lat="46.33711296831539" lon="13.139071733069649"><ele>231.0</ele><time>2026-05-03T13:42:41Z</time></trkpt><trkpt lat="46.33723437531257" lon="13.139142071621562"><ele>231.0</ele><time>2026-05-03T13:42:42Z</time></trkpt><trkpt lat="46.337351450275605" lon="13.139209534277077"><ele>231.0</ele><time>2026-05-03T13:42:43Z</time></trkpt><trkpt lat="46.337463607705736" lon="13.13927614191031"><ele>231.0</ele><time>2026-05-03T13:42:44Z</time></trkpt><trkpt lat="46.337572141639455" lon="13.139337940987401"><ele>231.0</ele><time>2026-05-03T13:42:45Z</time></trkpt><trkpt lat="46.337684583989564" lon="13.139396994679268"><ele>231.0</ele><time>2026-05-03T13:42:46Z</time></trkpt><trkpt lat="46.33780521814036" lon="13.139457585196055"><ele>231.0</ele><time>2026-05-03T13:42:47Z</time></trkpt><trkpt lat="46.33793206035238" lon="13.139538761197576"><ele>231.0</ele><time>2026-05-03T13:42:48Z</time></trkpt><trkpt lat="46.338064330785926" lon="13.139628591443604"><ele>231.0</ele><time>2026-05-03T13:42:49Z</time></trkpt><trkpt lat="46.33820382930788" lon="13.139698591674716"><ele>231.5</ele><time>2026-05-03T13:42:50Z</time></trkpt><trkpt lat="46.33834973394086" lon="13.139743755050594"><ele>232.0</ele><time>2026-05-03T13:42:51Z</time></trkpt><trkpt lat="46.33849845167822" lon="13.139779739654054"><ele>232.5</ele><time>2026-05-03T13:42:52Z</time></trkpt><trkpt lat="46.338644151508454" lon="13.139812763800515"><ele>233.0</ele><time>2026-05-03T13:42:53Z</time></trkpt><trkpt lat="46.33879327037173" lon="13.139841636604244"><ele>233.0</ele><time>2026-05-03T13:42:54Z</time></trkpt><trkpt lat="46.33894661420414" lon="13.139863170563554"><ele>233.0</ele><time>2026-05-03T13:42:55Z</time></trkpt><trkpt lat="46.33910479800878" lon="13.139871991866269"><ele>233.0</ele><time>2026-05-03T13:42:56Z</time></trkpt><trkpt lat="46.339264224798825" lon="13.13987341885909"><ele>233.0</ele><time>2026-05-03T13:42:57Z</time></trkpt><trkpt lat="46.33942409112203" lon="13.139873686206188"><ele>233.0</ele><time>2026-05-03T13:42:58Z</time></trkpt><trkpt lat="46.339580548077535" lon="13.1398690328238"><ele>233.0</ele><time>2026-05-03T13:42:59Z</time></trkpt><trkpt lat="46.33973892749867" lon="13.139864407533722"><ele>232.66666666666669</ele><time>2026-05-03T13:43:00Z</time></trkpt><trkpt lat="46.3398959707635" lon="13.139857720216572"><ele>232.33333333333331</ele><time>2026-05-03T13:43:01Z</time></trkpt><trkpt lat="46.34005427081533" lon="13.139850695379867"><ele>232.0</ele><time>2026-05-03T13:43:02Z</time></trkpt><trkpt lat="46.340206894799756" lon="13.139848813525937"><ele>232.0</ele><time>2026-05-03T13:43:03Z</time></trkpt><trkpt lat="46.3403657094097" lon="13.139841759058603"><ele>232.0</ele><time>2026-05-03T13:43:04Z</time></trkpt><trkpt lat="46.34052262916212" lon="13.139831810437355"><ele>232.0</ele><time>2026-05-03T13:43:05Z</time></trkpt><trkpt lat="46.34068104249505" lon="13.13982509502463"><ele>232.33333333333331</ele><time>2026-05-03T13:43:06Z</time></trkpt><trkpt lat="46.34083914968433" lon="13.139821461774268"><ele>232.66666666666669</ele><time>2026-05-03T13:43:07Z</time></trkpt><trkpt lat="46.34099844771705" lon="13.139817571194975"><ele>233.0</ele><time>2026-05-03T13:43:08Z</time></trkpt><trkpt lat="46.34115535862735" lon="13.139810908818601"><ele>233.0</ele><time>2026-05-03T13:43:09Z</time></trkpt><trkpt lat="46.341312769759284" lon="13.13980412418836"><ele>233.0</ele><time>2026-05-03T13:43:10Z</time></trkpt><trkpt lat="46.34147035011496" lon="13.139797414105493"><ele>233.0</ele><time>2026-05-03T13:43:11Z</time></trkpt><trkpt lat="46.34162536579975" lon="13.13978954291356"><ele>233.0</ele><time>2026-05-03T13:43:12Z</time></trkpt><trkpt lat="46.34178165426086" lon="13.13978477028443"><ele>233.0</ele><time>2026-05-03T13:43:13Z</time></trkpt><trkpt lat="46.341936620308715" lon="13.13977822219032"><ele>233.0</ele><time>2026-05-03T13:43:14Z</time></trkpt><trkpt lat="46.34209100770302" lon="13.139773042516058"><ele>233.0</ele><time>2026-05-03T13:43:15Z</time></trkpt><trkpt lat="46.34224549464786" lon="13.139770748437648"><ele>233.0</ele><time>2026-05-03T13:43:16Z</time></trkpt><trkpt lat="46.34240070277804" lon="13.139762351036131"><ele>233.0</ele><time>2026-05-03T13:43:17Z</time></trkpt><trkpt lat="46.34255692516091" lon="13.139754587890701"><ele>233.0</ele><time>2026-05-03T13:43:18Z</time></trkpt><trkpt lat="46.342713537187684" lon="13.139747730348802"><ele>233.0</ele><time>2026-05-03T13:43:19Z</time></trkpt><trkpt lat="46.34287377361542" lon="13.13974297914511"><ele>233.0</ele><time>2026-05-03T13:43:20Z</time></trkpt><trkpt lat="46.34303386819237" lon="13.139737425837634"><ele>234.0</ele><time>2026-05-03T13:43:21Z</time></trkpt><trkpt lat="46.34319499651988" lon="13.139732584959082"><ele>235.0</ele><time>2026-05-03T13:43:22Z</time></trkpt><trkpt lat="46.34335714667876" lon="13.139730635025952"><ele>236.0</ele><time>2026-05-03T13:43:23Z</time></trkpt><trkpt lat="46.343521494966176" lon="13.139731758622213"><ele>236.0</ele><time>2026-05-03T13:43:24Z</time></trkpt><trkpt lat="46.34368579825364" lon="13.139739553979766"><ele>236.0</ele><time>2026-05-03T13:43:25Z</time></trkpt><trkpt lat="46.343852152532136" lon="13.139762561955063"><ele>236.0</ele><time>2026-05-03T13:43:26Z</time></trkpt><trkpt lat="46.344013451143155" lon="13.139804967033497"><ele>235.66666666666669</ele><time>2026-05-03T13:43:27Z</time></trkpt><trkpt lat="46.34417900299563" lon="13.139875517629758"><ele>235.33333333333331</ele><time>2026-05-03T13:43:28Z</time></trkpt><trkpt lat="46.34433763604328" lon="13.139959881019895"><ele>235.0</ele><time>2026-05-03T13:43:29Z</time></trkpt><trkpt lat="46.34449736523403" lon="13.140055821264426"><ele>235.0</ele><time>2026-05-03T13:43:30Z</time></trkpt><trkpt lat="46.34465288089136" lon="13.140152804714225"><ele>235.0</ele><time>2026-05-03T13:43:31Z</time></trkpt><trkpt lat="46.344806993195725" lon="13.140244049305595"><ele>235.0</ele><time>2026-05-03T13:43:32Z</time></trkpt><trkpt lat="46.34495932020934" lon="13.14033020796517"><ele>235.0</ele><time>2026-05-03T13:43:33Z</time></trkpt><trkpt lat="46.34511004480271" lon="13.14041265115976"><ele>235.0</ele><time>2026-05-03T13:43:34Z</time></trkpt><trkpt lat="46.34526155984016" lon="13.140498553739643"><ele>235.0</ele><time>2026-05-03T13:43:35Z</time></trkpt><trkpt lat="46.34541511783555" lon="13.140584506150836"><ele>235.33333333333331</ele><time>2026-05-03T13:43:36Z</time></trkpt><trkpt lat="46.34557112672715" lon="13.140673087504078"><ele>235.66666666666669</ele><time>2026-05-03T13:43:37Z</time></trkpt><trkpt lat="46.34572743965612" lon="13.140764570620917"><ele>236.0</ele><time>2026-05-03T13:43:38Z</time></trkpt><trkpt lat="46.34588477751296" lon="13.140855286322019"><ele>236.33333333333334</ele><time>2026-05-03T13:43:39Z</time></trkpt><trkpt lat="46.34604066858326" lon="13.140944088966036"><ele>236.66666666666669</ele><time>2026-05-03T13:43:40Z</time></trkpt><trkpt lat="46.34619447227688" lon="13.141032806238705"><ele>237.0</ele><time>2026-05-03T13:43:41Z</time></trkpt><trkpt lat="46.34634575099365" lon="13.141116965258771"><ele>236.33333333333331</ele><time>2026-05-03T13:43:42Z</time></trkpt><trkpt lat="46.34649616151065" lon="13.141202468167082"><ele>235.66666666666666</ele><time>2026-05-03T13:43:43Z</time></trkpt><trkpt lat="46.34664296279595" lon="13.141287955570878"><ele>235.0</ele><time>2026-05-03T13:43:44Z</time></trkpt><trkpt lat="46.34679184514115" lon="13.141373309743733"><ele>235.0</ele><time>2026-05-03T13:43:45Z</time></trkpt><trkpt lat="46.34694137894151" lon="13.141457933230992"><ele>235.0</ele><time>2026-05-03T13:43:46Z</time></trkpt><trkpt lat="46.347089275745255" lon="13.141544483387833"><ele>235.0</ele><time>2026-05-03T13:43:47Z</time></trkpt><trkpt lat="46.34723671370519" lon="13.141628499089915"><ele>235.33333333333331</ele><time>2026-05-03T13:43:48Z</time></trkpt><trkpt lat="46.34738399382661" lon="13.141709304464152"><ele>235.66666666666669</ele><time>2026-05-03T13:43:49Z</time></trkpt><trkpt lat="46.34752623922584" lon="13.141789591029017"><ele>236.0</ele><time>2026-05-03T13:43:50Z</time></trkpt><trkpt lat="46.34766525095318" lon="13.14187171693571"><ele>236.0</ele><time>2026-05-03T13:43:51Z</time></trkpt><trkpt lat="46.34780619679029" lon="13.141953745603185"><ele>236.0</ele><time>2026-05-03T13:43:52Z</time></trkpt><trkpt lat="46.34794863076069" lon="13.14203620621383"><ele>236.0</ele><time>2026-05-03T13:43:53Z</time></trkpt><trkpt lat="46.34809222757658" lon="13.142115955486824"><ele>236.33333333333334</ele><time>2026-05-03T13:43:54Z</time></trkpt><trkpt lat="46.348234969676454" lon="13.142195045359092"><ele>236.66666666666669</ele><time>2026-05-03T13:43:55Z</time></trkpt><trkpt lat="46.34837875891522" lon="13.142274282297734"><ele>237.0</ele><time>2026-05-03T13:43:56Z</time></trkpt><trkpt lat="46.348522341368664" lon="13.142351980391753"><ele>238.75</ele><time>2026-05-03T13:43:57Z</time></trkpt><trkpt lat="46.348666535302605" lon="13.142415138023937"><ele>240.5</ele><time>2026-05-03T13:43:58Z</time></trkpt><trkpt lat="46.348812985763026" lon="13.14245311960252"><ele>242.25</ele><time>2026-05-03T13:43:59Z</time></trkpt><trkpt lat="46.34896046988089" lon="13.142467927047514"><ele>244.0</ele><time>2026-05-03T13:44:00Z</time></trkpt><trkpt lat="46.349108842997346" lon="13.142466450434597"><ele>244.25</ele><time>2026-05-03T13:44:01Z</time></trkpt><trkpt lat="46.34925354718244" lon="13.14244888407981"><ele>244.5</ele><time>2026-05-03T13:44:02Z</time></trkpt><trkpt lat="46.34939999142334" lon="13.142412407934144"><ele>244.75</ele><time>2026-05-03T13:44:03Z</time></trkpt><trkpt lat="46.3495473835204" lon="13.142359902310131"><ele>245.0</ele><time>2026-05-03T13:44:04Z</time></trkpt><trkpt lat="46.34969223527905" lon="13.14229450896313"><ele>245.33333333333334</ele><time>2026-05-03T13:44:05Z</time></trkpt><trkpt lat="46.349837203909075" lon="13.142226525886164"><ele>245.66666666666669</ele><time>2026-05-03T13:44:06Z</time></trkpt><trkpt lat="46.3499812151031" lon="13.142153336091775"><ele>246.0</ele><time>2026-05-03T13:44:07Z</time></trkpt><trkpt lat="46.35012460860498" lon="13.142082172603487"><ele>246.0</ele><time>2026-05-03T13:44:08Z</time></trkpt><trkpt lat="46.35027054158007" lon="13.142012857358637"><ele>246.0</ele><time>2026-05-03T13:44:09Z</time></trkpt><trkpt lat="46.350416087671235" lon="13.14194535983043"><ele>246.0</ele><time>2026-05-03T13:44:10Z</time></trkpt><trkpt lat="46.35056380053319" lon="13.141878696983778"><ele>247.66666666666669</ele><time>2026-05-03T13:44:11Z</time></trkpt><trkpt lat="46.35071301793847" lon="13.141809552318168"><ele>249.33333333333334</ele><time>2026-05-03T13:44:12Z</time></trkpt><trkpt lat="46.35086368741557" lon="13.141733175826289"><ele>251.0</ele><time>2026-05-03T13:44:13Z</time></trkpt><trkpt lat="46.35101504286653" lon="13.141651337949845"><ele>251.0</ele><time>2026-05-03T13:44:14Z</time></trkpt><trkpt lat="46.3511637315891" lon="13.141557313181618"><ele>251.0</ele><time>2026-05-03T13:44:15Z</time></trkpt><trkpt lat="46.351312459330394" lon="13.14145707953763"><ele>251.0</ele><time>2026-05-03T13:44:16Z</time></trkpt><trkpt lat="46.351460870191836" lon="13.141358129889078"><ele>250.33333333333334</ele><time>2026-05-03T13:44:17Z</time></trkpt><trkpt lat="46.35161314805197" lon="13.141265209112593"><ele>249.66666666666669</ele><time>2026-05-03T13:44:18Z</time></trkpt><trkpt lat="46.351765748147635" lon="13.141170862305732"><ele>249.0</ele><time>2026-05-03T13:44:19Z</time></trkpt><trkpt lat="46.35190910920783" lon="13.141075710758482"><ele>249.0</ele><time>2026-05-03T13:44:20Z</time></trkpt><trkpt lat="46.35204670314861" lon="13.140986065805407"><ele>249.0</ele><time>2026-05-03T13:44:21Z</time></trkpt><trkpt lat="46.35218760328065" lon="13.140898106982952"><ele>249.0</ele><time>2026-05-03T13:44:22Z</time></trkpt><trkpt lat="46.3523282652968" lon="13.140801988142146"><ele>248.33333333333331</ele><time>2026-05-03T13:44:23Z</time></trkpt><trkpt lat="46.35247224803623" lon="13.14070695635243"><ele>247.66666666666666</ele><time>2026-05-03T13:44:24Z</time></trkpt><trkpt lat="46.352619844877275" lon="13.140610859993435"><ele>247.0</ele><time>2026-05-03T13:44:25Z</time></trkpt><trkpt lat="46.352767485733835" lon="13.140510376867807"><ele>247.0</ele><time>2026-05-03T13:44:26Z</time></trkpt><trkpt lat="46.352919584110495" lon="13.140407930676792"><ele>247.0</ele><time>2026-05-03T13:44:27Z</time></trkpt><trkpt lat="46.353069570724564" lon="13.140309161481444"><ele>247.0</ele><time>2026-05-03T13:44:28Z</time></trkpt><trkpt lat="46.35322341022612" lon="13.140208821139552"><ele>248.0</ele><time>2026-05-03T13:44:29Z</time></trkpt><trkpt lat="46.353375486704806" lon="13.140110637912581"><ele>249.0</ele><time>2026-05-03T13:44:30Z</time></trkpt><trkpt lat="46.353525557851064" lon="13.140009339551185"><ele>250.0</ele><time>2026-05-03T13:44:31Z</time></trkpt><trkpt lat="46.35368026823389" lon="13.139911730920867"><ele>248.0</ele><time>2026-05-03T13:44:32Z</time></trkpt><trkpt lat="46.353830884668874" lon="13.139811080145112"><ele>246.0</ele><time>2026-05-03T13:44:33Z</time></trkpt><trkpt lat="46.35398351484154" lon="13.139711284856832"><ele>244.0</ele><time>2026-05-03T13:44:34Z</time></trkpt><trkpt lat="46.35413567781611" lon="13.139613767291893"><ele>244.0</ele><time>2026-05-03T13:44:35Z</time></trkpt><trkpt lat="46.35428633317891" lon="13.139516305959408"><ele>244.0</ele><time>2026-05-03T13:44:36Z</time></trkpt><trkpt lat="46.354432362979246" lon="13.13942161588011"><ele>244.0</ele><time>2026-05-03T13:44:37Z</time></trkpt><trkpt lat="46.354580756529465" lon="13.139324278786752"><ele>244.33333333333331</ele><time>2026-05-03T13:44:38Z</time></trkpt><trkpt lat="46.3547306998872" lon="13.139228319634555"><ele>244.66666666666669</ele><time>2026-05-03T13:44:39Z</time></trkpt><trkpt lat="46.35488255357323" lon="13.139135725118376"><ele>245.0</ele><time>2026-05-03T13:44:40Z</time></trkpt><trkpt lat="46.35503524241174" lon="13.13904718150252"><ele>244.33333333333334</ele><time>2026-05-03T13:44:41Z</time></trkpt><trkpt lat="46.35519155674522" lon="13.138972322077672"><ele>243.66666666666669</ele><time>2026-05-03T13:44:42Z</time></trkpt><trkpt lat="46.35534822019224" lon="13.138899491962695"><ele>243.0</ele><time>2026-05-03T13:44:43Z</time></trkpt><trkpt lat="46.35550744739472" lon="13.138823685497984"><ele>242.66666666666669</ele><time>2026-05-03T13:44:44Z</time></trkpt><trkpt lat="46.35566924478702" lon="13.138745094443529"><ele>242.33333333333334</ele><time>2026-05-03T13:44:45Z</time></trkpt><trkpt lat="46.35583806114606" lon="13.138667568833768"><ele>242.0</ele><time>2026-05-03T13:44:46Z</time></trkpt><trkpt lat="46.356006522227624" lon="13.138587607258263"><ele>242.0</ele><time>2026-05-03T13:44:47Z</time></trkpt><trkpt lat="46.35617091243151" lon="13.138511489440702"><ele>242.0</ele><time>2026-05-03T13:44:48Z</time></trkpt><trkpt lat="46.35632781024133" lon="13.138437543164606"><ele>242.0</ele><time>2026-05-03T13:44:49Z</time></trkpt><trkpt lat="46.3564793267328" lon="13.138369099691928"><ele>241.66666666666669</ele><time>2026-05-03T13:44:50Z</time></trkpt><trkpt lat="46.35663146002649" lon="13.138298056051294"><ele>241.33333333333331</ele><time>2026-05-03T13:44:51Z</time></trkpt><trkpt lat="46.35678169287176" lon="13.138227566356225"><ele>241.0</ele><time>2026-05-03T13:44:52Z</time></trkpt><trkpt lat="46.3569237739307" lon="13.13816078265171"><ele>240.5</ele><time>2026-05-03T13:44:53Z</time></trkpt><trkpt lat="46.35706332353253" lon="13.138089255222042"><ele>240.0</ele><time>2026-05-03T13:44:54Z</time></trkpt><trkpt lat="46.35720132536681" lon="13.138016041881455"><ele>239.5</ele><time>2026-05-03T13:44:55Z</time></trkpt><trkpt lat="46.357335285544224" lon="13.13794741712817"><ele>239.0</ele><time>2026-05-03T13:44:56Z</time></trkpt><trkpt lat="46.35746852408922" lon="13.137882847860409"><ele>239.0</ele><time>2026-05-03T13:44:57Z</time></trkpt><trkpt lat="46.357601694737156" lon="13.13782433674537"><ele>239.0</ele><time>2026-05-03T13:44:58Z</time></trkpt><trkpt lat="46.35773880856633" lon="13.137772749759144"><ele>239.0</ele><time>2026-05-03T13:44:59Z</time></trkpt><trkpt lat="46.35788000037268" lon="13.137714259592872"><ele>239.0</ele><time>2026-05-03T13:45:00Z</time></trkpt><trkpt lat="46.35802241873639" lon="13.137645894479277"><ele>239.0</ele><time>2026-05-03T13:45:01Z</time></trkpt><trkpt lat="46.35816637608399" lon="13.137577654280019"><ele>239.0</ele><time>2026-05-03T13:45:02Z</time></trkpt><trkpt lat="46.35830981356779" lon="13.137504885040174"><ele>239.0</ele><time>2026-05-03T13:45:03Z</time></trkpt><trkpt lat="46.35845062324221" lon="13.137435282434371"><ele>240.0</ele><time>2026-05-03T13:45:04Z</time></trkpt><trkpt lat="46.358596784610484" lon="13.137367384449513"><ele>241.0</ele><time>2026-05-03T13:45:05Z</time></trkpt><trkpt lat="46.35874130193951" lon="13.13729653235207"><ele>242.0</ele><time>2026-05-03T13:45:06Z</time></trkpt><trkpt lat="46.35888045126787" lon="13.137230840861891"><ele>242.0</ele><time>2026-05-03T13:45:07Z</time></trkpt><trkpt lat="46.359018186916884" lon="13.13716917680211"><ele>242.0</ele><time>2026-05-03T13:45:08Z</time></trkpt><trkpt lat="46.359158105077476" lon="13.137105121757767"><ele>242.0</ele><time>2026-05-03T13:45:09Z</time></trkpt><trkpt lat="46.359302598554486" lon="13.137041244296196"><ele>242.0</ele><time>2026-05-03T13:45:10Z</time></trkpt><trkpt lat="46.35944893571323" lon="13.136978324067595"><ele>242.0</ele><time>2026-05-03T13:45:11Z</time></trkpt><trkpt lat="46.359599434113264" lon="13.136917650960712"><ele>242.0</ele><time>2026-05-03T13:45:12Z</time></trkpt><trkpt lat="46.35975185324422" lon="13.136857818894"><ele>242.0</ele><time>2026-05-03T13:45:13Z</time></trkpt><trkpt lat="46.35990465091921" lon="13.13679901425424"><ele>242.33333333333334</ele><time>2026-05-03T13:45:14Z</time></trkpt><trkpt lat="46.360057238653035" lon="13.136742580822995"><ele>242.66666666666669</ele><time>2026-05-03T13:45:15Z</time></trkpt><trkpt lat="46.360210426315675" lon="13.136688973192246"><ele>243.0</ele><time>2026-05-03T13:45:16Z</time></trkpt><trkpt lat="46.360364188431575" lon="13.136633988293202"><ele>243.0</ele><time>2026-05-03T13:45:17Z</time></trkpt><trkpt lat="46.36051720219646" lon="13.136580562244035"><ele>243.0</ele><time>2026-05-03T13:45:18Z</time></trkpt><trkpt lat="46.36066988309405" lon="13.136525343911424"><ele>243.0</ele><time>2026-05-03T13:45:19Z</time></trkpt><trkpt lat="46.36082167026864" lon="13.136469928315302"><ele>242.66666666666669</ele><time>2026-05-03T13:45:20Z</time></trkpt><trkpt lat="46.360974548692795" lon="13.136417504392012"><ele>242.33333333333334</ele><time>2026-05-03T13:45:21Z</time></trkpt><trkpt lat="46.36112552771821" lon="13.13636487015409"><ele>242.0</ele><time>2026-05-03T13:45:22Z</time></trkpt><trkpt lat="46.361273882830446" lon="13.13631098062168"><ele>242.33333333333334</ele><time>2026-05-03T13:45:23Z</time></trkpt><trkpt lat="46.361423172878546" lon="13.136255875571475"><ele>242.66666666666669</ele><time>2026-05-03T13:45:24Z</time></trkpt><trkpt lat="46.361574737849296" lon="13.13620120227155"><ele>243.0</ele><time>2026-05-03T13:45:25Z</time></trkpt><trkpt lat="46.36172655814674" lon="13.1361444735659"><ele>243.0</ele><time>2026-05-03T13:45:26Z</time></trkpt><trkpt lat="46.361880046832646" lon="13.13608852761691"><ele>243.0</ele><time>2026-05-03T13:45:27Z</time></trkpt><trkpt lat="46.36203510209866" lon="13.13603544171301"><ele>243.0</ele><time>2026-05-03T13:45:28Z</time></trkpt><trkpt lat="46.36218978421916" lon="13.135982223930098"><ele>244.0</ele><time>2026-05-03T13:45:29Z</time></trkpt><trkpt lat="46.362343770626616" lon="13.13592567488335"><ele>245.0</ele><time>2026-05-03T13:45:30Z</time></trkpt><trkpt lat="46.362497166178024" lon="13.135870051672075"><ele>246.0</ele><time>2026-05-03T13:45:31Z</time></trkpt><trkpt lat="46.362650815660565" lon="13.135812990160382"><ele>246.0</ele><time>2026-05-03T13:45:32Z</time></trkpt><trkpt lat="46.362808166585076" lon="13.135757667812365"><ele>246.0</ele><time>2026-05-03T13:45:33Z</time></trkpt><trkpt lat="46.36296425258915" lon="13.1357046897722"><ele>246.0</ele><time>2026-05-03T13:45:34Z</time></trkpt><trkpt lat="46.363120295929285" lon="13.135645594831677"><ele>245.33333333333331</ele><time>2026-05-03T13:45:35Z</time></trkpt><trkpt lat="46.36327346459298" lon="13.135589418290884"><ele>244.66666666666666</ele><time>2026-05-03T13:45:36Z</time></trkpt><trkpt lat="46.36343220563251" lon="13.13553611469274"><ele>244.0</ele><time>2026-05-03T13:45:37Z</time></trkpt><trkpt lat="46.36358960871839" lon="13.13548261244906"><ele>244.0</ele><time>2026-05-03T13:45:38Z</time></trkpt><trkpt lat="46.363740493896515" lon="13.135430051947525"><ele>244.0</ele><time>2026-05-03T13:45:39Z</time></trkpt><trkpt lat="46.36389433208407" lon="13.135372749004341"><ele>244.0</ele><time>2026-05-03T13:45:40Z</time></trkpt><trkpt lat="46.36404948514977" lon="13.135315034167016"><ele>245.66666666666666</ele><time>2026-05-03T13:45:41Z</time></trkpt><trkpt lat="46.364205563501535" lon="13.135261861821721"><ele>247.33333333333331</ele><time>2026-05-03T13:45:42Z</time></trkpt><trkpt lat="46.36435730174901" lon="13.135208843831366"><ele>249.0</ele><time>2026-05-03T13:45:43Z</time></trkpt><trkpt lat="46.36451248756183" lon="13.13515355369454"><ele>249.0</ele><time>2026-05-03T13:45:44Z</time></trkpt><trkpt lat="46.36466711696567" lon="13.135098146182576"><ele>249.0</ele><time>2026-05-03T13:45:45Z</time></trkpt><trkpt lat="46.36481716080916" lon="13.135043999542505"><ele>249.0</ele><time>2026-05-03T13:45:46Z</time></trkpt><trkpt lat="46.36496629256668" lon="13.13499294877883"><ele>248.33333333333331</ele><time>2026-05-03T13:45:47Z</time></trkpt><trkpt lat="46.36511570225921" lon="13.134942951079246"><ele>247.66666666666666</ele><time>2026-05-03T13:45:48Z</time></trkpt><trkpt lat="46.36526952960423" lon="13.134888370567673"><ele>247.0</ele><time>2026-05-03T13:45:49Z</time></trkpt><trkpt lat="46.36542518488273" lon="13.134832278518884"><ele>247.66666666666666</ele><time>2026-05-03T13:45:50Z</time></trkpt><trkpt lat="46.36557999304918" lon="13.134780357199745"><ele>248.33333333333331</ele><time>2026-05-03T13:45:51Z</time></trkpt><trkpt lat="46.36573403000536" lon="13.134743223984044"><ele>249.0</ele><time>2026-05-03T13:45:52Z</time></trkpt><trkpt lat="46.36588588731126" lon="13.134722380154697"><ele>249.0</ele><time>2026-05-03T13:45:53Z</time></trkpt><trkpt lat="46.366037618376886" lon="13.134717982049764"><ele>249.0</ele><time>2026-05-03T13:45:54Z</time></trkpt><trkpt lat="46.36618771028462" lon="13.134723664782223"><ele>249.0</ele><time>2026-05-03T13:45:55Z</time></trkpt><trkpt lat="46.366338213919164" lon="13.134739771770368"><ele>249.33333333333331</ele><time>2026-05-03T13:45:56Z</time></trkpt><trkpt lat="46.366490398781636" lon="13.134763330749983"><ele>249.66666666666666</ele><time>2026-05-03T13:45:57Z</time></trkpt><trkpt lat="46.36664158441817" lon="13.13480133316693"><ele>250.0</ele><time>2026-05-03T13:45:58Z</time></trkpt><trkpt lat="46.36679342877221" lon="13.134855615825048"><ele>252.0</ele><time>2026-05-03T13:45:59Z</time></trkpt><trkpt lat="46.36694480493213" lon="13.134915532374015"><ele>254.0</ele><time>2026-05-03T13:46:00Z</time></trkpt><trkpt lat="46.367094713297845" lon="13.13497124756872"><ele>256.0</ele><time>2026-05-03T13:46:01Z</time></trkpt><trkpt lat="46.36724655056995" lon="13.135025976422709"><ele>256.66666666666663</ele><time>2026-05-03T13:46:02Z</time></trkpt><trkpt lat="46.367400374454114" lon="13.135080649434233"><ele>257.3333333333333</ele><time>2026-05-03T13:46:03Z</time></trkpt><trkpt lat="46.367554118452766" lon="13.135136194027282"><ele>258.0</ele><time>2026-05-03T13:46:04Z</time></trkpt><trkpt lat="46.367707308434895" lon="13.135192379778928"><ele>258.0</ele><time>2026-05-03T13:46:05Z</time></trkpt><trkpt lat="46.36786095891538" lon="13.135247331018403"><ele>258.0</ele><time>2026-05-03T13:46:06Z</time></trkpt><trkpt lat="46.368012585796556" lon="13.135299651648827"><ele>258.0</ele><time>2026-05-03T13:46:07Z</time></trkpt><trkpt lat="46.36816581329024" lon="13.135349798122466"><ele>256.3333333333333</ele><time>2026-05-03T13:46:08Z</time></trkpt><trkpt lat="46.368317623318305" lon="13.135399288172694"><ele>254.66666666666666</ele><time>2026-05-03T13:46:09Z</time></trkpt><trkpt lat="46.368470602688454" lon="13.135463089510212"><ele>253.0</ele><time>2026-05-03T13:46:10Z</time></trkpt><trkpt lat="46.368624076770146" lon="13.13551578316899"><ele>253.0</ele><time>2026-05-03T13:46:11Z</time></trkpt><trkpt lat="46.36877477366746" lon="13.135566495167811"><ele>253.0</ele><time>2026-05-03T13:46:12.022Z</time></trkpt><trkpt lat="46.36892431748517" lon="13.135615560602732"><ele>253.0</ele><time>2026-05-03T13:46:13.023Z</time></trkpt><trkpt lat="46.369064204578606" lon="13.135661725931852"><ele>253.25</ele><time>2026-05-03T13:46:14.023Z</time></trkpt><trkpt lat="46.36921098689084" lon="13.135697558779947"><ele>253.5</ele><time>2026-05-03T13:46:15.018Z</time></trkpt><trkpt lat="46.36930894508411" lon="13.135682097617716"><ele>253.75</ele><time>2026-05-03T13:46:16.023Z</time></trkpt><trkpt lat="46.36944261095732" lon="13.135689926888114"><ele>254.0</ele><time>2026-05-03T13:46:17.016Z</time></trkpt><trkpt lat="46.36962027058299" lon="13.135695183137356"><ele>255.25</ele><time>2026-05-03T13:46:18.024Z</time></trkpt><trkpt lat="46.36976306739618" lon="13.13569770348386"><ele>256.5</ele><time>2026-05-03T13:46:19.016Z</time></trkpt><trkpt lat="46.369910443475035" lon="13.13570014583053"><ele>257.75</ele><time>2026-05-03T13:46:20.023Z</time></trkpt><trkpt lat="46.370069391906085" lon="13.135705246136272"><ele>259.0</ele><time>2026-05-03T13:46:21.02Z</time></trkpt><trkpt lat="46.37019278112449" lon="13.135710200673826"><ele>259.0</ele><time>2026-05-03T13:46:22Z</time></trkpt><trkpt lat="46.37029446987323" lon="13.135606373700238"><ele>259.0</ele><time>2026-05-03T13:46:23Z</time></trkpt><trkpt lat="46.37038802991358" lon="13.135614278252119"><ele>259.0</ele><time>2026-05-03T13:46:24Z</time></trkpt><trkpt lat="46.370502495732545" lon="13.135630996707498"><ele>259.0</ele><time>2026-05-03T13:46:25Z</time></trkpt><trkpt lat="46.3706194424423" lon="13.13563755179321"><ele>259.25</ele><time>2026-05-03T13:46:26Z</time></trkpt><trkpt lat="46.370740516972354" lon="13.135641057192336"><ele>259.5</ele><time>2026-05-03T13:46:27Z</time></trkpt><trkpt lat="46.3708652816515" lon="13.135643499973204"><ele>259.75</ele><time>2026-05-03T13:46:28Z</time></trkpt><trkpt lat="46.370995202304364" lon="13.13565233359285"><ele>260.0</ele><time>2026-05-03T13:46:29Z</time></trkpt><trkpt lat="46.37112919926042" lon="13.135657337348967"><ele>260.0</ele><time>2026-05-03T13:46:30Z</time></trkpt><trkpt lat="46.37126963698709" lon="13.135662725917964"><ele>260.0</ele><time>2026-05-03T13:46:31Z</time></trkpt><trkpt lat="46.371413365563626" lon="13.13566885592021"><ele>260.0</ele><time>2026-05-03T13:46:32Z</time></trkpt><trkpt lat="46.37155829643342" lon="13.135677076002056"><ele>260.0</ele><time>2026-05-03T13:46:33Z</time></trkpt><trkpt lat="46.371704620376896" lon="13.135687544687297"><ele>260.0</ele><time>2026-05-03T13:46:34Z</time></trkpt><trkpt lat="46.37185118077763" lon="13.13569593654761"><ele>260.0</ele><time>2026-05-03T13:46:35Z</time></trkpt><trkpt lat="46.37200293805408" lon="13.135711223033034"><ele>260.0</ele><time>2026-05-03T13:46:36Z</time></trkpt><trkpt lat="46.37216022195732" lon="13.135732959401713"><ele>263.0</ele><time>2026-05-03T13:46:37Z</time></trkpt><trkpt lat="46.37232053058394" lon="13.135759624930962"><ele>266.0</ele><time>2026-05-03T13:46:38Z</time></trkpt><trkpt lat="46.3724842872807" lon="13.13578547226182"><ele>269.0</ele><time>2026-05-03T13:46:39Z</time></trkpt><trkpt lat="46.372648772816284" lon="13.135812710950637"><ele>269.0</ele><time>2026-05-03T13:46:40Z</time></trkpt><trkpt lat="46.37280900079412" lon="13.135843965106886"><ele>269.0</ele><time>2026-05-03T13:46:41Z</time></trkpt><trkpt lat="46.37296505080638" lon="13.135876859980595"><ele>269.0</ele><time>2026-05-03T13:46:42Z</time></trkpt><trkpt lat="46.373116907312266" lon="13.135902858802346"><ele>266.75</ele><time>2026-05-03T13:46:43Z</time></trkpt><trkpt lat="46.373266050441316" lon="13.135940365621975"><ele>264.5</ele><time>2026-05-03T13:46:44Z</time></trkpt><trkpt lat="46.373412967663576" lon="13.135981658936014"><ele>262.25</ele><time>2026-05-03T13:46:45Z</time></trkpt><trkpt lat="46.373558477314816" lon="13.136023591962973"><ele>260.0</ele><time>2026-05-03T13:46:46Z</time></trkpt><trkpt lat="46.373704238942956" lon="13.136065656482153"><ele>260.0</ele><time>2026-05-03T13:46:47Z</time></trkpt><trkpt lat="46.37384347535027" lon="13.136110211080098"><ele>260.0</ele><time>2026-05-03T13:46:48Z</time></trkpt><trkpt lat="46.37397961050286" lon="13.13615637608374"><ele>260.0</ele><time>2026-05-03T13:46:49Z</time></trkpt><trkpt lat="46.3741144369735" lon="13.1362053505774"><ele>260.0</ele><time>2026-05-03T13:46:50Z</time></trkpt><trkpt lat="46.37424535423448" lon="13.136249044095532"><ele>260.0</ele><time>2026-05-03T13:46:51Z</time></trkpt><trkpt lat="46.37436879471233" lon="13.136298779631847"><ele>260.0</ele><time>2026-05-03T13:46:52Z</time></trkpt><trkpt lat="46.374499009765984" lon="13.136359544229904"><ele>260.0</ele><time>2026-05-03T13:46:53Z</time></trkpt><trkpt lat="46.37463594601882" lon="13.136423923102997"><ele>260.0</ele><time>2026-05-03T13:46:54Z</time></trkpt><trkpt lat="46.37477885642216" lon="13.136488361933017"><ele>260.0</ele><time>2026-05-03T13:46:55Z</time></trkpt><trkpt lat="46.374925099139226" lon="13.136551897173891"><ele>260.0</ele><time>2026-05-03T13:46:56Z</time></trkpt><trkpt lat="46.375072098424894" lon="13.136614658296176"><ele>260.0</ele><time>2026-05-03T13:46:57Z</time></trkpt><trkpt lat="46.375221365196495" lon="13.136680766179882"><ele>260.6666666666667</ele><time>2026-05-03T13:46:58Z</time></trkpt><trkpt lat="46.3753717110448" lon="13.13674620062096"><ele>261.3333333333333</ele><time>2026-05-03T13:46:59Z</time></trkpt><trkpt lat="46.37551703183233" lon="13.136817190809479"><ele>262.0</ele><time>2026-05-03T13:47:00Z</time></trkpt><trkpt lat="46.37565819550962" lon="13.136880495755502"><ele>262.0</ele><time>2026-05-03T13:47:01Z</time></trkpt><trkpt lat="46.37579771950466" lon="13.13694757328856"><ele>262.0</ele><time>2026-05-03T13:47:02Z</time></trkpt><trkpt lat="46.37593789995933" lon="13.136996710204137"><ele>262.0</ele><time>2026-05-03T13:47:03Z</time></trkpt><trkpt lat="46.37607155169473" lon="13.137028329646176"><ele>262.0</ele><time>2026-05-03T13:47:04Z</time></trkpt><trkpt lat="46.37621135382576" lon="13.137043849729018"><ele>262.0</ele><time>2026-05-03T13:47:05Z</time></trkpt><trkpt lat="46.376352734067666" lon="13.137040639494836"><ele>262.0</ele><time>2026-05-03T13:47:06Z</time></trkpt><trkpt lat="46.376493982410366" lon="13.137030506713634"><ele>262.0</ele><time>2026-05-03T13:47:07Z</time></trkpt><trkpt lat="46.37663751641157" lon="13.137002925989702"><ele>262.0</ele><time>2026-05-03T13:47:08Z</time></trkpt><trkpt lat="46.37677868124117" lon="13.136963895622927"><ele>263.0</ele><time>2026-05-03T13:47:09Z</time></trkpt><trkpt lat="46.37692111134857" lon="13.13689793972284"><ele>264.0</ele><time>2026-05-03T13:47:10Z</time></trkpt><trkpt lat="46.377061690703854" lon="13.136805599010703"><ele>265.0</ele><time>2026-05-03T13:47:11Z</time></trkpt><trkpt lat="46.377196502754636" lon="13.136700024563005"><ele>265.0</ele><time>2026-05-03T13:47:12Z</time></trkpt><trkpt lat="46.37731766017429" lon="13.136599195117546"><ele>265.0</ele><time>2026-05-03T13:47:13Z</time></trkpt><trkpt lat="46.377432062605735" lon="13.136492924489719"><ele>265.0</ele><time>2026-05-03T13:47:14Z</time></trkpt><trkpt lat="46.37754237775003" lon="13.136369497909913"><ele>265.0</ele><time>2026-05-03T13:47:15Z</time></trkpt><trkpt lat="46.37764917595525" lon="13.136234672348715"><ele>265.0</ele><time>2026-05-03T13:47:16Z</time></trkpt><trkpt lat="46.377753958347434" lon="13.136087953696878"><ele>265.0</ele><time>2026-05-03T13:47:17Z</time></trkpt><trkpt lat="46.377852659535435" lon="13.135934687943992"><ele>265.0</ele><time>2026-05-03T13:47:18Z</time></trkpt><trkpt lat="46.377943810722364" lon="13.135759981883151"><ele>265.0</ele><time>2026-05-03T13:47:19Z</time></trkpt><trkpt lat="46.37802778938" lon="13.135577866300153"><ele>265.3333333333333</ele><time>2026-05-03T13:47:20Z</time></trkpt><trkpt lat="46.37810180082779" lon="13.135384636673747"><ele>265.6666666666667</ele><time>2026-05-03T13:47:21Z</time></trkpt><trkpt lat="46.37817215466313" lon="13.135189284210533"><ele>266.0</ele><time>2026-05-03T13:47:22Z</time></trkpt><trkpt lat="46.378245303948354" lon="13.134994864577601"><ele>264.6666666666667</ele><time>2026-05-03T13:47:23Z</time></trkpt><trkpt lat="46.37832352790925" lon="13.134806213446684"><ele>263.3333333333333</ele><time>2026-05-03T13:47:24Z</time></trkpt><trkpt lat="46.37840431083939" lon="13.134618356376036"><ele>262.0</ele><time>2026-05-03T13:47:25Z</time></trkpt><trkpt lat="46.37848730075869" lon="13.134432953812308"><ele>262.0</ele><time>2026-05-03T13:47:26Z</time></trkpt><trkpt lat="46.3785838411304" lon="13.134253725344308"><ele>262.0</ele><time>2026-05-03T13:47:27Z</time></trkpt><trkpt lat="46.37868724392383" lon="13.134089649325091"><ele>262.0</ele><time>2026-05-03T13:47:28Z</time></trkpt><trkpt lat="46.378798727925314" lon="13.13393708931778"><ele>262.0</ele><time>2026-05-03T13:47:29Z</time></trkpt><trkpt lat="46.37891535470956" lon="13.13380036232131"><ele>262.0</ele><time>2026-05-03T13:47:30Z</time></trkpt><trkpt lat="46.37904213748446" lon="13.133679056221107"><ele>262.0</ele><time>2026-05-03T13:47:31Z</time></trkpt><trkpt lat="46.379170401030485" lon="13.133558304361802"><ele>262.0</ele><time>2026-05-03T13:47:32Z</time></trkpt><trkpt lat="46.37930684025284" lon="13.133450031125545"><ele>262.0</ele><time>2026-05-03T13:47:33Z</time></trkpt><trkpt lat="46.37944799957946" lon="13.133355430214742"><ele>262.0</ele><time>2026-05-03T13:47:34Z</time></trkpt><trkpt lat="46.379589639865216" lon="13.133261889515103"><ele>262.66666666666663</ele><time>2026-05-03T13:47:35Z</time></trkpt><trkpt lat="46.37973402180673" lon="13.13316158462949"><ele>263.3333333333333</ele><time>2026-05-03T13:47:36Z</time></trkpt><trkpt lat="46.37987736003464" lon="13.133056781321852"><ele>264.0</ele><time>2026-05-03T13:47:37Z</time></trkpt><trkpt lat="46.38001226790362" lon="13.132968082773434"><ele>264.0</ele><time>2026-05-03T13:47:38Z</time></trkpt><trkpt lat="46.380148092589266" lon="13.132904478402464"><ele>264.0</ele><time>2026-05-03T13:47:39Z</time></trkpt><trkpt lat="46.38029306957792" lon="13.132872965543532"><ele>264.0</ele><time>2026-05-03T13:47:40Z</time></trkpt><trkpt lat="46.38044765690654" lon="13.132860616270332"><ele>264.0</ele><time>2026-05-03T13:47:41Z</time></trkpt><trkpt lat="46.380610001125916" lon="13.132872309126007"><ele>264.3333333333333</ele><time>2026-05-03T13:47:42Z</time></trkpt><trkpt lat="46.380772244801435" lon="13.132913593756633"><ele>264.66666666666663</ele><time>2026-05-03T13:47:43Z</time></trkpt><trkpt lat="46.38093252999829" lon="13.132981427433633"><ele>265.0</ele><time>2026-05-03T13:47:44Z</time></trkpt><trkpt lat="46.381088127754474" lon="13.13307672279185"><ele>265.0</ele><time>2026-05-03T13:47:45Z</time></trkpt><trkpt lat="46.38123275297557" lon="13.133195719751106"><ele>265.0</ele><time>2026-05-03T13:47:46Z</time></trkpt><trkpt lat="46.381367778482655" lon="13.133330884693798"><ele>265.0</ele><time>2026-05-03T13:47:47Z</time></trkpt><trkpt lat="46.38149536762479" lon="13.133478234510376"><ele>264.0</ele><time>2026-05-03T13:47:48Z</time></trkpt><trkpt lat="46.38161307247673" lon="13.133632629598212"><ele>263.0</ele><time>2026-05-03T13:47:49Z</time></trkpt><trkpt lat="46.38172877835601" lon="13.133786977513816"><ele>262.0</ele><time>2026-05-03T13:47:50Z</time></trkpt><trkpt lat="46.381840977050146" lon="13.133935290910122"><ele>262.66666666666663</ele><time>2026-05-03T13:47:51Z</time></trkpt><trkpt lat="46.38195453063898" lon="13.134084316496429"><ele>263.3333333333333</ele><time>2026-05-03T13:47:52Z</time></trkpt><trkpt lat="46.38207009717833" lon="13.134230185379874"><ele>264.0</ele><time>2026-05-03T13:47:53Z</time></trkpt><trkpt lat="46.38218621128904" lon="13.1343815891968"><ele>264.0</ele><time>2026-05-03T13:47:54Z</time></trkpt><trkpt lat="46.382307745173314" lon="13.134540344579667"><ele>264.0</ele><time>2026-05-03T13:47:55Z</time></trkpt><trkpt lat="46.382427092089564" lon="13.134695837718457"><ele>264.0</ele><time>2026-05-03T13:47:56Z</time></trkpt><trkpt lat="46.38255027235184" lon="13.134853248232801"><ele>264.0</ele><time>2026-05-03T13:47:57Z</time></trkpt><trkpt lat="46.382669387240306" lon="13.135009832254854"><ele>264.0</ele><time>2026-05-03T13:47:58Z</time></trkpt><trkpt lat="46.38278421906289" lon="13.135166310260335"><ele>264.0</ele><time>2026-05-03T13:47:59Z</time></trkpt><trkpt lat="46.38289499873523" lon="13.135305245740044"><ele>264.0</ele><time>2026-05-03T13:48:00Z</time></trkpt><trkpt lat="46.382999738876755" lon="13.135440507806942"><ele>264.0</ele><time>2026-05-03T13:48:01Z</time></trkpt><trkpt lat="46.383092734462885" lon="13.135567440584904"><ele>264.0</ele><time>2026-05-03T13:48:02Z</time></trkpt><trkpt lat="46.383180964426536" lon="13.135668033274914"><ele>264.0</ele><time>2026-05-03T13:48:03Z</time></trkpt><trkpt lat="46.383251092523196" lon="13.135762420805817"><ele>264.57142857142856</ele><time>2026-05-03T13:48:04Z</time></trkpt><trkpt lat="46.383297334636545" lon="13.135838998303324"><ele>265.14285714285717</ele><time>2026-05-03T13:48:05Z</time></trkpt><trkpt lat="46.38332388999401" lon="13.135924503266514"><ele>265.7142857142857</ele><time>2026-05-03T13:48:06Z</time></trkpt><trkpt lat="46.38333499553791" lon="13.1360213200293"><ele>266.2857142857143</ele><time>2026-05-03T13:48:07Z</time></trkpt><trkpt lat="46.383343906606626" lon="13.136113418642472"><ele>266.85714285714283</ele><time>2026-05-03T13:48:08Z</time></trkpt><trkpt lat="46.38338529146843" lon="13.136262883779688"><ele>267.42857142857144</ele><time>2026-05-03T13:48:10Z</time></trkpt><trkpt lat="46.383435545171494" lon="13.136322701400925"><ele>268.0</ele><time>2026-05-03T13:48:12Z</time></trkpt><trkpt lat="46.3834523391395" lon="13.1361709330038"><ele>268.0</ele><time>2026-05-03T13:53:04Z</time></trkpt><trkpt lat="46.38343889951654" lon="13.136060118505625"><ele>268.0</ele><time>2026-05-03T13:53:07Z</time></trkpt><trkpt lat="46.38346162683205" lon="13.135967204073353"><ele>268.0</ele><time>2026-05-03T13:53:26Z</time></trkpt><trkpt lat="46.38341652838016" lon="13.1357884498633"><ele>268.0</ele><time>2026-05-03T13:53:28Z</time></trkpt><trkpt lat="46.38331928333944" lon="13.135671448652076"><ele>268.0</ele><time>2026-05-03T13:53:30Z</time></trkpt><trkpt lat="46.38326409455318" lon="13.135611454824362"><ele>267.3333333333333</ele><time>2026-05-03T13:53:31Z</time></trkpt><trkpt lat="46.38321301524742" lon="13.135547120165207"><ele>266.66666666666663</ele><time>2026-05-03T13:53:32Z</time></trkpt><trkpt lat="46.38316069293117" lon="13.135483813030028"><ele>266.0</ele><time>2026-05-03T13:53:33Z</time></trkpt><trkpt lat="46.38310090509895" lon="13.135415307160851"><ele>265.3333333333333</ele><time>2026-05-03T13:53:34Z</time></trkpt><trkpt lat="46.38304130235849" lon="13.135338851774671"><ele>264.6666666666667</ele><time>2026-05-03T13:53:35Z</time></trkpt><trkpt lat="46.38296855802526" lon="13.135253078574896"><ele>264.0</ele><time>2026-05-03T13:53:36Z</time></trkpt><trkpt lat="46.38289410361024" lon="13.13514757299368"><ele>264.0</ele><time>2026-05-03T13:53:37Z</time></trkpt><trkpt lat="46.38282254180567" lon="13.135052896534795"><ele>264.0</ele><time>2026-05-03T13:53:38Z</time></trkpt><trkpt lat="46.38274339415895" lon="13.13496878999258"><ele>264.0</ele><time>2026-05-03T13:53:39Z</time></trkpt><trkpt lat="46.382665556904676" lon="13.134890836860556"><ele>264.0</ele><time>2026-05-03T13:53:40Z</time></trkpt><trkpt lat="46.38260060851287" lon="13.134795526793193"><ele>264.0</ele><time>2026-05-03T13:53:41Z</time></trkpt><trkpt lat="46.38253281263592" lon="13.13470624620207"><ele>264.0</ele><time>2026-05-03T13:53:42Z</time></trkpt><trkpt lat="46.38246469849896" lon="13.134620537996653"><ele>264.0</ele><time>2026-05-03T13:53:43Z</time></trkpt><trkpt lat="46.38239641849871" lon="13.134531756752414"><ele>264.0</ele><time>2026-05-03T13:53:44Z</time></trkpt><trkpt lat="46.38232763515917" lon="13.134441435284304"><ele>264.0</ele><time>2026-05-03T13:53:45Z</time></trkpt><trkpt lat="46.38225690505031" lon="13.134349357862247"><ele>264.0</ele><time>2026-05-03T13:53:46Z</time></trkpt><trkpt lat="46.38218533108635" lon="13.134259683724826"><ele>264.0</ele><time>2026-05-03T13:53:47Z</time></trkpt><trkpt lat="46.38210800358992" lon="13.134159529534063"><ele>264.0</ele><time>2026-05-03T13:53:48Z</time></trkpt><trkpt lat="46.38202858444937" lon="13.134056703511733"><ele>264.0</ele><time>2026-05-03T13:53:49Z</time></trkpt><trkpt lat="46.381945483075576" lon="13.13395219969208"><ele>264.0</ele><time>2026-05-03T13:53:50Z</time></trkpt><trkpt lat="46.38185509597992" lon="13.133830714401933"><ele>264.0</ele><time>2026-05-03T13:53:51Z</time></trkpt><trkpt lat="46.381763348965116" lon="13.133708301876393"><ele>263.5</ele><time>2026-05-03T13:53:52Z</time></trkpt><trkpt lat="46.38166797765683" lon="13.133586278161788"><ele>263.0</ele><time>2026-05-03T13:53:53Z</time></trkpt><trkpt lat="46.38157488042554" lon="13.133459990585456"><ele>262.5</ele><time>2026-05-03T13:53:54Z</time></trkpt><trkpt lat="46.38148605159946" lon="13.133342384834851"><ele>262.0</ele><time>2026-05-03T13:53:55Z</time></trkpt><trkpt lat="46.381385465445994" lon="13.133236830321824"><ele>262.75</ele><time>2026-05-03T13:53:56Z</time></trkpt><trkpt lat="46.381278988196115" lon="13.133137550891245"><ele>263.5</ele><time>2026-05-03T13:53:57Z</time></trkpt><trkpt lat="46.381169682838994" lon="13.133047289288232"><ele>264.25</ele><time>2026-05-03T13:53:58Z</time></trkpt><trkpt lat="46.38105253394813" lon="13.132970801321102"><ele>265.0</ele><time>2026-05-03T13:53:59Z</time></trkpt><trkpt lat="46.38092876338977" lon="13.13290198120084"><ele>265.0</ele><time>2026-05-03T13:54:00Z</time></trkpt><trkpt lat="46.380803142703286" lon="13.132847227096452"><ele>265.0</ele><time>2026-05-03T13:54:01Z</time></trkpt><trkpt lat="46.380673593284456" lon="13.132807618769506"><ele>265.0</ele><time>2026-05-03T13:54:02Z</time></trkpt><trkpt lat="46.38053990481567" lon="13.132785503464783"><ele>265.0</ele><time>2026-05-03T13:54:03Z</time></trkpt><trkpt lat="46.380405584775666" lon="13.132781223166372"><ele>264.75</ele><time>2026-05-03T13:54:04Z</time></trkpt><trkpt lat="46.38026974253914" lon="13.132786066534377"><ele>264.5</ele><time>2026-05-03T13:54:05Z</time></trkpt><trkpt lat="46.3801375210467" lon="13.132817260734592"><ele>264.25</ele><time>2026-05-03T13:54:06Z</time></trkpt><trkpt lat="46.3800120299381" lon="13.132873745410459"><ele>264.0</ele><time>2026-05-03T13:54:07Z</time></trkpt><trkpt lat="46.37988695522213" lon="13.13293721658322"><ele>264.0</ele><time>2026-05-03T13:54:08Z</time></trkpt><trkpt lat="46.37976253184093" lon="13.13301728399577"><ele>264.0</ele><time>2026-05-03T13:54:09Z</time></trkpt><trkpt lat="46.37964688425761" lon="13.133117286658926"><ele>264.0</ele><time>2026-05-03T13:54:10Z</time></trkpt><trkpt lat="46.379530348026954" lon="13.13321758342079"><ele>264.0</ele><time>2026-05-03T13:54:11Z</time></trkpt><trkpt lat="46.379406517474095" lon="13.133309359633007"><ele>263.5</ele><time>2026-05-03T13:54:12Z</time></trkpt><trkpt lat="46.37928388702088" lon="13.13340309853515"><ele>263.0</ele><time>2026-05-03T13:54:13Z</time></trkpt><trkpt lat="46.37916167412401" lon="13.13349321084067"><ele>262.5</ele><time>2026-05-03T13:54:14Z</time></trkpt><trkpt lat="46.379044113644234" lon="13.133582814441613"><ele>262.0</ele><time>2026-05-03T13:54:15Z</time></trkpt><trkpt lat="46.37893850765681" lon="13.13368775580372"><ele>262.0</ele><time>2026-05-03T13:54:16Z</time></trkpt><trkpt lat="46.37884238342952" lon="13.133810907016938"><ele>262.0</ele><time>2026-05-03T13:54:17Z</time></trkpt><trkpt lat="46.37874143451185" lon="13.13394492372848"><ele>262.0</ele><time>2026-05-03T13:54:18Z</time></trkpt><trkpt lat="46.37864072618035" lon="13.134088922181633"><ele>262.0</ele><time>2026-05-03T13:54:19Z</time></trkpt><trkpt lat="46.37853595751835" lon="13.13424148689092"><ele>262.0</ele><time>2026-05-03T13:54:20Z</time></trkpt><trkpt lat="46.37843595247761" lon="13.134396743746924"><ele>262.0</ele><time>2026-05-03T13:54:21Z</time></trkpt><trkpt lat="46.37834957983742" lon="13.134572867888014"><ele>262.0</ele><time>2026-05-03T13:54:22Z</time></trkpt><trkpt lat="46.37827051308556" lon="13.134753859493983"><ele>262.0</ele><time>2026-05-03T13:54:23Z</time></trkpt><trkpt lat="46.37819736368358" lon="13.134930341744179"><ele>262.0</ele><time>2026-05-03T13:54:24Z</time></trkpt><trkpt lat="46.37812784785975" lon="13.135115089205307"><ele>262.0</ele><time>2026-05-03T13:54:25Z</time></trkpt><trkpt lat="46.378057382150985" lon="13.135298670011343"><ele>262.0</ele><time>2026-05-03T13:54:26Z</time></trkpt><trkpt lat="46.37798883312371" lon="13.135469903220011"><ele>262.0</ele><time>2026-05-03T13:54:27Z</time></trkpt><trkpt lat="46.37792034829086" lon="13.135636184825328"><ele>262.75</ele><time>2026-05-03T13:54:28Z</time></trkpt><trkpt lat="46.377840373615946" lon="13.135802581079911"><ele>263.5</ele><time>2026-05-03T13:54:29Z</time></trkpt><trkpt lat="46.37774692350269" lon="13.135960176896333"><ele>264.25</ele><time>2026-05-03T13:54:30Z</time></trkpt><trkpt lat="46.377638144437164" lon="13.136118045295119"><ele>265.0</ele><time>2026-05-03T13:54:31Z</time></trkpt><trkpt lat="46.37752937077943" lon="13.136267759569"><ele>265.0</ele><time>2026-05-03T13:54:32Z</time></trkpt><trkpt lat="46.37740756978239" lon="13.136401400642342"><ele>265.0</ele><time>2026-05-03T13:54:33Z</time></trkpt><trkpt lat="46.37728045083583" lon="13.136523542938468"><ele>265.0</ele><time>2026-05-03T13:54:34Z</time></trkpt><trkpt lat="46.37714756192514" lon="13.136638757089383"><ele>265.0</ele><time>2026-05-03T13:54:35Z</time></trkpt><trkpt lat="46.377011682303156" lon="13.136743515608469"><ele>265.0</ele><time>2026-05-03T13:54:36Z</time></trkpt><trkpt lat="46.376868577524526" lon="13.136834115927597"><ele>265.0</ele><time>2026-05-03T13:54:37Z</time></trkpt><trkpt lat="46.37673058911371" lon="13.136904660579793"><ele>265.0</ele><time>2026-05-03T13:54:38Z</time></trkpt><trkpt lat="46.37658766457798" lon="13.136957846189574"><ele>265.0</ele><time>2026-05-03T13:54:39Z</time></trkpt><trkpt lat="46.376441539123505" lon="13.136986740067805"><ele>265.0</ele><time>2026-05-03T13:54:40Z</time></trkpt><trkpt lat="46.37629256102142" lon="13.136986442128645"><ele>265.0</ele><time>2026-05-03T13:54:41Z</time></trkpt><trkpt lat="46.37614652030462" lon="13.136972125257229"><ele>264.0</ele><time>2026-05-03T13:54:42Z</time></trkpt><trkpt lat="46.37599946735042" lon="13.136943983512166"><ele>263.0</ele><time>2026-05-03T13:54:43Z</time></trkpt><trkpt lat="46.37584896755774" lon="13.136898585589693"><ele>262.0</ele><time>2026-05-03T13:54:44Z</time></trkpt><trkpt lat="46.37570086739878" lon="13.136842826388946"><ele>262.0</ele><time>2026-05-03T13:54:45Z</time></trkpt><trkpt lat="46.37555337227765" lon="13.136768825829762"><ele>262.0</ele><time>2026-05-03T13:54:46Z</time></trkpt><trkpt lat="46.37540676597178" lon="13.136692594126291"><ele>262.0</ele><time>2026-05-03T13:54:47Z</time></trkpt><trkpt lat="46.3752584306999" lon="13.136620926965966"><ele>261.5</ele><time>2026-05-03T13:54:48Z</time></trkpt><trkpt lat="46.375114938227654" lon="13.13655188115857"><ele>261.0</ele><time>2026-05-03T13:54:49Z</time></trkpt><trkpt lat="46.374972566609365" lon="13.136484425454874"><ele>260.5</ele><time>2026-05-03T13:54:50Z</time></trkpt><trkpt lat="46.374831322800205" lon="13.13641894779793"><ele>260.0</ele><time>2026-05-03T13:54:51Z</time></trkpt><trkpt lat="46.374687118229126" lon="13.136355379077086"><ele>259.33333333333337</ele><time>2026-05-03T13:54:52Z</time></trkpt><trkpt lat="46.374541121596735" lon="13.136301137598236"><ele>258.6666666666667</ele><time>2026-05-03T13:54:53Z</time></trkpt><trkpt lat="46.37439410090635" lon="13.136243267343458"><ele>258.0</ele><time>2026-05-03T13:54:54Z</time></trkpt><trkpt lat="46.37424453586272" lon="13.136183950330702"><ele>258.0</ele><time>2026-05-03T13:54:55Z</time></trkpt><trkpt lat="46.37409451258582" lon="13.13613257022079"><ele>258.0</ele><time>2026-05-03T13:54:56Z</time></trkpt><trkpt lat="46.37394158564262" lon="13.136076849999778"><ele>258.0</ele><time>2026-05-03T13:54:57Z</time></trkpt><trkpt lat="46.37378970543513" lon="13.136020965373678"><ele>258.6666666666667</ele><time>2026-05-03T13:54:58Z</time></trkpt><trkpt lat="46.37364168169693" lon="13.135977178967554"><ele>259.33333333333337</ele><time>2026-05-03T13:54:59Z</time></trkpt><trkpt lat="46.37349230904634" lon="13.135932662740911"><ele>260.0</ele><time>2026-05-03T13:55:00Z</time></trkpt><trkpt lat="46.373343989325896" lon="13.135892158078123"><ele>260.0</ele><time>2026-05-03T13:55:01Z</time></trkpt><trkpt lat="46.37319864500602" lon="13.13585477061774"><ele>260.0</ele><time>2026-05-03T13:55:02Z</time></trkpt><trkpt lat="46.37305589155365" lon="13.135821045017742"><ele>260.0</ele><time>2026-05-03T13:55:03Z</time></trkpt><trkpt lat="46.37291280059643" lon="13.135794488806086"><ele>260.0</ele><time>2026-05-03T13:55:04Z</time></trkpt><trkpt lat="46.372795660902526" lon="13.135577239813209"><ele>258.75</ele><time>2026-05-03T13:55:05Z</time></trkpt><trkpt lat="46.3726598322304" lon="13.135546102084083"><ele>257.5</ele><time>2026-05-03T13:55:06Z</time></trkpt><trkpt lat="46.37252176699479" lon="13.135524385497883"><ele>256.25</ele><time>2026-05-03T13:55:07Z</time></trkpt><trkpt lat="46.372391953061516" lon="13.135490165375385"><ele>255.0</ele><time>2026-05-03T13:55:08Z</time></trkpt><trkpt lat="46.37227024280549" lon="13.135440492170197"><ele>256.25</ele><time>2026-05-03T13:55:09Z</time></trkpt><trkpt lat="46.37216226381184" lon="13.1353776576603"><ele>257.5</ele><time>2026-05-03T13:55:10Z</time></trkpt><trkpt lat="46.372044234285106" lon="13.135306358961554"><ele>258.75</ele><time>2026-05-03T13:55:11Z</time></trkpt><trkpt lat="46.371936025911914" lon="13.13523273335622"><ele>260.0</ele><time>2026-05-03T13:55:12Z</time></trkpt><trkpt lat="46.37183050893513" lon="13.135155964290032"><ele>260.0</ele><time>2026-05-03T13:55:13Z</time></trkpt><trkpt lat="46.37172912590624" lon="13.135074387813603"><ele>260.0</ele><time>2026-05-03T13:55:14Z</time></trkpt><trkpt lat="46.37161300037231" lon="13.134993414550006"><ele>260.0</ele><time>2026-05-03T13:55:15Z</time></trkpt><trkpt lat="46.371497063491596" lon="13.134926759034418"><ele>260.0</ele><time>2026-05-03T13:55:16Z</time></trkpt><trkpt lat="46.37137517054526" lon="13.134861115274632"><ele>260.0</ele><time>2026-05-03T13:55:17Z</time></trkpt><trkpt lat="46.37130513468998" lon="13.134812388985841"><ele>260.0</ele><time>2026-05-03T13:55:18Z</time></trkpt><trkpt lat="46.37081917512905" lon="13.135565592123292"><ele>260.0</ele><time>2026-05-03T13:55:19Z</time></trkpt><trkpt lat="46.37067071624381" lon="13.135560410428262"><ele>260.0</ele><time>2026-05-03T13:55:20Z</time></trkpt><trkpt lat="46.370519462508376" lon="13.135554095408567"><ele>260.0</ele><time>2026-05-03T13:55:21Z</time></trkpt><trkpt lat="46.37036808787453" lon="13.135550946710838"><ele>259.6666666666667</ele><time>2026-05-03T13:55:22Z</time></trkpt><trkpt lat="46.37021622085097" lon="13.135546342667283"><ele>259.3333333333333</ele><time>2026-05-03T13:55:23Z</time></trkpt><trkpt lat="46.370063087921714" lon="13.135541271391933"><ele>259.0</ele><time>2026-05-03T13:55:24Z</time></trkpt><trkpt lat="46.36991111439386" lon="13.135536032183223"><ele>259.0</ele><time>2026-05-03T13:55:25Z</time></trkpt><trkpt lat="46.36975607291885" lon="13.135528795421202"><ele>259.0</ele><time>2026-05-03T13:55:26Z</time></trkpt><trkpt lat="46.369602815583505" lon="13.135298621925944"><ele>259.0</ele><time>2026-05-03T13:55:27Z</time></trkpt><trkpt lat="46.36944711673183" lon="13.135266503116117"><ele>257.3333333333333</ele><time>2026-05-03T13:55:28Z</time></trkpt><trkpt lat="46.369278186234745" lon="13.135222095579241"><ele>255.66666666666669</ele><time>2026-05-03T13:55:29Z</time></trkpt><trkpt lat="46.36911468891576" lon="13.135199065772778"><ele>254.0</ele><time>2026-05-03T13:55:30Z</time></trkpt><trkpt lat="46.368952011435056" lon="13.135172280881115"><ele>253.66666666666669</ele><time>2026-05-03T13:55:31Z</time></trkpt><trkpt lat="46.36878902852995" lon="13.135140914851668"><ele>253.33333333333331</ele><time>2026-05-03T13:55:32Z</time></trkpt><trkpt lat="46.36865205389038" lon="13.135100580971475"><ele>253.0</ele><time>2026-05-03T13:55:33Z</time></trkpt><trkpt lat="46.368276020530516" lon="13.135442790293512"><ele>253.0</ele><time>2026-05-03T13:55:35Z</time></trkpt><trkpt lat="46.36812478025071" lon="13.135282646184871"><ele>253.0</ele><time>2026-05-03T13:55:36Z</time></trkpt><trkpt lat="46.36796437268277" lon="13.135146524433873"><ele>253.0</ele><time>2026-05-03T13:55:37Z</time></trkpt><trkpt lat="46.367821244436556" lon="13.135133927039286"><ele>254.66666666666666</ele><time>2026-05-03T13:55:38Z</time></trkpt><trkpt lat="46.367668500384575" lon="13.13507371383232"><ele>256.3333333333333</ele><time>2026-05-03T13:55:39Z</time></trkpt><trkpt lat="46.367527074161195" lon="13.135023606781111"><ele>258.0</ele><time>2026-05-03T13:55:40Z</time></trkpt><trkpt lat="46.36738278888988" lon="13.134968826359206"><ele>258.0</ele><time>2026-05-03T13:55:41Z</time></trkpt><trkpt lat="46.36723891169139" lon="13.134912911494661"><ele>258.0</ele><time>2026-05-03T13:55:42Z</time></trkpt><trkpt lat="46.3670964665734" lon="13.134857548712873"><ele>258.0</ele><time>2026-05-03T13:55:43Z</time></trkpt><trkpt lat="46.366953262215276" lon="13.134801881215008"><ele>258.0</ele><time>2026-05-03T13:55:44Z</time></trkpt><trkpt lat="46.366816899977835" lon="13.134755842935212"><ele>256.0</ele><time>2026-05-03T13:55:45Z</time></trkpt><trkpt lat="46.36668123858589" lon="13.134706969750995"><ele>254.0</ele><time>2026-05-03T13:55:46Z</time></trkpt><trkpt lat="46.3665450891068" lon="13.13465973343618"><ele>252.0</ele><time>2026-05-03T13:55:47Z</time></trkpt><trkpt lat="46.366419131136986" lon="13.134627995744678"><ele>250.0</ele><time>2026-05-03T13:55:48Z</time></trkpt><trkpt lat="46.36629386209383" lon="13.134608273290809"><ele>249.75</ele><time>2026-05-03T13:55:49Z</time></trkpt><trkpt lat="46.366165120687526" lon="13.134594673992595"><ele>249.5</ele><time>2026-05-03T13:55:50Z</time></trkpt><trkpt lat="46.36603475090426" lon="13.134596266085731"><ele>249.25</ele><time>2026-05-03T13:55:51Z</time></trkpt><trkpt lat="46.36590184637237" lon="13.134609044102255"><ele>249.0</ele><time>2026-05-03T13:55:52Z</time></trkpt><trkpt lat="46.36576838384669" lon="13.134624705019528"><ele>249.0</ele><time>2026-05-03T13:55:53Z</time></trkpt><trkpt lat="46.36563482996739" lon="13.134659929069482"><ele>249.0</ele><time>2026-05-03T13:55:54Z</time></trkpt><trkpt lat="46.365500236390595" lon="13.134697566861025"><ele>249.0</ele><time>2026-05-03T13:55:55Z</time></trkpt><trkpt lat="46.36536454586009" lon="13.134749301955752"><ele>249.0</ele><time>2026-05-03T13:55:56Z</time></trkpt><trkpt lat="46.36522881921548" lon="13.134802835916226"><ele>249.0</ele><time>2026-05-03T13:55:57Z</time></trkpt><trkpt lat="46.36508926396623" lon="13.134853504814211"><ele>249.0</ele><time>2026-05-03T13:55:58Z</time></trkpt><trkpt lat="46.36494866079056" lon="13.134907067324848"><ele>249.0</ele><time>2026-05-03T13:55:59Z</time></trkpt><trkpt lat="46.36480154597639" lon="13.134961857184855"><ele>249.0</ele><time>2026-05-03T13:56:00Z</time></trkpt><trkpt lat="46.36465312871135" lon="13.135016232908631"><ele>249.0</ele><time>2026-05-03T13:56:01Z</time></trkpt><trkpt lat="46.36450439511706" lon="13.13506900218685"><ele>249.0</ele><time>2026-05-03T13:56:02Z</time></trkpt><trkpt lat="46.36435828063516" lon="13.135121129251395"><ele>249.0</ele><time>2026-05-03T13:56:03Z</time></trkpt><trkpt lat="46.364211916798695" lon="13.135175001455124"><ele>249.0</ele><time>2026-05-03T13:56:04Z</time></trkpt><trkpt lat="46.364066334948625" lon="13.135228930599645"><ele>249.0</ele><time>2026-05-03T13:56:05Z</time></trkpt><trkpt lat="46.363921731501456" lon="13.135282119286792"><ele>249.0</ele><time>2026-05-03T13:56:06Z</time></trkpt><trkpt lat="46.36377871732976" lon="13.135327936840296"><ele>249.0</ele><time>2026-05-03T13:56:07Z</time></trkpt><trkpt lat="46.363635433407374" lon="13.135381155040593"><ele>247.75</ele><time>2026-05-03T13:56:08Z</time></trkpt><trkpt lat="46.36349516465922" lon="13.135433863447478"><ele>246.5</ele><time>2026-05-03T13:56:09.001Z</time></trkpt><trkpt lat="46.36335622618837" lon="13.135486258428998"><ele>245.25</ele><time>2026-05-03T13:56:10.001Z</time></trkpt><trkpt lat="46.36321683607258" lon="13.135538546253544"><ele>244.0</ele><time>2026-05-03T13:56:11Z</time></trkpt><trkpt lat="46.36308000526288" lon="13.135584912956148"><ele>244.25</ele><time>2026-05-03T13:56:12Z</time></trkpt><trkpt lat="46.36294192984558" lon="13.135633466177614"><ele>244.5</ele><time>2026-05-03T13:56:13Z</time></trkpt><trkpt lat="46.3628024884021" lon="13.135681849150902"><ele>244.75</ele><time>2026-05-03T13:56:14Z</time></trkpt><trkpt lat="46.362661273596295" lon="13.135735367733743"><ele>245.0</ele><time>2026-05-03T13:56:15Z</time></trkpt><trkpt lat="46.36251827820853" lon="13.135787385884202"><ele>245.25</ele><time>2026-05-03T13:56:16Z</time></trkpt><trkpt lat="46.362375646719805" lon="13.135842798359436"><ele>245.5</ele><time>2026-05-03T13:56:17Z</time></trkpt><trkpt lat="46.36222862553843" lon="13.135891346452452"><ele>245.75</ele><time>2026-05-03T13:56:18Z</time></trkpt><trkpt lat="46.36208503631965" lon="13.135944427022949"><ele>246.0</ele><time>2026-05-03T13:56:19Z</time></trkpt><trkpt lat="46.36193887372423" lon="13.135995596844932"><ele>245.0</ele><time>2026-05-03T13:56:20Z</time></trkpt><trkpt lat="46.361791703161764" lon="13.13604867804095"><ele>244.0</ele><time>2026-05-03T13:56:21Z</time></trkpt><trkpt lat="46.36164348847927" lon="13.13610450170589"><ele>243.0</ele><time>2026-05-03T13:56:22Z</time></trkpt><trkpt lat="46.36149855260301" lon="13.136158218325452"><ele>242.75</ele><time>2026-05-03T13:56:23Z</time></trkpt><trkpt lat="46.361351148487095" lon="13.13620816787685"><ele>242.5</ele><time>2026-05-03T13:56:24Z</time></trkpt><trkpt lat="46.361206168881324" lon="13.136258607657137"><ele>242.25</ele><time>2026-05-03T13:56:25Z</time></trkpt><trkpt lat="46.361062975161346" lon="13.13630789217312"><ele>242.0</ele><time>2026-05-03T13:56:26Z</time></trkpt><trkpt lat="46.36092033869357" lon="13.13636354115992"><ele>242.0</ele><time>2026-05-03T13:56:27Z</time></trkpt><trkpt lat="46.3607745596383" lon="13.13641700073137"><ele>242.0</ele><time>2026-05-03T13:56:28Z</time></trkpt><trkpt lat="46.36063128697225" lon="13.136469705495383"><ele>242.0</ele><time>2026-05-03T13:56:29Z</time></trkpt><trkpt lat="46.36048286413537" lon="13.136514834344014"><ele>242.25</ele><time>2026-05-03T13:56:30Z</time></trkpt><trkpt lat="46.360335540167945" lon="13.136566445000064"><ele>242.5</ele><time>2026-05-03T13:56:31Z</time></trkpt><trkpt lat="46.36019129058807" lon="13.136616806811118"><ele>242.75</ele><time>2026-05-03T13:56:32Z</time></trkpt><trkpt lat="46.36004897007925" lon="13.136668740149913"><ele>243.0</ele><time>2026-05-03T13:56:33Z</time></trkpt><trkpt lat="46.35990787563246" lon="13.13671931157619"><ele>243.0</ele><time>2026-05-03T13:56:34Z</time></trkpt><trkpt lat="46.35977075832566" lon="13.136771495339262"><ele>243.0</ele><time>2026-05-03T13:56:35Z</time></trkpt><trkpt lat="46.35963461601268" lon="13.13682219519246"><ele>243.0</ele><time>2026-05-03T13:56:36Z</time></trkpt><trkpt lat="46.35949534016349" lon="13.136880297439928"><ele>243.0</ele><time>2026-05-03T13:56:37Z</time></trkpt><trkpt lat="46.35935417435224" lon="13.136935229242182"><ele>242.75</ele><time>2026-05-03T13:56:38Z</time></trkpt><trkpt lat="46.359217729748536" lon="13.136993080058119"><ele>242.5</ele><time>2026-05-03T13:56:39Z</time></trkpt><trkpt lat="46.359079013218874" lon="13.137051540417673"><ele>242.25</ele><time>2026-05-03T13:56:40Z</time></trkpt><trkpt lat="46.35893718403879" lon="13.137107522932203"><ele>242.0</ele><time>2026-05-03T13:56:41Z</time></trkpt><trkpt lat="46.358795371696004" lon="13.137166404110879"><ele>242.0</ele><time>2026-05-03T13:56:42Z</time></trkpt><trkpt lat="46.35864861106813" lon="13.137232151396214"><ele>242.0</ele><time>2026-05-03T13:56:43Z</time></trkpt><trkpt lat="46.35850129146687" lon="13.13730277898699"><ele>242.0</ele><time>2026-05-03T13:56:44Z</time></trkpt><trkpt lat="46.35835447749594" lon="13.13737580055318"><ele>241.0</ele><time>2026-05-03T13:56:45Z</time></trkpt><trkpt lat="46.35820155428826" lon="13.137449995166593"><ele>240.0</ele><time>2026-05-03T13:56:46Z</time></trkpt><trkpt lat="46.35805156216518" lon="13.137518939319932"><ele>239.0</ele><time>2026-05-03T13:56:47Z</time></trkpt><trkpt lat="46.35790090631772" lon="13.137587505943326"><ele>239.0</ele><time>2026-05-03T13:56:48Z</time></trkpt><trkpt lat="46.35775304985642" lon="13.137656696770946"><ele>239.0</ele><time>2026-05-03T13:56:49Z</time></trkpt><trkpt lat="46.35760259512367" lon="13.137728136839918"><ele>239.0</ele><time>2026-05-03T13:56:50Z</time></trkpt><trkpt lat="46.35745480717558" lon="13.137796633290229"><ele>239.0</ele><time>2026-05-03T13:56:51Z</time></trkpt><trkpt lat="46.35730643705028" lon="13.137866043629817"><ele>239.0</ele><time>2026-05-03T13:56:52Z</time></trkpt><trkpt lat="46.357158343552086" lon="13.137934921520593"><ele>239.0</ele><time>2026-05-03T13:56:53Z</time></trkpt><trkpt lat="46.35701098837278" lon="13.138005124415756"><ele>239.0</ele><time>2026-05-03T13:56:54Z</time></trkpt><trkpt lat="46.35686555660757" lon="13.138077516093324"><ele>239.0</ele><time>2026-05-03T13:56:55Z</time></trkpt><trkpt lat="46.356724709499225" lon="13.138147356747224"><ele>239.0</ele><time>2026-05-03T13:56:56Z</time></trkpt><trkpt lat="46.356580995963775" lon="13.138216901672505"><ele>239.66666666666669</ele><time>2026-05-03T13:56:57Z</time></trkpt><trkpt lat="46.35643930430259" lon="13.138288533790925"><ele>240.33333333333331</ele><time>2026-05-03T13:56:58Z</time></trkpt><trkpt lat="46.356297582013795" lon="13.138357401079489"><ele>241.0</ele><time>2026-05-03T13:56:59Z</time></trkpt><trkpt lat="46.356153639980036" lon="13.138420919813163"><ele>241.25</ele><time>2026-05-03T13:57:00Z</time></trkpt><trkpt lat="46.356014675043674" lon="13.138490389991297"><ele>241.5</ele><time>2026-05-03T13:57:01Z</time></trkpt><trkpt lat="46.35587887742351" lon="13.138559715118992"><ele>241.75</ele><time>2026-05-03T13:57:02Z</time></trkpt><trkpt lat="46.35574496075017" lon="13.138623556139585"><ele>242.0</ele><time>2026-05-03T13:57:03Z</time></trkpt><trkpt lat="46.35561017297252" lon="13.138685433780335"><ele>242.25</ele><time>2026-05-03T13:57:04Z</time></trkpt><trkpt lat="46.35547871537641" lon="13.138745347524264"><ele>242.5</ele><time>2026-05-03T13:57:05Z</time></trkpt><trkpt lat="46.35534434188091" lon="13.138810117377977"><ele>242.75</ele><time>2026-05-03T13:57:06Z</time></trkpt><trkpt lat="46.35520704319105" lon="13.138876537885746"><ele>243.0</ele><time>2026-05-03T13:57:07Z</time></trkpt><trkpt lat="46.355066237785664" lon="13.138941401304958"><ele>243.0</ele><time>2026-05-03T13:57:08Z</time></trkpt><trkpt lat="46.35492666829659" lon="13.139005757108345"><ele>243.0</ele><time>2026-05-03T13:57:09Z</time></trkpt><trkpt lat="46.354791588333704" lon="13.139079822261051"><ele>243.0</ele><time>2026-05-03T13:57:10Z</time></trkpt><trkpt lat="46.354655722869616" lon="13.13916009043825"><ele>243.0</ele><time>2026-05-03T13:57:11Z</time></trkpt><trkpt lat="46.354523741019236" lon="13.139246081605014"><ele>243.25</ele><time>2026-05-03T13:57:12Z</time></trkpt><trkpt lat="46.35439059560315" lon="13.13933231276275"><ele>243.5</ele><time>2026-05-03T13:57:13Z</time></trkpt><trkpt lat="46.35425805723283" lon="13.139420239537284"><ele>243.75</ele><time>2026-05-03T13:57:14Z</time></trkpt><trkpt lat="46.35412653047823" lon="13.139509208397628"><ele>244.0</ele><time>2026-05-03T13:57:15Z</time></trkpt><trkpt lat="46.353993939495226" lon="13.139590803606463"><ele>244.0</ele><time>2026-05-03T13:57:16Z</time></trkpt><trkpt lat="46.35386372886993" lon="13.13967386747572"><ele>244.0</ele><time>2026-05-03T13:57:17Z</time></trkpt><trkpt lat="46.35372989023396" lon="13.139758998197367"><ele>244.0</ele><time>2026-05-03T13:57:18Z</time></trkpt><trkpt lat="46.35359864492071" lon="13.139846268378486"><ele>244.0</ele><time>2026-05-03T13:57:19Z</time></trkpt><trkpt lat="46.353465848370476" lon="13.139934297599206"><ele>244.75</ele><time>2026-05-03T13:57:20Z</time></trkpt><trkpt lat="46.353333224099266" lon="13.1400238970412"><ele>245.5</ele><time>2026-05-03T13:57:21Z</time></trkpt><trkpt lat="46.35319696051606" lon="13.140109727032407"><ele>246.25</ele><time>2026-05-03T13:57:22Z</time></trkpt><trkpt lat="46.35306323366901" lon="13.14019398934899"><ele>247.0</ele><time>2026-05-03T13:57:23Z</time></trkpt><trkpt lat="46.35293097215174" lon="13.140281478295552"><ele>247.0</ele><time>2026-05-03T13:57:24Z</time></trkpt><trkpt lat="46.35279996289414" lon="13.140360865064444"><ele>247.0</ele><time>2026-05-03T13:57:25Z</time></trkpt><trkpt lat="46.352672690661095" lon="13.140443912188188"><ele>247.0</ele><time>2026-05-03T13:57:26Z</time></trkpt><trkpt lat="46.352541293490475" lon="13.14053030936796"><ele>247.0</ele><time>2026-05-03T13:57:27Z</time></trkpt><trkpt lat="46.352412199547345" lon="13.140619625441452"><ele>247.0</ele><time>2026-05-03T13:57:28Z</time></trkpt><trkpt lat="46.35227551338822" lon="13.140709249852414"><ele>247.0</ele><time>2026-05-03T13:57:29Z</time></trkpt><trkpt lat="46.35213926838293" lon="13.140802493751533"><ele>247.0</ele><time>2026-05-03T13:57:30Z</time></trkpt><trkpt lat="46.35200596231894" lon="13.140892651801181"><ele>247.0</ele><time>2026-05-03T13:57:31Z</time></trkpt><trkpt lat="46.35186891284045" lon="13.140982848656387"><ele>247.5</ele><time>2026-05-03T13:57:32Z</time></trkpt><trkpt lat="46.351734679573006" lon="13.141073361009157"><ele>248.0</ele><time>2026-05-03T13:57:33Z</time></trkpt><trkpt lat="46.35159829380645" lon="13.141170647723909"><ele>248.5</ele><time>2026-05-03T13:57:34Z</time></trkpt><trkpt lat="46.351463501836335" lon="13.14126125741346"><ele>249.0</ele><time>2026-05-03T13:57:35Z</time></trkpt><trkpt lat="46.351327540775216" lon="13.141351440454368"><ele>249.5</ele><time>2026-05-03T13:57:36Z</time></trkpt><trkpt lat="46.35118905406226" lon="13.14143654644168"><ele>250.0</ele><time>2026-05-03T13:57:37Z</time></trkpt><trkpt lat="46.35105524514045" lon="13.141520018434099"><ele>250.5</ele><time>2026-05-03T13:57:38Z</time></trkpt><trkpt lat="46.35091663687187" lon="13.141601702994523"><ele>251.0</ele><time>2026-05-03T13:57:39Z</time></trkpt><trkpt lat="46.35077799151611" lon="13.141680854816041"><ele>251.0</ele><time>2026-05-03T13:57:40Z</time></trkpt><trkpt lat="46.35063749914873" lon="13.14175191273908"><ele>251.0</ele><time>2026-05-03T13:57:41Z</time></trkpt><trkpt lat="46.3504927611745" lon="13.141818313267969"><ele>251.0</ele><time>2026-05-03T13:57:42Z</time></trkpt><trkpt lat="46.35034776267672" lon="13.141881821352692"><ele>249.33333333333334</ele><time>2026-05-03T13:57:43Z</time></trkpt><trkpt lat="46.35019949702119" lon="13.141950022910756"><ele>247.66666666666669</ele><time>2026-05-03T13:57:44Z</time></trkpt><trkpt lat="46.350052883975586" lon="13.14201772409518"><ele>246.0</ele><time>2026-05-03T13:57:45Z</time></trkpt><trkpt lat="46.34990674115273" lon="13.142090607304354"><ele>246.0</ele><time>2026-05-03T13:57:46Z</time></trkpt><trkpt lat="46.34976040257696" lon="13.14216736030053"><ele>246.0</ele><time>2026-05-03T13:57:47Z</time></trkpt><trkpt lat="46.34961266417233" lon="13.142235680530057"><ele>246.0</ele><time>2026-05-03T13:57:48Z</time></trkpt><trkpt lat="46.34945800137997" lon="13.142300509428994"><ele>245.66666666666669</ele><time>2026-05-03T13:57:49Z</time></trkpt><trkpt lat="46.3493033088227" lon="13.14236087407498"><ele>245.33333333333334</ele><time>2026-05-03T13:57:50Z</time></trkpt><trkpt lat="46.34914475759558" lon="13.142390379556746"><ele>245.0</ele><time>2026-05-03T13:57:51Z</time></trkpt><trkpt lat="46.34898669250778" lon="13.142391173928193"><ele>242.33333333333334</ele><time>2026-05-03T13:57:52Z</time></trkpt><trkpt lat="46.34882695134974" lon="13.14237825423976"><ele>239.66666666666669</ele><time>2026-05-03T13:57:53Z</time></trkpt><trkpt lat="46.348666811142124" lon="13.142352239504614"><ele>237.0</ele><time>2026-05-03T13:57:54Z</time></trkpt><trkpt lat="46.348512511019344" lon="13.142291124348883"><ele>237.0</ele><time>2026-05-03T13:57:55Z</time></trkpt><trkpt lat="46.348362798726264" lon="13.142212641701908"><ele>237.0</ele><time>2026-05-03T13:57:56Z</time></trkpt><trkpt lat="46.348216850409024" lon="13.142119527066235"><ele>237.0</ele><time>2026-05-03T13:57:57Z</time></trkpt><trkpt lat="46.34807147710275" lon="13.142025710971144"><ele>236.66666666666669</ele><time>2026-05-03T13:57:58Z</time></trkpt><trkpt lat="46.34792471576601" lon="13.141936206517542"><ele>236.33333333333334</ele><time>2026-05-03T13:57:59Z</time></trkpt><trkpt lat="46.347778168391656" lon="13.141854124885576"><ele>236.0</ele><time>2026-05-03T13:58:00Z</time></trkpt><trkpt lat="46.34763264345822" lon="13.14177243516139"><ele>236.0</ele><time>2026-05-03T13:58:01Z</time></trkpt><trkpt lat="46.34748679774448" lon="13.141689602636372"><ele>236.0</ele><time>2026-05-03T13:58:02Z</time></trkpt><trkpt lat="46.34734118860638" lon="13.141606641142292"><ele>236.0</ele><time>2026-05-03T13:58:03Z</time></trkpt><trkpt lat="46.34719345874448" lon="13.141519903464747"><ele>235.66666666666669</ele><time>2026-05-03T13:58:04Z</time></trkpt><trkpt lat="46.34704182156059" lon="13.141435301450402"><ele>235.33333333333331</ele><time>2026-05-03T13:58:05Z</time></trkpt><trkpt lat="46.346893328232376" lon="13.141349893233723"><ele>235.0</ele><time>2026-05-03T13:58:06Z</time></trkpt><trkpt lat="46.346747632397715" lon="13.141265960826992"><ele>235.0</ele><time>2026-05-03T13:58:07Z</time></trkpt><trkpt lat="46.346611945103646" lon="13.14118695140531"><ele>235.0</ele><time>2026-05-03T13:58:08Z</time></trkpt><trkpt lat="46.34648251508413" lon="13.141110831012607"><ele>235.0</ele><time>2026-05-03T13:58:09Z</time></trkpt><trkpt lat="46.34636108032532" lon="13.141041450132393"><ele>235.0</ele><time>2026-05-03T13:58:10Z</time></trkpt><trkpt lat="46.346245537031265" lon="13.140976289555732"><ele>235.25</ele><time>2026-05-03T13:58:11Z</time></trkpt><trkpt lat="46.34613252690631" lon="13.140910608787777"><ele>235.5</ele><time>2026-05-03T13:58:12Z</time></trkpt><trkpt lat="46.34602268750212" lon="13.140841965989145"><ele>235.75</ele><time>2026-05-03T13:58:13Z</time></trkpt><trkpt lat="46.3459108904575" lon="13.140782582406903"><ele>236.0</ele><time>2026-05-03T13:58:14Z</time></trkpt><trkpt lat="46.34578816566197" lon="13.140711205842178"><ele>236.0</ele><time>2026-05-03T13:58:15.001Z</time></trkpt><trkpt lat="46.34566152383649" lon="13.140641273970763"><ele>236.0</ele><time>2026-05-03T13:58:16.001Z</time></trkpt><trkpt lat="46.34552311101064" lon="13.140563205375276"><ele>236.0</ele><time>2026-05-03T13:58:17.001Z</time></trkpt><trkpt lat="46.345381342807464" lon="13.140483561157104"><ele>236.0</ele><time>2026-05-03T13:58:18.001Z</time></trkpt><trkpt lat="46.34524674756613" lon="13.140406035318007"><ele>235.75</ele><time>2026-05-03T13:58:19.001Z</time></trkpt><trkpt lat="46.34511258682718" lon="13.140328745324842"><ele>235.5</ele><time>2026-05-03T13:58:20.001Z</time></trkpt><trkpt lat="46.344984479172304" lon="13.140252151119123"><ele>235.25</ele><time>2026-05-03T13:58:21.001Z</time></trkpt><trkpt lat="46.344856565724456" lon="13.140177058445632"><ele>235.0</ele><time>2026-05-03T13:58:22.001Z</time></trkpt><trkpt lat="46.34473236308704" lon="13.140113805709614"><ele>235.0</ele><time>2026-05-03T13:58:23.001Z</time></trkpt><trkpt lat="46.34460419098821" lon="13.14003988272184"><ele>235.0</ele><time>2026-05-03T13:58:24.001Z</time></trkpt><trkpt lat="46.344471333380454" lon="13.13996172311365"><ele>235.0</ele><time>2026-05-03T13:58:25.001Z</time></trkpt><trkpt lat="46.34433347614775" lon="13.139884252491695"><ele>235.0</ele><time>2026-05-03T13:58:26.001Z</time></trkpt><trkpt lat="46.344190708839086" lon="13.139809325929349"><ele>234.66666666666666</ele><time>2026-05-03T13:58:27.001Z</time></trkpt><trkpt lat="46.34404586180458" lon="13.139735345837373"><ele>234.33333333333331</ele><time>2026-05-03T13:58:28.001Z</time></trkpt><trkpt lat="46.34389434114256" lon="13.13968339197293"><ele>234.0</ele><time>2026-05-03T13:58:29.001Z</time></trkpt><trkpt lat="46.34373893809688" lon="13.13965075606371"><ele>234.66666666666669</ele><time>2026-05-03T13:58:30Z</time></trkpt><trkpt lat="46.343584035296765" lon="13.13963296646646"><ele>235.33333333333334</ele><time>2026-05-03T13:58:31Z</time></trkpt><trkpt lat="46.34343015693702" lon="13.139629418769859"><ele>236.0</ele><time>2026-05-03T13:58:32Z</time></trkpt><trkpt lat="46.343273992973906" lon="13.139637987932005"><ele>236.0</ele><time>2026-05-03T13:58:33Z</time></trkpt><trkpt lat="46.343120318385516" lon="13.139645278783027"><ele>236.0</ele><time>2026-05-03T13:58:34Z</time></trkpt><trkpt lat="46.34296707810341" lon="13.139647235034639"><ele>236.0</ele><time>2026-05-03T13:58:35Z</time></trkpt><trkpt lat="46.34281160223666" lon="13.139646723287528"><ele>235.0</ele><time>2026-05-03T13:58:36Z</time></trkpt><trkpt lat="46.34265905482931" lon="13.139652777191094"><ele>234.0</ele><time>2026-05-03T13:58:37Z</time></trkpt><trkpt lat="46.34250418709774" lon="13.139659822643964"><ele>233.0</ele><time>2026-05-03T13:58:38Z</time></trkpt><trkpt lat="46.34235096713033" lon="13.139664757519192"><ele>233.0</ele><time>2026-05-03T13:58:39Z</time></trkpt><trkpt lat="46.34219870155123" lon="13.139670537105632"><ele>233.0</ele><time>2026-05-03T13:58:40Z</time></trkpt><trkpt lat="46.342043693634196" lon="13.139677961794833"><ele>233.0</ele><time>2026-05-03T13:58:41Z</time></trkpt><trkpt lat="46.34189459464218" lon="13.139682607167167"><ele>233.0</ele><time>2026-05-03T13:58:42Z</time></trkpt><trkpt lat="46.34174441433716" lon="13.139688673776718"><ele>233.0</ele><time>2026-05-03T13:58:43Z</time></trkpt><trkpt lat="46.34159593480134" lon="13.139699810131619"><ele>233.0</ele><time>2026-05-03T13:58:44Z</time></trkpt><trkpt lat="46.34130086272457" lon="13.139704281598144"><ele>233.0</ele><time>2026-05-03T13:58:46Z</time></trkpt><trkpt lat="46.34115465577687" lon="13.13971308476567"><ele>233.0</ele><time>2026-05-03T13:58:47Z</time></trkpt><trkpt lat="46.34100454921423" lon="13.139718012809546"><ele>233.0</ele><time>2026-05-03T13:58:48Z</time></trkpt><trkpt lat="46.34085451447332" lon="13.139722393704323"><ele>233.0</ele><time>2026-05-03T13:58:49Z</time></trkpt><trkpt lat="46.34070353424641" lon="13.139727443178039"><ele>232.66666666666669</ele><time>2026-05-03T13:58:50Z</time></trkpt><trkpt lat="46.34054756251492" lon="13.13973348973457"><ele>232.33333333333331</ele><time>2026-05-03T13:58:51Z</time></trkpt><trkpt lat="46.340391932167854" lon="13.139735787368712"><ele>232.0</ele><time>2026-05-03T13:58:52Z</time></trkpt><trkpt lat="46.340234122327914" lon="13.13973931566018"><ele>232.0</ele><time>2026-05-03T13:58:53Z</time></trkpt><trkpt lat="46.340074793684984" lon="13.139748649684398"><ele>232.0</ele><time>2026-05-03T13:58:54Z</time></trkpt><trkpt lat="46.3399138064655" lon="13.1397485271005"><ele>232.0</ele><time>2026-05-03T13:58:55Z</time></trkpt><trkpt lat="46.33975508307296" lon="13.139755366874265"><ele>232.33333333333331</ele><time>2026-05-03T13:58:56Z</time></trkpt><trkpt lat="46.339598411717716" lon="13.139759734855199"><ele>232.66666666666669</ele><time>2026-05-03T13:58:57Z</time></trkpt><trkpt lat="46.339445284756124" lon="13.13976194009892"><ele>233.0</ele><time>2026-05-03T13:58:58Z</time></trkpt><trkpt lat="46.339300058154" lon="13.139763071268439"><ele>233.0</ele><time>2026-05-03T13:58:59Z</time></trkpt><trkpt lat="46.33915283912627" lon="13.139758602231053"><ele>233.0</ele><time>2026-05-03T13:59:00Z</time></trkpt><trkpt lat="46.33900477989387" lon="13.139744336146492"><ele>233.0</ele><time>2026-05-03T13:59:01Z</time></trkpt><trkpt lat="46.3388479708119" lon="13.1397197945863"><ele>233.0</ele><time>2026-05-03T13:59:02Z</time></trkpt><trkpt lat="46.33869161076932" lon="13.139691831122647"><ele>233.0</ele><time>2026-05-03T13:59:03Z</time></trkpt><trkpt lat="46.3385306095062" lon="13.13965877887772"><ele>233.0</ele><time>2026-05-03T13:59:04Z</time></trkpt><trkpt lat="46.33836615282088" lon="13.139612392299231"><ele>233.0</ele><time>2026-05-03T13:59:05Z</time></trkpt><trkpt lat="46.33820233116118" lon="13.139558065835034"><ele>233.0</ele><time>2026-05-03T13:59:06Z</time></trkpt><trkpt lat="46.33804009973958" lon="13.139493250160147"><ele>233.0</ele><time>2026-05-03T13:59:07Z</time></trkpt><trkpt lat="46.33788041333954" lon="13.139421745849166"><ele>232.33333333333334</ele><time>2026-05-03T13:59:08Z</time></trkpt><trkpt lat="46.33772382409942" lon="13.139334186231688"><ele>231.66666666666669</ele><time>2026-05-03T13:59:09Z</time></trkpt><trkpt lat="46.33756831040756" lon="13.139238876259187"><ele>231.0</ele><time>2026-05-03T13:59:10Z</time></trkpt><trkpt lat="46.337414367242836" lon="13.139147820681496"><ele>231.0</ele><time>2026-05-03T13:59:11Z</time></trkpt><trkpt lat="46.33726188381019" lon="13.139053547936845"><ele>231.0</ele><time>2026-05-03T13:59:12Z</time></trkpt><trkpt lat="46.337108269909784" lon="13.138960422323361"><ele>231.0</ele><time>2026-05-03T13:59:13Z</time></trkpt><trkpt lat="46.33695947359486" lon="13.13887023752863"><ele>231.33333333333331</ele><time>2026-05-03T13:59:14Z</time></trkpt><trkpt lat="46.33681051778119" lon="13.138775500760381"><ele>231.66666666666666</ele><time>2026-05-03T13:59:15Z</time></trkpt><trkpt lat="46.336658462037974" lon="13.13868646809191"><ele>232.0</ele><time>2026-05-03T13:59:16Z</time></trkpt><trkpt lat="46.336517565798474" lon="13.138599249468623"><ele>231.75</ele><time>2026-05-03T13:59:17Z</time></trkpt><trkpt lat="46.33638529432069" lon="13.138519294568857"><ele>231.5</ele><time>2026-05-03T13:59:18Z</time></trkpt><trkpt lat="46.33626076264583" lon="13.138442241606406"><ele>231.25</ele><time>2026-05-03T13:59:19Z</time></trkpt><trkpt lat="46.33613143396329" lon="13.138366308652389"><ele>231.0</ele><time>2026-05-03T13:59:20Z</time></trkpt><trkpt lat="46.33600332650351" lon="13.13829199531251"><ele>231.0</ele><time>2026-05-03T13:59:21Z</time></trkpt><trkpt lat="46.33587216953853" lon="13.138218304441832"><ele>231.0</ele><time>2026-05-03T13:59:22Z</time></trkpt><trkpt lat="46.3357460853944" lon="13.138142278364661"><ele>231.0</ele><time>2026-05-03T13:59:23Z</time></trkpt><trkpt lat="46.33561564508892" lon="13.13806574424694"><ele>231.0</ele><time>2026-05-03T13:59:24Z</time></trkpt><trkpt lat="46.3354839424311" lon="13.13798668389465"><ele>231.5</ele><time>2026-05-03T13:59:25Z</time></trkpt><trkpt lat="46.33535855050148" lon="13.137908337925621"><ele>232.0</ele><time>2026-05-03T13:59:26Z</time></trkpt><trkpt lat="46.33523820221243" lon="13.137833166805057"><ele>232.5</ele><time>2026-05-03T13:59:27Z</time></trkpt><trkpt lat="46.335120854599836" lon="13.137765844022278"><ele>233.0</ele><time>2026-05-03T13:59:28Z</time></trkpt><trkpt lat="46.33501008417653" lon="13.137697100651938"><ele>233.00000000000003</ele><time>2026-05-03T13:59:29Z</time></trkpt><trkpt lat="46.33490565874845" lon="13.137641035411454"><ele>233.0</ele><time>2026-05-03T13:59:30Z</time></trkpt><trkpt lat="46.33481309142779" lon="13.137589706724391"><ele>233.0</ele><time>2026-05-03T13:59:31Z</time></trkpt><trkpt lat="46.334745978631275" lon="13.137557824236895"><ele>233.0</ele><time>2026-05-03T13:59:32Z</time></trkpt><trkpt lat="46.33465714091406" lon="13.13753457152677"><ele>233.00000000000003</ele><time>2026-05-03T13:59:34Z</time></trkpt><trkpt lat="46.334586852789776" lon="13.137493108867346"><ele>233.0</ele><time>2026-05-03T13:59:38Z</time></trkpt><trkpt lat="46.33455740292215" lon="13.13763451763721"><ele>233.0</ele><time>2026-05-03T14:06:14.001Z</time></trkpt><trkpt lat="46.334620698159746" lon="13.13766724929133"><ele>233.0</ele><time>2026-05-03T14:06:19.001Z</time></trkpt><trkpt lat="46.334654341577014" lon="13.137523802131222"><ele>233.0</ele><time>2026-05-03T14:06:36Z</time></trkpt><trkpt lat="46.33454891647665" lon="13.137440185817796"><ele>233.0</ele><time>2026-05-03T14:06:38Z</time></trkpt><trkpt lat="46.33448902144125" lon="13.137401886137097"><ele>233.0</ele><time>2026-05-03T14:06:39Z</time></trkpt><trkpt lat="46.33437010550894" lon="13.137328392399727"><ele>233.4</ele><time>2026-05-03T14:06:41Z</time></trkpt><trkpt lat="46.33429523341532" lon="13.13728374481327"><ele>233.8</ele><time>2026-05-03T14:06:42Z</time></trkpt><trkpt lat="46.33421440385442" lon="13.137239454883627"><ele>234.2</ele><time>2026-05-03T14:06:43Z</time></trkpt><trkpt lat="46.33411038736794" lon="13.137189671158925"><ele>234.6</ele><time>2026-05-03T14:06:44Z</time></trkpt><trkpt lat="46.33401500069989" lon="13.137182975527933"><ele>235.0</ele><time>2026-05-03T14:06:45Z</time></trkpt><trkpt lat="46.33391594499654" lon="13.137187989009364"><ele>233.8</ele><time>2026-05-03T14:06:46Z</time></trkpt><trkpt lat="46.3338111946182" lon="13.13722142982412"><ele>232.6</ele><time>2026-05-03T14:06:47Z</time></trkpt><trkpt lat="46.333713485357045" lon="13.137271968439205"><ele>231.39999999999998</ele><time>2026-05-03T14:06:48Z</time></trkpt><trkpt lat="46.3336229492909" lon="13.13733085997691"><ele>230.2</ele><time>2026-05-03T14:06:49Z</time></trkpt><trkpt lat="46.333535023936264" lon="13.137393423113169"><ele>229.0</ele><time>2026-05-03T14:06:50Z</time></trkpt><trkpt lat="46.333453867739486" lon="13.137454606515318"><ele>229.0</ele><time>2026-05-03T14:06:51Z</time></trkpt><trkpt lat="46.33337337308665" lon="13.137509958661818"><ele>228.99999999999997</ele><time>2026-05-03T14:06:52Z</time></trkpt><trkpt lat="46.33329048521643" lon="13.137559105487147"><ele>228.99999999999997</ele><time>2026-05-03T14:06:53Z</time></trkpt><trkpt lat="46.333198576993965" lon="13.137609776397307"><ele>229.0</ele><time>2026-05-03T14:06:54Z</time></trkpt><trkpt lat="46.33309943300397" lon="13.137672237396128"><ele>229.0</ele><time>2026-05-03T14:06:55Z</time></trkpt><trkpt lat="46.33299594772484" lon="13.137742965048002"><ele>229.25</ele><time>2026-05-03T14:06:56Z</time></trkpt><trkpt lat="46.33288430500332" lon="13.137812232853848"><ele>229.5</ele><time>2026-05-03T14:06:57Z</time></trkpt><trkpt lat="46.33277795351828" lon="13.137879285166271"><ele>229.75</ele><time>2026-05-03T14:06:58Z</time></trkpt><trkpt lat="46.33266773194483" lon="13.137949061622507"><ele>230.0</ele><time>2026-05-03T14:06:59Z</time></trkpt><trkpt lat="46.33255302271782" lon="13.138019376331604"><ele>230.0</ele><time>2026-05-03T14:07:00Z</time></trkpt><trkpt lat="46.33243438206074" lon="13.138086252815787"><ele>230.0</ele><time>2026-05-03T14:07:01Z</time></trkpt><trkpt lat="46.33231317452989" lon="13.138137054586318"><ele>230.0</ele><time>2026-05-03T14:07:02Z</time></trkpt><trkpt lat="46.332185292451065" lon="13.138158424824892"><ele>230.0</ele><time>2026-05-03T14:07:03Z</time></trkpt><trkpt lat="46.33205518223889" lon="13.13815317754397"><ele>229.75</ele><time>2026-05-03T14:07:04Z</time></trkpt><trkpt lat="46.3319246746097" lon="13.13812504903834"><ele>229.5</ele><time>2026-05-03T14:07:05Z</time></trkpt><trkpt lat="46.33178874285822" lon="13.13807445838717"><ele>229.25</ele><time>2026-05-03T14:07:06Z</time></trkpt><trkpt lat="46.33165983182624" lon="13.138000547619482"><ele>229.0</ele><time>2026-05-03T14:07:07Z</time></trkpt><trkpt lat="46.331535913265135" lon="13.137903277321982"><ele>229.0</ele><time>2026-05-03T14:07:08Z</time></trkpt><trkpt lat="46.33141628769776" lon="13.13780602607864"><ele>229.0</ele><time>2026-05-03T14:07:09Z</time></trkpt><trkpt lat="46.331291775503544" lon="13.137719382381945"><ele>229.0</ele><time>2026-05-03T14:07:10Z</time></trkpt><trkpt lat="46.33116496307838" lon="13.137629478909838"><ele>229.0</ele><time>2026-05-03T14:07:11Z</time></trkpt><trkpt lat="46.33104094967758" lon="13.137538153342136"><ele>228.75</ele><time>2026-05-03T14:07:12Z</time></trkpt><trkpt lat="46.33091399669723" lon="13.137445736165057"><ele>228.5</ele><time>2026-05-03T14:07:13Z</time></trkpt><trkpt lat="46.33078522215944" lon="13.13735048992211"><ele>228.25</ele><time>2026-05-03T14:07:14Z</time></trkpt><trkpt lat="46.33065696989398" lon="13.137252444318577"><ele>228.0</ele><time>2026-05-03T14:07:15Z</time></trkpt><trkpt lat="46.33052710330757" lon="13.137153630148212"><ele>227.5</ele><time>2026-05-03T14:07:16Z</time></trkpt><trkpt lat="46.33039770141865" lon="13.13705713035095"><ele>227.0</ele><time>2026-05-03T14:07:17Z</time></trkpt><trkpt lat="46.330267345762806" lon="13.136960106579915"><ele>226.5</ele><time>2026-05-03T14:07:18Z</time></trkpt><trkpt lat="46.330136826995634" lon="13.136863210985092"><ele>226.0</ele><time>2026-05-03T14:07:19Z</time></trkpt><trkpt lat="46.33000842129431" lon="13.13676322814752"><ele>226.0</ele><time>2026-05-03T14:07:20Z</time></trkpt><trkpt lat="46.329877183504315" lon="13.136663672665263"><ele>226.0</ele><time>2026-05-03T14:07:21Z</time></trkpt><trkpt lat="46.329746587427515" lon="13.136567611461766"><ele>226.0</ele><time>2026-05-03T14:07:22Z</time></trkpt><trkpt lat="46.32961609003309" lon="13.136468193273076"><ele>226.0</ele><time>2026-05-03T14:07:23Z</time></trkpt><trkpt lat="46.32948510787155" lon="13.136362428504189"><ele>226.0</ele><time>2026-05-03T14:07:24Z</time></trkpt><trkpt lat="46.32935811318867" lon="13.13625600368103"><ele>226.0</ele><time>2026-05-03T14:07:25Z</time></trkpt><trkpt lat="46.32923305395371" lon="13.136140178657138"><ele>226.0</ele><time>2026-05-03T14:07:26Z</time></trkpt><trkpt lat="46.32911157493956" lon="13.136022840150055"><ele>226.0</ele><time>2026-05-03T14:07:27Z</time></trkpt><trkpt lat="46.32899032950233" lon="13.135904211920066"><ele>225.75</ele><time>2026-05-03T14:07:28Z</time></trkpt><trkpt lat="46.32886823234209" lon="13.135789119388692"><ele>225.5</ele><time>2026-05-03T14:07:29Z</time></trkpt><trkpt lat="46.328745113328765" lon="13.135671720073365"><ele>225.25</ele><time>2026-05-03T14:07:30Z</time></trkpt><trkpt lat="46.328623757944634" lon="13.135555112734908"><ele>225.0</ele><time>2026-05-03T14:07:31Z</time></trkpt><trkpt lat="46.328499998391976" lon="13.135440363681234"><ele>225.0</ele><time>2026-05-03T14:07:32Z</time></trkpt><trkpt lat="46.32837623901464" lon="13.135324801746908"><ele>225.0</ele><time>2026-05-03T14:07:33Z</time></trkpt><trkpt lat="46.32825454367318" lon="13.135207944321031"><ele>225.0</ele><time>2026-05-03T14:07:34Z</time></trkpt><trkpt lat="46.32812817215173" lon="13.13509227750806"><ele>225.0</ele><time>2026-05-03T14:07:35Z</time></trkpt><trkpt lat="46.32800195527703" lon="13.134977926808878"><ele>224.75</ele><time>2026-05-03T14:07:36Z</time></trkpt><trkpt lat="46.327883111110246" lon="13.134870092530592"><ele>224.5</ele><time>2026-05-03T14:07:36.999Z</time></trkpt><trkpt lat="46.327773955010294" lon="13.134771039719837"><ele>224.25</ele><time>2026-05-03T14:07:37.999Z</time></trkpt><trkpt lat="46.32766630888057" lon="13.134674463995363"><ele>224.0</ele><time>2026-05-03T14:07:38.999Z</time></trkpt><trkpt lat="46.32756107799992" lon="13.134580534692113"><ele>224.0</ele><time>2026-05-03T14:07:39.999Z</time></trkpt><trkpt lat="46.327455211386905" lon="13.134488237291096"><ele>224.0</ele><time>2026-05-03T14:07:40.999Z</time></trkpt><trkpt lat="46.32734397317492" lon="13.134392175075025"><ele>224.0</ele><time>2026-05-03T14:07:41.999Z</time></trkpt><trkpt lat="46.327230804181646" lon="13.13428497855586"><ele>224.0</ele><time>2026-05-03T14:07:42.999Z</time></trkpt><trkpt lat="46.327121993154634" lon="13.134175317836442"><ele>224.0</ele><time>2026-05-03T14:07:43.999Z</time></trkpt><trkpt lat="46.327006286365645" lon="13.134059850914689"><ele>224.0</ele><time>2026-05-03T14:07:44.999Z</time></trkpt><trkpt lat="46.326883399083336" lon="13.133943528980964"><ele>224.0</ele><time>2026-05-03T14:07:45.999Z</time></trkpt><trkpt lat="46.32675560498803" lon="13.133825374595661"><ele>224.0</ele><time>2026-05-03T14:07:46.999Z</time></trkpt><trkpt lat="46.32662487803638" lon="13.133701993159674"><ele>224.0</ele><time>2026-05-03T14:07:47.999Z</time></trkpt><trkpt lat="46.32649444171972" lon="13.133581609637526"><ele>224.0</ele><time>2026-05-03T14:07:48.999Z</time></trkpt><trkpt lat="46.32636439647528" lon="13.133463604054098"><ele>224.0</ele><time>2026-05-03T14:07:49.999Z</time></trkpt><trkpt lat="46.32623826141693" lon="13.133344791647446"><ele>224.25</ele><time>2026-05-03T14:07:50.999Z</time></trkpt><trkpt lat="46.32611215424593" lon="13.13322681324219"><ele>224.5</ele><time>2026-05-03T14:07:51.999Z</time></trkpt><trkpt lat="46.32598676278409" lon="13.133109362634977"><ele>224.75</ele><time>2026-05-03T14:07:52.999Z</time></trkpt><trkpt lat="46.32586416269979" lon="13.132994049633584"><ele>225.0</ele><time>2026-05-03T14:07:53.999Z</time></trkpt><trkpt lat="46.32574637794197" lon="13.13288739680019"><ele>225.0</ele><time>2026-05-03T14:07:54.999Z</time></trkpt><trkpt lat="46.32563041925899" lon="13.132782982229596"><ele>225.0</ele><time>2026-05-03T14:07:55.999Z</time></trkpt><trkpt lat="46.3255123920607" lon="13.132676984312743"><ele>225.0</ele><time>2026-05-03T14:07:56.999Z</time></trkpt><trkpt lat="46.325396011301955" lon="13.132568006750411"><ele>225.0</ele><time>2026-05-03T14:07:57.999Z</time></trkpt><trkpt lat="46.32528058828018" lon="13.132455707391797"><ele>224.5</ele><time>2026-05-03T14:07:58.999Z</time></trkpt><trkpt lat="46.32516347558855" lon="13.13234787761069"><ele>224.0</ele><time>2026-05-03T14:07:59.999Z</time></trkpt><trkpt lat="46.32504964740315" lon="13.132241621562514"><ele>223.5</ele><time>2026-05-03T14:08:00.999Z</time></trkpt><trkpt lat="46.32493648582415" lon="13.13213197205057"><ele>223.0</ele><time>2026-05-03T14:08:01.999Z</time></trkpt><trkpt lat="46.32481626607814" lon="13.132020363227316"><ele>223.0</ele><time>2026-05-03T14:08:02.999Z</time></trkpt><trkpt lat="46.324690620374994" lon="13.131908300384696"><ele>223.0</ele><time>2026-05-03T14:08:03.999Z</time></trkpt><trkpt lat="46.324560408666386" lon="13.131796501457044"><ele>223.0</ele><time>2026-05-03T14:08:04.999Z</time></trkpt><trkpt lat="46.32442724696674" lon="13.13169161371575"><ele>223.0</ele><time>2026-05-03T14:08:05.999Z</time></trkpt><trkpt lat="46.32429150924047" lon="13.13159583893832"><ele>223.0</ele><time>2026-05-03T14:08:06.999Z</time></trkpt><trkpt lat="46.324152827274666" lon="13.131510770250921"><ele>223.0</ele><time>2026-05-03T14:08:07.999Z</time></trkpt><trkpt lat="46.324010878207616" lon="13.131437799003445"><ele>222.66666666666666</ele><time>2026-05-03T14:08:08.999Z</time></trkpt><trkpt lat="46.32386319316298" lon="13.131378647203128"><ele>222.33333333333331</ele><time>2026-05-03T14:08:09.999Z</time></trkpt><trkpt lat="46.323712567213065" lon="13.131327013406683"><ele>222.0</ele><time>2026-05-03T14:08:10.999Z</time></trkpt><trkpt lat="46.32356014567555" lon="13.131276045068324"><ele>222.0</ele><time>2026-05-03T14:08:11.999Z</time></trkpt><trkpt lat="46.323408017876524" lon="13.13123033143947"><ele>222.0</ele><time>2026-05-03T14:08:12.999Z</time></trkpt><trkpt lat="46.32325679403302" lon="13.131187346298054"><ele>222.0</ele><time>2026-05-03T14:08:13.999Z</time></trkpt><trkpt lat="46.323102840809064" lon="13.131140739629751"><ele>221.66666666666669</ele><time>2026-05-03T14:08:15Z</time></trkpt><trkpt lat="46.3229487260502" lon="13.131095147808841"><ele>221.33333333333334</ele><time>2026-05-03T14:08:16Z</time></trkpt><trkpt lat="46.32279681466356" lon="13.13105137413142"><ele>221.0</ele><time>2026-05-03T14:08:17Z</time></trkpt><trkpt lat="46.32264376835471" lon="13.13100703804582"><ele>221.0</ele><time>2026-05-03T14:08:18Z</time></trkpt><trkpt lat="46.32248956980368" lon="13.130967234232573"><ele>221.0</ele><time>2026-05-03T14:08:19Z</time></trkpt><trkpt lat="46.32233335557007" lon="13.130918628001298"><ele>221.0</ele><time>2026-05-03T14:08:20Z</time></trkpt><trkpt lat="46.32217807350952" lon="13.130874709229007"><ele>221.33333333333334</ele><time>2026-05-03T14:08:21Z</time></trkpt><trkpt lat="46.32202163457675" lon="13.130830274117708"><ele>221.66666666666669</ele><time>2026-05-03T14:08:22Z</time></trkpt><trkpt lat="46.32186330142162" lon="13.130783426522582"><ele>222.0</ele><time>2026-05-03T14:08:23Z</time></trkpt><trkpt lat="46.32170709754901" lon="13.130735508425417"><ele>222.33333333333331</ele><time>2026-05-03T14:08:24Z</time></trkpt><trkpt lat="46.32154714986766" lon="13.130689107960919"><ele>222.66666666666666</ele><time>2026-05-03T14:08:25Z</time></trkpt><trkpt lat="46.321390037969955" lon="13.130651102560844"><ele>223.0</ele><time>2026-05-03T14:08:26Z</time></trkpt><trkpt lat="46.32122975843444" lon="13.130610396728104"><ele>222.0</ele><time>2026-05-03T14:08:27Z</time></trkpt><trkpt lat="46.32107187341502" lon="13.130574611407226"><ele>221.0</ele><time>2026-05-03T14:08:28Z</time></trkpt><trkpt lat="46.32091132056799" lon="13.130538113918568"><ele>220.0</ele><time>2026-05-03T14:08:29Z</time></trkpt><trkpt lat="46.32075208799248" lon="13.130505259917896"><ele>220.0</ele><time>2026-05-03T14:08:30Z</time></trkpt><trkpt lat="46.32059294195905" lon="13.130482355146372"><ele>220.0</ele><time>2026-05-03T14:08:31Z</time></trkpt><trkpt lat="46.32043243597439" lon="13.130460670619218"><ele>220.0</ele><time>2026-05-03T14:08:32Z</time></trkpt><trkpt lat="46.32027361255184" lon="13.130447629668248"><ele>220.0</ele><time>2026-05-03T14:08:33Z</time></trkpt><trkpt lat="46.32011769057305" lon="13.130440505430096"><ele>220.0</ele><time>2026-05-03T14:08:34Z</time></trkpt><trkpt lat="46.31995768669288" lon="13.130434140476387"><ele>220.0</ele><time>2026-05-03T14:08:35Z</time></trkpt><trkpt lat="46.319800721345665" lon="13.13043378751919"><ele>220.66666666666666</ele><time>2026-05-03T14:08:36Z</time></trkpt><trkpt lat="46.31964507429595" lon="13.130434092391512"><ele>221.33333333333331</ele><time>2026-05-03T14:08:37Z</time></trkpt><trkpt lat="46.3194901469917" lon="13.130435378149459"><ele>222.0</ele><time>2026-05-03T14:08:38Z</time></trkpt><trkpt lat="46.31933724863035" lon="13.130435820124445"><ele>222.0</ele><time>2026-05-03T14:08:39Z</time></trkpt><trkpt lat="46.31918642205528" lon="13.13043695151867"><ele>222.0</ele><time>2026-05-03T14:08:40Z</time></trkpt><trkpt lat="46.31903506680646" lon="13.130436427475694"><ele>222.0</ele><time>2026-05-03T14:08:41Z</time></trkpt><trkpt lat="46.31888544892343" lon="13.130432643063191"><ele>222.0</ele><time>2026-05-03T14:08:42Z</time></trkpt><trkpt lat="46.318734077990754" lon="13.130422413044068"><ele>222.0</ele><time>2026-05-03T14:08:43Z</time></trkpt><trkpt lat="46.31858002081232" lon="13.130406454352933"><ele>222.0</ele><time>2026-05-03T14:08:44Z</time></trkpt><trkpt lat="46.31842839035316" lon="13.130382863334736"><ele>222.0</ele><time>2026-05-03T14:08:45Z</time></trkpt><trkpt lat="46.318278092611195" lon="13.130346743788033"><ele>222.0</ele><time>2026-05-03T14:08:46Z</time></trkpt><trkpt lat="46.318126514906254" lon="13.13029161083692"><ele>222.0</ele><time>2026-05-03T14:08:47Z</time></trkpt><trkpt lat="46.31797507810669" lon="13.130228563777125"><ele>223.66666666666669</ele><time>2026-05-03T14:08:48Z</time></trkpt><trkpt lat="46.317825826144556" lon="13.130153380655232"><ele>225.33333333333334</ele><time>2026-05-03T14:08:49Z</time></trkpt><trkpt lat="46.317682447038834" lon="13.130072651190646"><ele>227.0</ele><time>2026-05-03T14:08:50Z</time></trkpt><trkpt lat="46.317539355552476" lon="13.129977221059624"><ele>226.66666666666669</ele><time>2026-05-03T14:08:51Z</time></trkpt><trkpt lat="46.31739936333183" lon="13.12987769832648"><ele>226.33333333333331</ele><time>2026-05-03T14:08:52Z</time></trkpt><trkpt lat="46.31725963698408" lon="13.129779715895722"><ele>226.0</ele><time>2026-05-03T14:08:53Z</time></trkpt><trkpt lat="46.3171205604558" lon="13.129688885128047"><ele>226.0</ele><time>2026-05-03T14:08:54Z</time></trkpt><trkpt lat="46.31698155518671" lon="13.129601456287578"><ele>226.0</ele><time>2026-05-03T14:08:55Z</time></trkpt><trkpt lat="46.31684117435495" lon="13.129514715048073"><ele>226.0</ele><time>2026-05-03T14:08:56Z</time></trkpt><trkpt lat="46.31670058727487" lon="13.129427921834012"><ele>226.0</ele><time>2026-05-03T14:08:57Z</time></trkpt><trkpt lat="46.31655903099852" lon="13.12933834983136"><ele>226.0</ele><time>2026-05-03T14:08:58Z</time></trkpt><trkpt lat="46.31641335307705" lon="13.129255010940241"><ele>226.0</ele><time>2026-05-03T14:08:59Z</time></trkpt><trkpt lat="46.31626470304332" lon="13.129173258628722"><ele>225.33333333333331</ele><time>2026-05-03T14:09:00Z</time></trkpt><trkpt lat="46.316112635936584" lon="13.129094891137825"><ele>224.66666666666669</ele><time>2026-05-03T14:09:01Z</time></trkpt><trkpt lat="46.315958967303025" lon="13.129019684907233"><ele>224.0</ele><time>2026-05-03T14:09:02Z</time></trkpt><trkpt lat="46.31580633933873" lon="13.128953333347292"><ele>224.0</ele><time>2026-05-03T14:09:03Z</time></trkpt><trkpt lat="46.315653946684535" lon="13.128888450111042"><ele>224.0</ele><time>2026-05-03T14:09:04Z</time></trkpt><trkpt lat="46.31549752527452" lon="13.12883508441316"><ele>224.0</ele><time>2026-05-03T14:09:05Z</time></trkpt><trkpt lat="46.31534133465128" lon="13.128790476050767"><ele>224.66666666666669</ele><time>2026-05-03T14:09:06Z</time></trkpt><trkpt lat="46.315182416284365" lon="13.128751704463205"><ele>225.33333333333331</ele><time>2026-05-03T14:09:07Z</time></trkpt><trkpt lat="46.31502199946124" lon="13.128712828073263"><ele>226.0</ele><time>2026-05-03T14:09:08Z</time></trkpt><trkpt lat="46.314863364490755" lon="13.128677661962382"><ele>226.66666666666666</ele><time>2026-05-03T14:09:09Z</time></trkpt><trkpt lat="46.314702503476475" lon="13.1286501441912"><ele>227.33333333333331</ele><time>2026-05-03T14:09:10Z</time></trkpt><trkpt lat="46.31453965469236" lon="13.128628121149172"><ele>228.0</ele><time>2026-05-03T14:09:11Z</time></trkpt><trkpt lat="46.314379814173634" lon="13.128617085945391"><ele>228.0</ele><time>2026-05-03T14:09:12Z</time></trkpt><trkpt lat="46.31421907119591" lon="13.128604974159648"><ele>228.0</ele><time>2026-05-03T14:09:13Z</time></trkpt><trkpt lat="46.31405812128022" lon="13.128600803754638"><ele>228.0</ele><time>2026-05-03T14:09:14Z</time></trkpt><trkpt lat="46.31389862832821" lon="13.128599472289805"><ele>226.66666666666669</ele><time>2026-05-03T14:09:15Z</time></trkpt><trkpt lat="46.31374025425495" lon="13.128592524375174"><ele>225.33333333333334</ele><time>2026-05-03T14:09:16Z</time></trkpt><trkpt lat="46.31358397583272" lon="13.128585348918543"><ele>224.0</ele><time>2026-05-03T14:09:17Z</time></trkpt><trkpt lat="46.313433725426314" lon="13.128580122756885"><ele>224.0</ele><time>2026-05-03T14:09:18Z</time></trkpt><trkpt lat="46.313289258845415" lon="13.128577919447775"><ele>224.0</ele><time>2026-05-03T14:09:19Z</time></trkpt><trkpt lat="46.31314362944819" lon="13.128571340614718"><ele>224.0</ele><time>2026-05-03T14:09:20Z</time></trkpt><trkpt lat="46.31300327388002" lon="13.12856627396246"><ele>224.0</ele><time>2026-05-03T14:09:21Z</time></trkpt><trkpt lat="46.31286418502295" lon="13.128559630952125"><ele>224.0</ele><time>2026-05-03T14:09:22Z</time></trkpt><trkpt lat="46.3127180209564" lon="13.128555957691656"><ele>224.0</ele><time>2026-05-03T14:09:23Z</time></trkpt><trkpt lat="46.31256884614191" lon="13.128551718211877"><ele>224.0</ele><time>2026-05-03T14:09:24Z</time></trkpt><trkpt lat="46.31241387933274" lon="13.128545212044086"><ele>224.0</ele><time>2026-05-03T14:09:24.999Z</time></trkpt><trkpt lat="46.31225631026278" lon="13.128536665877212"><ele>224.0</ele><time>2026-05-03T14:09:25.999Z</time></trkpt><trkpt lat="46.312097458344304" lon="13.12853264626196"><ele>224.0</ele><time>2026-05-03T14:09:26.999Z</time></trkpt><trkpt lat="46.31193923035247" lon="13.128531928892041"><ele>224.0</ele><time>2026-05-03T14:09:27.999Z</time></trkpt><trkpt lat="46.31177953457353" lon="13.128527564990694"><ele>224.0</ele><time>2026-05-03T14:09:28.999Z</time></trkpt><trkpt lat="46.31162152216952" lon="13.128519618618142"><ele>224.0</ele><time>2026-05-03T14:09:29.999Z</time></trkpt><trkpt lat="46.31146296455603" lon="13.12851199174205"><ele>223.33333333333334</ele><time>2026-05-03T14:09:30.999Z</time></trkpt><trkpt lat="46.31130667420951" lon="13.12851073170818"><ele>222.66666666666669</ele><time>2026-05-03T14:09:31.999Z</time></trkpt><trkpt lat="46.31114861243614" lon="13.128505136146794"><ele>222.0</ele><time>2026-05-03T14:09:32.999Z</time></trkpt><trkpt lat="46.31099185013068" lon="13.128498020692696"><ele>222.0</ele><time>2026-05-03T14:09:33.999Z</time></trkpt><trkpt lat="46.310838148797515" lon="13.128489851083325"><ele>222.0</ele><time>2026-05-03T14:09:34.999Z</time></trkpt><trkpt lat="46.31068580909617" lon="13.128483858117818"><ele>222.0</ele><time>2026-05-03T14:09:35.999Z</time></trkpt><trkpt lat="46.310533546105916" lon="13.128480617744673"><ele>221.5</ele><time>2026-05-03T14:09:36.999Z</time></trkpt><trkpt lat="46.310385536286745" lon="13.128478236242"><ele>221.0</ele><time>2026-05-03T14:09:37.999Z</time></trkpt><trkpt lat="46.310238173346534" lon="13.128475367463764"><ele>220.5</ele><time>2026-05-03T14:09:38.999Z</time></trkpt><trkpt lat="46.31008808461917" lon="13.128472395636399"><ele>220.0</ele><time>2026-05-03T14:09:39.999Z</time></trkpt><trkpt lat="46.30993595119268" lon="13.128468016202843"><ele>220.0</ele><time>2026-05-03T14:09:40.999Z</time></trkpt><trkpt lat="46.30978077029787" lon="13.12846423204205"><ele>220.0</ele><time>2026-05-03T14:09:41.999Z</time></trkpt><trkpt lat="46.30962349908775" lon="13.128459827576778"><ele>220.0</ele><time>2026-05-03T14:09:42.999Z</time></trkpt><trkpt lat="46.3094730892884" lon="13.12845738472907"><ele>222.0</ele><time>2026-05-03T14:09:43.999Z</time></trkpt><trkpt lat="46.309319706211795" lon="13.128447184777741"><ele>224.0</ele><time>2026-05-03T14:09:44.999Z</time></trkpt><trkpt lat="46.30916801001019" lon="13.128436377074173"><ele>226.0</ele><time>2026-05-03T14:09:45.999Z</time></trkpt><trkpt lat="46.30901559857454" lon="13.128416529452162"><ele>233.0</ele><time>2026-05-03T14:09:46.999Z</time></trkpt><trkpt lat="46.30885736581938" lon="13.128379804266578"><ele>240.0</ele><time>2026-05-03T14:09:47.999Z</time></trkpt><trkpt lat="46.308699481641526" lon="13.128323624933014"><ele>247.0</ele><time>2026-05-03T14:09:48.999Z</time></trkpt><trkpt lat="46.308546960154956" lon="13.128252621303396"><ele>239.0</ele><time>2026-05-03T14:09:49.999Z</time></trkpt><trkpt lat="46.30839821957085" lon="13.12816890301602"><ele>231.0</ele><time>2026-05-03T14:09:50.999Z</time></trkpt><trkpt lat="46.30825164288806" lon="13.128077035046132"><ele>223.0</ele><time>2026-05-03T14:09:51.999Z</time></trkpt><trkpt lat="46.30811254577539" lon="13.127970571484681"><ele>232.66666666666666</ele><time>2026-05-03T14:09:52.999Z</time></trkpt><trkpt lat="46.307977188261894" lon="13.127852292634325"><ele>242.33333333333331</ele><time>2026-05-03T14:09:53.999Z</time></trkpt><trkpt lat="46.307847326382706" lon="13.127730695942802"><ele>252.0</ele><time>2026-05-03T14:09:54.999Z</time></trkpt><trkpt lat="46.30772192523687" lon="13.127602644324703"><ele>252.0</ele><time>2026-05-03T14:09:55.999Z</time></trkpt><trkpt lat="46.30760242952217" lon="13.127458630549539"><ele>252.0</ele><time>2026-05-03T14:09:56.999Z</time></trkpt><trkpt lat="46.30749095105664" lon="13.127301194643898"><ele>252.0</ele><time>2026-05-03T14:09:57.999Z</time></trkpt><trkpt lat="46.30738664792717" lon="13.127136582872849"><ele>257.6666666666667</ele><time>2026-05-03T14:09:58.999Z</time></trkpt><trkpt lat="46.30728498688546" lon="13.126966957474721"><ele>263.33333333333337</ele><time>2026-05-03T14:09:59.999Z</time></trkpt><trkpt lat="46.30718946404766" lon="13.126789671934402"><ele>269.0</ele><time>2026-05-03T14:10:00.999Z</time></trkpt><trkpt lat="46.30709831893783" lon="13.126614624664427"><ele>258.0</ele><time>2026-05-03T14:10:01.999Z</time></trkpt><trkpt lat="46.30700214085083" lon="13.126426827311644"><ele>247.0</ele><time>2026-05-03T14:10:02.999Z</time></trkpt><trkpt lat="46.306906474551404" lon="13.126245858926934"><ele>236.0</ele><time>2026-05-03T14:10:03.999Z</time></trkpt><trkpt lat="46.30680878163075" lon="13.126061628961374"><ele>236.0</ele><time>2026-05-03T14:10:04.999Z</time></trkpt><trkpt lat="46.30671193080837" lon="13.125874409086965"><ele>236.0</ele><time>2026-05-03T14:10:05.999Z</time></trkpt><trkpt lat="46.306615176867524" lon="13.125694094807766"><ele>236.0</ele><time>2026-05-03T14:10:06.999Z</time></trkpt><trkpt lat="46.3065205163119" lon="13.125508166910947"><ele>239.66666666666669</ele><time>2026-05-03T14:10:07.999Z</time></trkpt><trkpt lat="46.30642531661417" lon="13.12532443379915"><ele>243.33333333333331</ele><time>2026-05-03T14:10:08.999Z</time></trkpt><trkpt lat="46.30633009996803" lon="13.125143636046968"><ele>247.0</ele><time>2026-05-03T14:10:09.999Z</time></trkpt><trkpt lat="46.30623790472362" lon="13.124957168970257"><ele>241.0</ele><time>2026-05-03T14:10:10.999Z</time></trkpt><trkpt lat="46.30614442299399" lon="13.124774021014172"><ele>235.0</ele><time>2026-05-03T14:10:11.999Z</time></trkpt><trkpt lat="46.306053297616714" lon="13.12459571321273"><ele>229.0</ele><time>2026-05-03T14:10:12.999Z</time></trkpt><trkpt lat="46.30596333890515" lon="13.124412761644331"><ele>229.0</ele><time>2026-05-03T14:10:13.999Z</time></trkpt><trkpt lat="46.30587198465934" lon="13.124234402476253"><ele>229.0</ele><time>2026-05-03T14:10:14.999Z</time></trkpt><trkpt lat="46.30578000903761" lon="13.124053636677903"><ele>229.0</ele><time>2026-05-03T14:10:15.999Z</time></trkpt><trkpt lat="46.30568895753742" lon="13.12387030398645"><ele>232.33333333333331</ele><time>2026-05-03T14:10:16.999Z</time></trkpt><trkpt lat="46.30559859015122" lon="13.123692918385215"><ele>235.66666666666669</ele><time>2026-05-03T14:10:17.999Z</time></trkpt><trkpt lat="46.305508673484134" lon="13.123512512369276"><ele>239.0</ele><time>2026-05-03T14:10:18.999Z</time></trkpt><trkpt lat="46.30541395136859" lon="13.123331513636021"><ele>232.66666666666669</ele><time>2026-05-03T14:10:19.999Z</time></trkpt><trkpt lat="46.305317109278654" lon="13.123159290252932"><ele>226.33333333333331</ele><time>2026-05-03T14:10:21Z</time></trkpt><trkpt lat="46.305214718025624" lon="13.122986880759889"><ele>220.0</ele><time>2026-05-03T14:10:22Z</time></trkpt><trkpt lat="46.305104078684856" lon="13.122820356102828"><ele>220.0</ele><time>2026-05-03T14:10:23Z</time></trkpt><trkpt lat="46.30498108543299" lon="13.122661465110477"><ele>220.0</ele><time>2026-05-03T14:10:24Z</time></trkpt><trkpt lat="46.3048529535331" lon="13.122511708671354"><ele>220.0</ele><time>2026-05-03T14:10:25Z</time></trkpt><trkpt lat="46.30472385249886" lon="13.12235772102362"><ele>218.33333333333331</ele><time>2026-05-03T14:10:26Z</time></trkpt><trkpt lat="46.3045912261979" lon="13.122217061350135"><ele>216.66666666666669</ele><time>2026-05-03T14:10:27Z</time></trkpt><trkpt lat="46.304457276622266" lon="13.122083656614866"><ele>215.0</ele><time>2026-05-03T14:10:28Z</time></trkpt><trkpt lat="46.30432245610383" lon="13.121953615043937"><ele>215.0</ele><time>2026-05-03T14:10:29Z</time></trkpt><trkpt lat="46.30419112435407" lon="13.121823277758756"><ele>215.0</ele><time>2026-05-03T14:10:30Z</time></trkpt><trkpt lat="46.304065907707134" lon="13.121689797170594"><ele>215.0</ele><time>2026-05-03T14:10:31Z</time></trkpt><trkpt lat="46.303939440019874" lon="13.121559394820496"><ele>214.66666666666669</ele><time>2026-05-03T14:10:32Z</time></trkpt><trkpt lat="46.30381418948212" lon="13.121423609950142"><ele>214.33333333333331</ele><time>2026-05-03T14:10:33Z</time></trkpt><trkpt lat="46.30368813119687" lon="13.121289927400408"><ele>214.0</ele><time>2026-05-03T14:10:34Z</time></trkpt><trkpt lat="46.30355932140156" lon="13.12115986250685"><ele>214.0</ele><time>2026-05-03T14:10:35Z</time></trkpt><trkpt lat="46.30342904984732" lon="13.121033402175646"><ele>214.0</ele><time>2026-05-03T14:10:36Z</time></trkpt><trkpt lat="46.3032990085232" lon="13.120895595451062"><ele>214.0</ele><time>2026-05-03T14:10:37Z</time></trkpt><trkpt lat="46.30316837518336" lon="13.120759376164594"><ele>214.0</ele><time>2026-05-03T14:10:38Z</time></trkpt><trkpt lat="46.30303983541249" lon="13.120623726094244"><ele>214.0</ele><time>2026-05-03T14:10:39Z</time></trkpt><trkpt lat="46.302911276627555" lon="13.12049421392434"><ele>214.0</ele><time>2026-05-03T14:10:40Z</time></trkpt><trkpt lat="46.3027848863087" lon="13.120364776182551"><ele>214.0</ele><time>2026-05-03T14:10:41Z</time></trkpt><trkpt lat="46.30265486209179" lon="13.120242985958502"><ele>214.0</ele><time>2026-05-03T14:10:42Z</time></trkpt><trkpt lat="46.30252603104593" lon="13.120129160607883"><ele>214.0</ele><time>2026-05-03T14:10:43Z</time></trkpt><trkpt lat="46.3023968494746" lon="13.120021141716496"><ele>214.0</ele><time>2026-05-03T14:10:44Z</time></trkpt><trkpt lat="46.302267585335485" lon="13.119923862774089"><ele>214.0</ele><time>2026-05-03T14:10:45Z</time></trkpt><trkpt lat="46.302142931888355" lon="13.119823945153204"><ele>214.0</ele><time>2026-05-03T14:10:46Z</time></trkpt><trkpt lat="46.302019458605045" lon="13.119726543065203"><ele>214.0</ele><time>2026-05-03T14:10:47Z</time></trkpt><trkpt lat="46.30189255826378" lon="13.119631124443845"><ele>213.0</ele><time>2026-05-03T14:10:48Z</time></trkpt><trkpt lat="46.301765772640614" lon="13.119527244521334"><ele>212.0</ele><time>2026-05-03T14:10:49Z</time></trkpt><trkpt lat="46.30163250757607" lon="13.119426191486566"><ele>211.0</ele><time>2026-05-03T14:10:50Z</time></trkpt><trkpt lat="46.30149951884282" lon="13.119320325670966"><ele>210.0</ele><time>2026-05-03T14:10:51Z</time></trkpt><trkpt lat="46.3013651849098" lon="13.119210712976452"><ele>210.0</ele><time>2026-05-03T14:10:52Z</time></trkpt><trkpt lat="46.301228311616754" lon="13.119100493502245"><ele>210.0</ele><time>2026-05-03T14:10:53Z</time></trkpt><trkpt lat="46.30108976684497" lon="13.118993916245941"><ele>210.0</ele><time>2026-05-03T14:10:54Z</time></trkpt><trkpt lat="46.300949094827125" lon="13.118886352922003"><ele>210.33333333333331</ele><time>2026-05-03T14:10:55Z</time></trkpt><trkpt lat="46.300810853506974" lon="13.118777398582326"><ele>210.66666666666666</ele><time>2026-05-03T14:10:56Z</time></trkpt><trkpt lat="46.30067384325976" lon="13.118662218659596"><ele>211.0</ele><time>2026-05-03T14:10:57Z</time></trkpt><trkpt lat="46.30053521725181" lon="13.118551537965553"><ele>210.33333333333331</ele><time>2026-05-03T14:10:58Z</time></trkpt><trkpt lat="46.300396361951684" lon="13.118445712324556"><ele>209.66666666666669</ele><time>2026-05-03T14:10:59Z</time></trkpt><trkpt lat="46.30026141542237" lon="13.11833907855847"><ele>209.0</ele><time>2026-05-03T14:11:00Z</time></trkpt><trkpt lat="46.30012674385056" lon="13.118229176422481"><ele>209.0</ele><time>2026-05-03T14:11:01Z</time></trkpt><trkpt lat="46.29999254750671" lon="13.118122212257045"><ele>209.0</ele><time>2026-05-03T14:11:02Z</time></trkpt><trkpt lat="46.29985703669253" lon="13.11801886586751"><ele>209.0</ele><time>2026-05-03T14:11:03Z</time></trkpt><trkpt lat="46.299720208086335" lon="13.117909832276554"><ele>209.0</ele><time>2026-05-03T14:11:04Z</time></trkpt><trkpt lat="46.29958354138402" lon="13.117798775354"><ele>209.0</ele><time>2026-05-03T14:11:05Z</time></trkpt><trkpt lat="46.299442555731055" lon="13.117689717260406"><ele>209.0</ele><time>2026-05-03T14:11:06Z</time></trkpt><trkpt lat="46.299300626900404" lon="13.117579294859203"><ele>209.0</ele><time>2026-05-03T14:11:07Z</time></trkpt><trkpt lat="46.29915882343653" lon="13.117464893868382"><ele>209.0</ele><time>2026-05-03T14:11:08Z</time></trkpt><trkpt lat="46.29901633560616" lon="13.117348050357569"><ele>209.0</ele><time>2026-05-03T14:11:09Z</time></trkpt><trkpt lat="46.298874199245994" lon="13.117235680534355"><ele>208.33333333333334</ele><time>2026-05-03T14:11:10Z</time></trkpt><trkpt lat="46.29872851741885" lon="13.117122858326873"><ele>207.66666666666669</ele><time>2026-05-03T14:11:11Z</time></trkpt><trkpt lat="46.298579282504484" lon="13.117005649257896"><ele>207.0</ele><time>2026-05-03T14:11:12Z</time></trkpt><trkpt lat="46.29843330458188" lon="13.116889500184334"><ele>207.0</ele><time>2026-05-03T14:11:13Z</time></trkpt><trkpt lat="46.29828908977292" lon="13.116773964562547"><ele>207.0</ele><time>2026-05-03T14:11:14Z</time></trkpt><trkpt lat="46.298151883405815" lon="13.116665863603316"><ele>207.0</ele><time>2026-05-03T14:11:15Z</time></trkpt><trkpt lat="46.29801273467296" lon="13.116556813105898"><ele>208.0</ele><time>2026-05-03T14:11:16Z</time></trkpt><trkpt lat="46.29787677633439" lon="13.116448165031379"><ele>209.0</ele><time>2026-05-03T14:11:17Z</time></trkpt><trkpt lat="46.29774092827759" lon="13.116338976593578"><ele>210.0</ele><time>2026-05-03T14:11:17.999Z</time></trkpt><trkpt lat="46.29760290713023" lon="13.116228718333115"><ele>210.0</ele><time>2026-05-03T14:11:18.999Z</time></trkpt><trkpt lat="46.29746119700602" lon="13.116120642299263"><ele>210.0</ele><time>2026-05-03T14:11:19.999Z</time></trkpt><trkpt lat="46.297320859946964" lon="13.116008996745693"><ele>210.0</ele><time>2026-05-03T14:11:20.999Z</time></trkpt><trkpt lat="46.297177847588294" lon="13.115895976730158"><ele>208.66666666666669</ele><time>2026-05-03T14:11:21.999Z</time></trkpt><trkpt lat="46.29703165743532" lon="13.115783365845932"><ele>207.33333333333334</ele><time>2026-05-03T14:11:22.999Z</time></trkpt><trkpt lat="46.296883342787694" lon="13.11567396920567"><ele>206.0</ele><time>2026-05-03T14:11:23.999Z</time></trkpt><trkpt lat="46.29673604013234" lon="13.115569648005836"><ele>206.0</ele><time>2026-05-03T14:11:24.999Z</time></trkpt><trkpt lat="46.296588933620846" lon="13.115481011444727"><ele>206.0</ele><time>2026-05-03T14:11:25.999Z</time></trkpt><trkpt lat="46.296442261611396" lon="13.115413975149849"><ele>206.0</ele><time>2026-05-03T14:11:26.999Z</time></trkpt><trkpt lat="46.29629537573581" lon="13.115362098204765"><ele>205.33333333333334</ele><time>2026-05-03T14:11:27.999Z</time></trkpt><trkpt lat="46.29614495156943" lon="13.115321974384077"><ele>204.66666666666669</ele><time>2026-05-03T14:11:28.999Z</time></trkpt><trkpt lat="46.29599303166121" lon="13.115288183821198"><ele>204.0</ele><time>2026-05-03T14:11:29.999Z</time></trkpt><trkpt lat="46.29583581723369" lon="13.115267311586976"><ele>204.0</ele><time>2026-05-03T14:11:30.999Z</time></trkpt><trkpt lat="46.29567487556035" lon="13.115257707861149"><ele>204.0</ele><time>2026-05-03T14:11:31.999Z</time></trkpt><trkpt lat="46.295512746844054" lon="13.11525965078345"><ele>204.0</ele><time>2026-05-03T14:11:32.999Z</time></trkpt><trkpt lat="46.295351624475735" lon="13.115263463034397"><ele>204.33333333333331</ele><time>2026-05-03T14:11:33.999Z</time></trkpt><trkpt lat="46.29518787049387" lon="13.115271794474667"><ele>204.66666666666666</ele><time>2026-05-03T14:11:34.999Z</time></trkpt><trkpt lat="46.295023058275454" lon="13.115277197674063"><ele>205.0</ele><time>2026-05-03T14:11:35.999Z</time></trkpt><trkpt lat="46.294856385050785" lon="13.115280978433328"><ele>204.33333333333331</ele><time>2026-05-03T14:11:36.999Z</time></trkpt><trkpt lat="46.294689273314766" lon="13.115283557187036"><ele>203.66666666666669</ele><time>2026-05-03T14:11:37.999Z</time></trkpt><trkpt lat="46.294521984506346" lon="13.11528737920521"><ele>203.0</ele><time>2026-05-03T14:11:38.999Z</time></trkpt><trkpt lat="46.29435535441797" lon="13.115292133384841"><ele>203.0</ele><time>2026-05-03T14:11:39.999Z</time></trkpt><trkpt lat="46.294192483696314" lon="13.115296500847647"><ele>203.0</ele><time>2026-05-03T14:11:40.999Z</time></trkpt><trkpt lat="46.294031378551566" lon="13.115299348822171"><ele>203.0</ele><time>2026-05-03T14:11:41.999Z</time></trkpt><trkpt lat="46.29387303497066" lon="13.11530254083001"><ele>203.33333333333334</ele><time>2026-05-03T14:11:42.999Z</time></trkpt><trkpt lat="46.29371842188348" lon="13.115304438293936"><ele>203.66666666666669</ele><time>2026-05-03T14:11:43.999Z</time></trkpt><trkpt lat="46.29355905692482" lon="13.115288484787202"><ele>204.0</ele><time>2026-05-03T14:11:44.999Z</time></trkpt><trkpt lat="46.29340207048669" lon="13.115269861380963"><ele>204.0</ele><time>2026-05-03T14:11:45.999Z</time></trkpt><trkpt lat="46.2932420351019" lon="13.115240600219744"><ele>204.0</ele><time>2026-05-03T14:11:46.999Z</time></trkpt><trkpt lat="46.293083901871" lon="13.115212631507053"><ele>204.0</ele><time>2026-05-03T14:11:47.999Z</time></trkpt><trkpt lat="46.29292194670012" lon="13.115176748781622"><ele>204.0</ele><time>2026-05-03T14:11:48.999Z</time></trkpt><trkpt lat="46.29276055241981" lon="13.115133861625237"><ele>204.0</ele><time>2026-05-03T14:11:49.999Z</time></trkpt><trkpt lat="46.292602188633424" lon="13.11509234013962"><ele>204.0</ele><time>2026-05-03T14:11:50.999Z</time></trkpt><trkpt lat="46.29244243994161" lon="13.115052150161954"><ele>204.0</ele><time>2026-05-03T14:11:51.999Z</time></trkpt><trkpt lat="46.29228649829679" lon="13.11501573310023"><ele>204.0</ele><time>2026-05-03T14:11:52.999Z</time></trkpt><trkpt lat="46.29213018599363" lon="13.114976287586755"><ele>204.0</ele><time>2026-05-03T14:11:53.999Z</time></trkpt><trkpt lat="46.291973839897246" lon="13.114941082840362"><ele>203.66666666666669</ele><time>2026-05-03T14:11:54.999Z</time></trkpt><trkpt lat="46.291818806757895" lon="13.114899800702428"><ele>203.33333333333334</ele><time>2026-05-03T14:11:55.999Z</time></trkpt><trkpt lat="46.291662387737794" lon="13.114862708569813"><ele>203.0</ele><time>2026-05-03T14:11:56.999Z</time></trkpt><trkpt lat="46.29150652208252" lon="13.1148246009294"><ele>202.33333333333334</ele><time>2026-05-03T14:11:57.999Z</time></trkpt><trkpt lat="46.29134866156247" lon="13.1147843351855"><ele>201.66666666666669</ele><time>2026-05-03T14:11:58.999Z</time></trkpt><trkpt lat="46.29118956948533" lon="13.114746013276699"><ele>201.0</ele><time>2026-05-03T14:11:59.999Z</time></trkpt><trkpt lat="46.29102818510669" lon="13.114706746671708"><ele>201.0</ele><time>2026-05-03T14:12:00.999Z</time></trkpt><trkpt lat="46.29086469611015" lon="13.114666379682559"><ele>201.0</ele><time>2026-05-03T14:12:01.999Z</time></trkpt><trkpt lat="46.2907017382178" lon="13.114623992780917"><ele>201.0</ele><time>2026-05-03T14:12:02.999Z</time></trkpt><trkpt lat="46.29054333680385" lon="13.114581308800513"><ele>201.66666666666669</ele><time>2026-05-03T14:12:03.999Z</time></trkpt><trkpt lat="46.290388531854056" lon="13.114530990778007"><ele>202.33333333333334</ele><time>2026-05-03T14:12:04.999Z</time></trkpt><trkpt lat="46.29023669424283" lon="13.114471429679746"><ele>203.0</ele><time>2026-05-03T14:12:05.999Z</time></trkpt><trkpt lat="46.290085718665885" lon="13.114387823979134"><ele>203.0</ele><time>2026-05-03T14:12:06.999Z</time></trkpt><trkpt lat="46.28993656976909" lon="13.11429640116487"><ele>203.0</ele><time>2026-05-03T14:12:07.999Z</time></trkpt><trkpt lat="46.28978663579458" lon="13.114197267327246"><ele>203.0</ele><time>2026-05-03T14:12:08.999Z</time></trkpt><trkpt lat="46.28963708179132" lon="13.114088920976245"><ele>202.0</ele><time>2026-05-03T14:12:09.999Z</time></trkpt><trkpt lat="46.28948805101405" lon="13.113973909071547"><ele>201.0</ele><time>2026-05-03T14:12:10.999Z</time></trkpt><trkpt lat="46.28933745536688" lon="13.113860802248292"><ele>200.0</ele><time>2026-05-03T14:12:11.999Z</time></trkpt><trkpt lat="46.28918503920955" lon="13.113749779040619"><ele>200.0</ele><time>2026-05-03T14:12:12.999Z</time></trkpt><trkpt lat="46.289031753073516" lon="13.113641209979164"><ele>200.0</ele><time>2026-05-03T14:12:13.999Z</time></trkpt><trkpt lat="46.288879727326425" lon="13.113527008107235"><ele>200.0</ele><time>2026-05-03T14:12:14.999Z</time></trkpt><trkpt lat="46.28873106175766" lon="13.113416241903373"><ele>200.33333333333334</ele><time>2026-05-03T14:12:15.999Z</time></trkpt><trkpt lat="46.288583725953295" lon="13.113309600021337"><ele>200.66666666666669</ele><time>2026-05-03T14:12:16.999Z</time></trkpt><trkpt lat="46.28843932403087" lon="13.113205405449202"><ele>201.0</ele><time>2026-05-03T14:12:17.999Z</time></trkpt><trkpt lat="46.28829707892454" lon="13.113097328992737"><ele>201.0</ele><time>2026-05-03T14:12:18.999Z</time></trkpt><trkpt lat="46.288155593639075" lon="13.112992258171579"><ele>201.0</ele><time>2026-05-03T14:12:19.999Z</time></trkpt><trkpt lat="46.28801172303899" lon="13.112886399050389"><ele>201.0</ele><time>2026-05-03T14:12:20.999Z</time></trkpt><trkpt lat="46.28786715209582" lon="13.11278095865378"><ele>201.0</ele><time>2026-05-03T14:12:21.999Z</time></trkpt><trkpt lat="46.28772465911326" lon="13.112677510372347"><ele>201.0</ele><time>2026-05-03T14:12:22.999Z</time></trkpt><trkpt lat="46.28758508668034" lon="13.112571160875826"><ele>201.0</ele><time>2026-05-03T14:12:23.999Z</time></trkpt><trkpt lat="46.287446293304384" lon="13.112470304252989"><ele>201.0</ele><time>2026-05-03T14:12:24.999Z</time></trkpt><trkpt lat="46.28730719301759" lon="13.112369359423413"><ele>201.0</ele><time>2026-05-03T14:12:25.999Z</time></trkpt><trkpt lat="46.28717193607458" lon="13.112270020271733"><ele>201.0</ele><time>2026-05-03T14:12:27Z</time></trkpt><trkpt lat="46.28704137099285" lon="13.112174310752765"><ele>200.75</ele><time>2026-05-03T14:12:28Z</time></trkpt><trkpt lat="46.2869201133858" lon="13.11208692002166"><ele>200.5</ele><time>2026-05-03T14:12:29Z</time></trkpt><trkpt lat="46.286808066892505" lon="13.112003432528809"><ele>200.25</ele><time>2026-05-03T14:12:30Z</time></trkpt><trkpt lat="46.28670119799996" lon="13.111927489525504"><ele>200.0</ele><time>2026-05-03T14:12:31Z</time></trkpt><trkpt lat="46.286602425417634" lon="13.111851615209666"><ele>200.0</ele><time>2026-05-03T14:12:32Z</time></trkpt><trkpt lat="46.28650769322292" lon="13.111776886307316"><ele>200.0</ele><time>2026-05-03T14:12:33Z</time></trkpt><trkpt lat="46.286412046934075" lon="13.111697458038467"><ele>200.0</ele><time>2026-05-03T14:12:34Z</time></trkpt><trkpt lat="46.28631623719593" lon="13.111622069996224"><ele>200.0</ele><time>2026-05-03T14:12:35Z</time></trkpt><trkpt lat="46.286216044378534" lon="13.111542091657045"><ele>200.0</ele><time>2026-05-03T14:12:36Z</time></trkpt><trkpt lat="46.28611666175548" lon="13.111457858812427"><ele>200.00000000000003</ele><time>2026-05-03T14:12:37Z</time></trkpt><trkpt lat="46.286033000533685" lon="13.111378442173145"><ele>200.0</ele><time>2026-05-03T14:12:38Z</time></trkpt><trkpt lat="46.28596706905989" lon="13.111318898509811"><ele>200.0</ele><time>2026-05-03T14:12:39Z</time></trkpt><trkpt lat="46.285916583406355" lon="13.111244986629977"><ele>200.0</ele><time>2026-05-03T14:12:40Z</time></trkpt><trkpt lat="46.28589109126079" lon="13.111140611811612"><ele>200.00000000000003</ele><time>2026-05-03T14:12:41Z</time></trkpt><trkpt lat="46.28589592768422" lon="13.111030855706531"><ele>200.0</ele><time>2026-05-03T14:12:42Z</time></trkpt><trkpt lat="46.28591932092585" lon="13.110921832795462"><ele>200.00000000000003</ele><time>2026-05-03T14:12:43Z</time></trkpt><trkpt lat="46.28598438706577" lon="13.11083611376309"><ele>200.0</ele><time>2026-05-03T14:12:44Z</time></trkpt><trkpt lat="46.28602433580372" lon="13.110717827916718"><ele>200.0</ele><time>2026-05-03T14:12:45Z</time></trkpt><trkpt lat="46.28604952822107" lon="13.110602966006091"><ele>200.0</ele><time>2026-05-03T14:12:46Z</time></trkpt><trkpt lat="46.28607359240296" lon="13.110504967024015"><ele>200.00000000000003</ele><time>2026-05-03T14:12:47Z</time></trkpt><trkpt lat="46.28607646942441" lon="13.110341828142428"><ele>200.0</ele><time>2026-05-03T14:12:49Z</time></trkpt><trkpt lat="46.28601536008761" lon="13.110239058503293"><ele>199.50000000000003</ele><time>2026-05-03T14:12:51Z</time></trkpt><trkpt lat="46.28590310487818" lon="13.110200555791952"><ele>199.0</ele><time>2026-05-03T14:12:53Z</time></trkpt><trkpt lat="46.28583065423972" lon="13.110200932301764"><ele>198.5</ele><time>2026-05-03T14:12:54Z</time></trkpt><trkpt lat="46.28576505200399" lon="13.110206515936705"><ele>198.0</ele><time>2026-05-03T14:12:55Z</time></trkpt><trkpt lat="46.28569728681836" lon="13.110212121825414"><ele>197.50000000000003</ele><time>2026-05-03T14:12:56Z</time></trkpt><trkpt lat="46.28561734477117" lon="13.110217935691374"><ele>197.0</ele><time>2026-05-03T14:12:57Z</time></trkpt><trkpt lat="46.28552996794953" lon="13.110216614616345"><ele>197.0</ele><time>2026-05-03T14:12:58Z</time></trkpt><trkpt lat="46.28543500089372" lon="13.110210218974188"><ele>197.0</ele><time>2026-05-03T14:12:59Z</time></trkpt><trkpt lat="46.2853270387787" lon="13.110204729471883"><ele>197.0</ele><time>2026-05-03T14:13:00Z</time></trkpt><trkpt lat="46.285225170608825" lon="13.110195139226693"><ele>197.0</ele><time>2026-05-03T14:13:01Z</time></trkpt><trkpt lat="46.285122326357914" lon="13.110172208126187"><ele>197.0</ele><time>2026-05-03T14:13:02Z</time></trkpt><trkpt lat="46.28502474654182" lon="13.110119472252395"><ele>197.0</ele><time>2026-05-03T14:13:03Z</time></trkpt><trkpt lat="46.28494331089931" lon="13.110020285880633"><ele>197.0</ele><time>2026-05-03T14:13:04Z</time></trkpt><trkpt lat="46.28485709286959" lon="13.109926261546452"><ele>197.0</ele><time>2026-05-03T14:13:05Z</time></trkpt><trkpt lat="46.28476871180183" lon="13.109831176823914"><ele>197.0</ele><time>2026-05-03T14:13:06Z</time></trkpt><trkpt lat="46.28466717672831" lon="13.109746616301333"><ele>197.0</ele><time>2026-05-03T14:13:07Z</time></trkpt><trkpt lat="46.284583087805274" lon="13.109639161213053"><ele>197.39999999999998</ele><time>2026-05-03T14:13:08Z</time></trkpt><trkpt lat="46.284500701490266" lon="13.109551083239323"><ele>197.79999999999998</ele><time>2026-05-03T14:13:09Z</time></trkpt><trkpt lat="46.284422615402896" lon="13.109465113027758"><ele>198.2</ele><time>2026-05-03T14:13:10Z</time></trkpt><trkpt lat="46.28435320737015" lon="13.109390540909086"><ele>198.6</ele><time>2026-05-03T14:13:11Z</time></trkpt><trkpt lat="46.284279259553784" lon="13.109320151782443"><ele>199.0</ele><time>2026-05-03T14:13:12Z</time></trkpt><trkpt lat="46.28421465791009" lon="13.109248586126533"><ele>198.99999999999997</ele><time>2026-05-03T14:13:13Z</time></trkpt><trkpt lat="46.28415255592236" lon="13.109177848573466"><ele>199.0</ele><time>2026-05-03T14:13:14Z</time></trkpt><trkpt lat="46.28409408285267" lon="13.109111775859468"><ele>199.0</ele><time>2026-05-03T14:13:15Z</time></trkpt><trkpt lat="46.28403677953011" lon="13.109050854588565"><ele>199.0</ele><time>2026-05-03T14:13:16Z</time></trkpt><trkpt lat="46.283963852102616" lon="13.108972798010571"><ele>198.99999999999997</ele><time>2026-05-03T14:13:18Z</time></trkpt><trkpt lat="46.283869095690015" lon="13.108877986191656"><ele>199.0</ele><time>2026-05-03T14:14:03.999Z</time></trkpt><trkpt lat="46.283820562185525" lon="13.1088113899593"><ele>198.6</ele><time>2026-05-03T14:14:05.999Z</time></trkpt><trkpt lat="46.283742938945444" lon="13.10871532175069"><ele>198.2</ele><time>2026-05-03T14:14:07.999Z</time></trkpt><trkpt lat="46.283631734136065" lon="13.108605475022168"><ele>197.79999999999998</ele><time>2026-05-03T14:14:09.999Z</time></trkpt><trkpt lat="46.283573624482436" lon="13.108548884897907"><ele>197.39999999999998</ele><time>2026-05-03T14:14:10.999Z</time></trkpt><trkpt lat="46.28352307814881" lon="13.108492909127955"><ele>197.0</ele><time>2026-05-03T14:14:11.999Z</time></trkpt><trkpt lat="46.2834309872606" lon="13.108394044046644"><ele>197.0</ele><time>2026-05-03T14:14:13.999Z</time></trkpt><trkpt lat="46.28334264790922" lon="13.108291006227935"><ele>197.0</ele><time>2026-05-03T14:14:15.999Z</time></trkpt><trkpt lat="46.283278896213254" lon="13.108202968433478"><ele>197.0</ele><time>2026-05-03T14:14:17.999Z</time></trkpt><trkpt lat="46.28210682997522" lon="13.107007436415639"><ele>197.00000000000003</ele><time>2026-05-03T14:17:28Z</time></trkpt><trkpt lat="46.28205386025" lon="13.106953121188907"><ele>197.0</ele><time>2026-05-03T14:17:29Z</time></trkpt><trkpt lat="46.282000036770526" lon="13.106900299544485"><ele>197.0</ele><time>2026-05-03T14:17:30Z</time></trkpt><trkpt lat="46.28194751425899" lon="13.106845085785837"><ele>197.0</ele><time>2026-05-03T14:17:31Z</time></trkpt><trkpt lat="46.28185192814645" lon="13.106744708595244"><ele>197.00000000000003</ele><time>2026-05-03T14:17:33Z</time></trkpt><trkpt lat="46.28176546545479" lon="13.106651356442683"><ele>197.0</ele><time>2026-05-03T14:17:35Z</time></trkpt><trkpt lat="46.28168448378472" lon="13.10657021406826"><ele>197.00000000000003</ele><time>2026-05-03T14:17:37Z</time></trkpt><trkpt lat="46.28162258944102" lon="13.10650806178765"><ele>197.0</ele><time>2026-05-03T14:17:39Z</time></trkpt><trkpt lat="46.28153936933762" lon="13.106424097271763"><ele>197.0</ele><time>2026-05-03T14:18:23Z</time></trkpt><trkpt lat="46.281487397969926" lon="13.106357536063356"><ele>197.0</ele><time>2026-05-03T14:18:25Z</time></trkpt><trkpt lat="46.28141383836333" lon="13.106290253375352"><ele>197.00000000000003</ele><time>2026-05-03T14:18:27Z</time></trkpt><trkpt lat="46.28133669753148" lon="13.106210223820977"><ele>197.0</ele><time>2026-05-03T14:18:29Z</time></trkpt><trkpt lat="46.281282951038506" lon="13.106156242653615"><ele>196.83333333333334</ele><time>2026-05-03T14:18:30Z</time></trkpt><trkpt lat="46.28122715777607" lon="13.106097587164387"><ele>196.66666666666669</ele><time>2026-05-03T14:18:31Z</time></trkpt><trkpt lat="46.28116482237604" lon="13.106030037319476"><ele>196.5</ele><time>2026-05-03T14:18:32Z</time></trkpt><trkpt lat="46.28109445559716" lon="13.10595258869568"><ele>196.33333333333331</ele><time>2026-05-03T14:18:33Z</time></trkpt><trkpt lat="46.28102255656032" lon="13.105873156816402"><ele>196.16666666666666</ele><time>2026-05-03T14:18:34Z</time></trkpt><trkpt lat="46.28094703943839" lon="13.105789785718107"><ele>196.0</ele><time>2026-05-03T14:18:35Z</time></trkpt><trkpt lat="46.2808685695498" lon="13.105704876876908"><ele>196.0</ele><time>2026-05-03T14:18:36Z</time></trkpt><trkpt lat="46.280793002135034" lon="13.105624046178523"><ele>196.0</ele><time>2026-05-03T14:18:36.999Z</time></trkpt><trkpt lat="46.28071238649077" lon="13.10554249980119"><ele>196.0</ele><time>2026-05-03T14:18:37.999Z</time></trkpt><trkpt lat="46.280635585601914" lon="13.10546293152848"><ele>196.0</ele><time>2026-05-03T14:18:38.999Z</time></trkpt><trkpt lat="46.28056013231798" lon="13.105377545689185"><ele>196.0</ele><time>2026-05-03T14:18:39.999Z</time></trkpt><trkpt lat="46.28048762152228" lon="13.105294215057464"><ele>195.8</ele><time>2026-05-03T14:18:40.999Z</time></trkpt><trkpt lat="46.28041407461676" lon="13.105214436957512"><ele>195.60000000000002</ele><time>2026-05-03T14:18:41.999Z</time></trkpt><trkpt lat="46.280337236719795" lon="13.10514018874831"><ele>195.4</ele><time>2026-05-03T14:18:42.999Z</time></trkpt><trkpt lat="46.28026639299357" lon="13.105061849793655"><ele>195.2</ele><time>2026-05-03T14:18:43.999Z</time></trkpt><trkpt lat="46.28019130210844" lon="13.104985270701416"><ele>195.0</ele><time>2026-05-03T14:18:45Z</time></trkpt><trkpt lat="46.2801090325893" lon="13.104900512918409"><ele>195.0</ele><time>2026-05-03T14:18:46Z</time></trkpt><trkpt lat="46.28002166117009" lon="13.104809374961329"><ele>195.0</ele><time>2026-05-03T14:18:47Z</time></trkpt><trkpt lat="46.2799322283664" lon="13.104709502118427"><ele>195.0</ele><time>2026-05-03T14:18:48Z</time></trkpt><trkpt lat="46.279838248913755" lon="13.104605611271461"><ele>195.0</ele><time>2026-05-03T14:18:49Z</time></trkpt><trkpt lat="46.27974249722826" lon="13.104500517782208"><ele>194.25</ele><time>2026-05-03T14:18:50Z</time></trkpt><trkpt lat="46.27964786134312" lon="13.104397719249674"><ele>193.5</ele><time>2026-05-03T14:18:51Z</time></trkpt><trkpt lat="46.27955490863035" lon="13.104297779271452"><ele>192.75</ele><time>2026-05-03T14:18:52Z</time></trkpt><trkpt lat="46.279462963258226" lon="13.104198616014429"><ele>192.0</ele><time>2026-05-03T14:18:53Z</time></trkpt><trkpt lat="46.279370199734124" lon="13.104096616024137"><ele>192.5</ele><time>2026-05-03T14:18:54Z</time></trkpt><trkpt lat="46.279278767076605" lon="13.103996809188292"><ele>193.0</ele><time>2026-05-03T14:18:55Z</time></trkpt><trkpt lat="46.279187551122924" lon="13.10390009790679"><ele>193.5</ele><time>2026-05-03T14:18:56Z</time></trkpt><trkpt lat="46.27909848811802" lon="13.10380170700137"><ele>194.0</ele><time>2026-05-03T14:18:57Z</time></trkpt><trkpt lat="46.27900564089229" lon="13.103709611488284"><ele>194.0</ele><time>2026-05-03T14:18:58Z</time></trkpt><trkpt lat="46.27891607132588" lon="13.103601692464398"><ele>194.0</ele><time>2026-05-03T14:18:59Z</time></trkpt><trkpt lat="46.27881601908046" lon="13.10349756643326"><ele>194.0</ele><time>2026-05-03T14:19:00Z</time></trkpt><trkpt lat="46.27871238718575" lon="13.103383851868616"><ele>194.0</ele><time>2026-05-03T14:19:01Z</time></trkpt><trkpt lat="46.278604131239554" lon="13.103272086826676"><ele>193.75</ele><time>2026-05-03T14:19:02Z</time></trkpt><trkpt lat="46.27850011946421" lon="13.103164654953043"><ele>193.5</ele><time>2026-05-03T14:19:03Z</time></trkpt><trkpt lat="46.27840201809467" lon="13.103059658164426"><ele>193.25</ele><time>2026-05-03T14:19:04Z</time></trkpt><trkpt lat="46.278308652941625" lon="13.102959669048762"><ele>193.0</ele><time>2026-05-03T14:19:05Z</time></trkpt><trkpt lat="46.27821456431692" lon="13.102858748347138"><ele>193.0</ele><time>2026-05-03T14:19:06Z</time></trkpt><trkpt lat="46.278117555095825" lon="13.102753422927817"><ele>193.0</ele><time>2026-05-03T14:19:07Z</time></trkpt><trkpt lat="46.2780226777571" lon="13.102647326366522"><ele>193.0</ele><time>2026-05-03T14:19:08Z</time></trkpt><trkpt lat="46.277928308579355" lon="13.102539683878273"><ele>193.0</ele><time>2026-05-03T14:19:09Z</time></trkpt><trkpt lat="46.27783381960544" lon="13.102435973873504"><ele>193.25</ele><time>2026-05-03T14:19:10Z</time></trkpt><trkpt lat="46.27773811356228" lon="13.10233735570533"><ele>193.5</ele><time>2026-05-03T14:19:11Z</time></trkpt><trkpt lat="46.27764310190991" lon="13.102233384986462"><ele>193.75</ele><time>2026-05-03T14:19:12Z</time></trkpt><trkpt lat="46.27754874626578" lon="13.10212977045783"><ele>194.0</ele><time>2026-05-03T14:19:13Z</time></trkpt><trkpt lat="46.27745735583732" lon="13.10202938560844"><ele>194.0</ele><time>2026-05-03T14:19:14Z</time></trkpt><trkpt lat="46.27736250023936" lon="13.101935662321797"><ele>194.0</ele><time>2026-05-03T14:19:15Z</time></trkpt><trkpt lat="46.277270978713055" lon="13.101842176509482"><ele>194.0</ele><time>2026-05-03T14:19:16Z</time></trkpt><trkpt lat="46.27718435506442" lon="13.10174194726198"><ele>194.0</ele><time>2026-05-03T14:19:17Z</time></trkpt><trkpt lat="46.2770948221366" lon="13.101641615919188"><ele>194.79999999999998</ele><time>2026-05-03T14:19:18Z</time></trkpt><trkpt lat="46.27700338289077" lon="13.101544932441456"><ele>195.6</ele><time>2026-05-03T14:19:19Z</time></trkpt><trkpt lat="46.276912034887005" lon="13.10145321930309"><ele>196.4</ele><time>2026-05-03T14:19:20Z</time></trkpt><trkpt lat="46.27681819278494" lon="13.101367426685941"><ele>197.2</ele><time>2026-05-03T14:19:21Z</time></trkpt><trkpt lat="46.276724033491085" lon="13.10128841538566"><ele>198.0</ele><time>2026-05-03T14:19:22Z</time></trkpt><trkpt lat="46.276628821783426" lon="13.101212413111472"><ele>198.0</ele><time>2026-05-03T14:19:23Z</time></trkpt><trkpt lat="46.27653084529752" lon="13.101155562964843"><ele>198.0</ele><time>2026-05-03T14:19:24Z</time></trkpt><trkpt lat="46.276430586771" lon="13.1011092936273"><ele>198.0</ele><time>2026-05-03T14:19:25Z</time></trkpt><trkpt lat="46.27634842871688" lon="13.101041695786204"><ele>198.0</ele><time>2026-05-03T14:19:26Z</time></trkpt><trkpt lat="46.27627241596369" lon="13.100974153996104"><ele>198.0</ele><time>2026-05-03T14:19:27Z</time></trkpt><trkpt lat="46.27623865579268" lon="13.100894169156975"><ele>197.8</ele><time>2026-05-03T14:19:28Z</time></trkpt><trkpt lat="46.2762385842623" lon="13.10075850026607"><ele>197.60000000000002</ele><time>2026-05-03T14:19:30Z</time></trkpt><trkpt lat="46.27624392490559" lon="13.100657810557706"><ele>197.39999999999998</ele><time>2026-05-03T14:19:32Z</time></trkpt><trkpt lat="46.276306687693534" lon="13.100522568240088"><ele>197.2</ele><time>2026-05-03T14:19:34Z</time></trkpt><trkpt lat="46.2763975919643" lon="13.10040012785504"><ele>197.0</ele><time>2026-05-03T14:19:36Z</time></trkpt><trkpt lat="46.27644893354956" lon="13.100304496027611"><ele>197.0</ele><time>2026-05-03T14:19:37Z</time></trkpt><trkpt lat="46.276531345743976" lon="13.100198315341851"><ele>197.0</ele><time>2026-05-03T14:19:38Z</time></trkpt><trkpt lat="46.276611934940746" lon="13.100069012670001"><ele>197.0</ele><time>2026-05-03T14:19:39Z</time></trkpt><trkpt lat="46.27668934846452" lon="13.099932494865874"><ele>197.0</ele><time>2026-05-03T14:19:40Z</time></trkpt><trkpt lat="46.276773063390536" lon="13.09978166087685"><ele>197.0</ele><time>2026-05-03T14:19:41Z</time></trkpt><trkpt lat="46.27684801593548" lon="13.099611075800246"><ele>197.0</ele><time>2026-05-03T14:19:42Z</time></trkpt><trkpt lat="46.27694559485504" lon="13.099459002689743"><ele>197.0</ele><time>2026-05-03T14:19:43Z</time></trkpt><trkpt lat="46.27703635596285" lon="13.099295035474473"><ele>197.0</ele><time>2026-05-03T14:19:44Z</time></trkpt><trkpt lat="46.27712184118403" lon="13.099141291005113"><ele>196.8</ele><time>2026-05-03T14:19:45Z</time></trkpt><trkpt lat="46.27719993811799" lon="13.099003336363607"><ele>196.6</ele><time>2026-05-03T14:19:46Z</time></trkpt><trkpt lat="46.2772686215334" lon="13.098879646242722"><ele>196.4</ele><time>2026-05-03T14:19:47Z</time></trkpt><trkpt lat="46.27731950562914" lon="13.098789686763391"><ele>196.20000000000002</ele><time>2026-05-03T14:19:48Z</time></trkpt><trkpt lat="46.27736853927441" lon="13.098698395972722"><ele>196.0</ele><time>2026-05-03T14:19:49Z</time></trkpt><trkpt lat="46.27741013145174" lon="13.098621684955948"><ele>195.83333333333331</ele><time>2026-05-03T14:19:50Z</time></trkpt><trkpt lat="46.27747280157733" lon="13.098513540913245"><ele>195.66666666666666</ele><time>2026-05-03T14:19:52Z</time></trkpt><trkpt lat="46.277525186968035" lon="13.098456657137456"><ele>195.5</ele><time>2026-05-03T14:19:55Z</time></trkpt><trkpt lat="46.27758872673335" lon="13.098566438545907"><ele>195.33333333333331</ele><time>2026-05-03T14:20:16Z</time></trkpt><trkpt lat="46.277644297884784" lon="13.098614198416685"><ele>195.16666666666666</ele><time>2026-05-03T14:20:19Z</time></trkpt><trkpt lat="46.27772112526134" lon="13.098652376024736"><ele>195.0</ele><time>2026-05-03T14:20:23Z</time></trkpt><trkpt lat="46.277785099445026" lon="13.098708370624157"><ele>195.0</ele><time>2026-05-03T14:20:30Z</time></trkpt></trkseg></trk></gpx>